ECMWFNIL_con_mucape_000.txt.gz
CAPE
0 1 2 4 3 3 2 4 5 6 6 7 8 8 11 16 16 14 10 7 8 7 5 11 26 52 82 126 160 200 196 120 87 27 62 26 118 42 13 0 0 0
0 0 3 4 4 4 4 7 8 8 5 4 5 8 9 12 13 13 16 16 11 7 5 4 6 29 55 83 97 84 116 162 76 36 13 10 25 71 21 0 0 0
0 1 0 0 1 4 7 9 10 8 7 7 7 8 11 19 18 19 17 17 16 12 11 6 1 3 32 63 91 102 78 78 111 50 22 31 56 61 40 5 0 5
3 3 3 2 2 2 6 9 10 8 7 6 7 11 10 6 4 6 11 14 25 15 6 8 6 3 9 33 59 80 82 80 48 62 29 46 66 74 68 27 29 1
3 4 4 4 3 3 6 11 10 10 11 9 8 7 7 8 7 5 7 9 4 8 16 14 10 8 10 17 36 54 62 62 56 10 12 22 38 53 69 81 71 21
2 4 4 7 9 11 14 14 12 12 12 13 11 10 9 10 12 10 7 9 19 28 30 19 12 8 8 17 26 30 39 49 60 43 12 15 21 30 29 36 69 57
3 4 6 10 14 15 16 15 14 11 11 15 13 13 12 10 7 6 6 8 14 16 20 26 21 16 8 7 16 21 28 33 46 59 32 18 37 33 17 11 0 0
4 6 6 11 15 15 15 16 19 19 18 13 14 12 20 16 9 6 5 6 14 26 39 33 25 18 15 14 11 15 16 24 36 60 40 19 57 69 40 33 54 21
6 7 7 8 11 12 12 10 11 13 12 12 12 11 10 11 8 6 4 5 8 7 10 41 34 14 18 21 17 15 17 12 22 48 66 31 5 29 33 55 22 19
8 7 7 8 11 12 14 12 13 15 12 9 6 6 5 5 6 6 6 4 7 14 11 8 41 29 14 13 23 23 20 19 19 44 66 43 18 2 20 40 39 28
8 6 5 7 9 10 12 12 12 13 14 8 8 8 4 4 6 8 8 6 6 7 10 22 32 34 16 13 16 29 32 32 31 40 53 46 29 5 0 14 12 40
5 3 3 5 8 10 11 14 16 14 11 11 6 4 3 3 3 4 8 7 6 6 8 16 30 30 20 15 12 11 26 40 48 52 50 48 46 23 8 37 0 0
1 2 5 6 7 8 11 12 12 15 15 12 10 7 5 5 3 4 6 7 6 6 8 12 23 33 25 13 12 10 10 21 40 61 61 47 46 37 12 18 0 0
1 3 5 7 8 11 12 13 12 12 14 13 10 10 8 6 4 3 2 5 6 8 8 15 25 30 26 14 13 14 10 18 21 36 56 56 41 38 15 2 0 11
2 3 6 10 14 17 18 17 15 14 10 6 6 6 7 7 8 6 5 4 4 8 10 11 24 36 37 18 12 14 16 23 27 36 39 42 39 16 8 5 0 0
4 6 10 11 16 19 20 16 12 8 7 8 8 9 8 7 6 5 7 7 8 9 12 14 19 29 31 18 12 15 18 30 45 57 52 41 40 31 20 14 0 0
10 13 14 12 13 17 16 12 9 6 8 8 9 9 9 8 7 5 7 11 10 7 8 12 15 33 32 21 14 18 15 21 51 69 66 48 39 34 34 24 13 0
14 16 15 14 15 14 12 8 8 7 6 8 10 12 11 14 16 10 9 11 12 8 5 7 11 14 29 22 8 17 16 12 38 72 76 37 36 28 31 39 30 0
15 15 13 12 11 9 7 7 6 6 6 6 8 8 11 13 11 13 12 12 12 8 10 9 9 11 29 20 2 11 17 7 20 26 50 39 44 41 49 43 25 0
14 11 8 6 6 6 7 5 4 4 4 4 6 6 8 10 11 10 10 12 12 8 9 10 8 17 40 23 6 11 16 15 11 21 32 50 51 64 71 56 0 0
4 4 7 8 8 6 5 4 2 2 2 2 3 3 5 9 8 9 9 10 17 15 12 12 9 24 49 34 13 13 8 18 19 24 43 36 52 85 92 74 0 0
3 8 8 7 7 7 5 4 2 2 3 2 4 3 4 6 4 6 10 26 24 17 27 22 21 45 61 50 34 16 14 13 20 18 38 51 38 22 68 58 0 0
4 7 6 8 9 8 4 2 2 2 2 2 2 2 3 3 2 3 8 35 25 23 43 36 34 57 82 78 51 31 31 27 18 17 25 27 28 48 100 50 46 4
2 4 8 15 11 5 2 1 1 2 2 3 3 3 3 2 1 3 2 18 37 51 54 52 54 60 77 65 45 7 41 29 10 11 13 4 8 8 16 36 62 14
0 0 8 12 6 1 0 0 0 1 2 3 3 2 1 0 1 6 4 3 20 33 30 38 47 22 0 28 20 31 44 6 19 12 10 0 9 2 7 73 53 41
0 0 6 7 3 1 0 0 0 0 0 1 2 2 1 0 1 3 0 1 18 39 53 44 30 0 0 0 15 9 15 28 20 12 6 14 7 15 38 62 46 34

ECMWFNIL_con_mucape_003.txt.gz
CAPE
2 2 2 2 2 2 2 2 2 3 4 5 6 6 7 7 7 10 9 10 11 8 4 1 0 0 0 4 17 27 40 88 123 259 406 290 99 75 76 32 28 13
2 1 2 3 2 2 2 3 2 2 2 3 4 6 7 9 9 9 9 8 9 10 7 5 4 2 0 1 6 16 26 62 132 206 63 185 262 142 116 155 100 84
1 1 1 2 2 3 3 3 3 1 1 2 4 5 6 8 9 8 10 11 10 8 9 7 6 3 1 3 5 12 14 31 70 181 174 206 217 193 142 131 186 111
0 0 0 1 3 3 3 4 3 2 1 1 3 4 5 8 9 9 9 9 11 10 12 12 10 5 3 1 2 5 14 15 12 88 187 101 109 177 217 228 131 226
0 0 0 0 1 2 2 3 3 2 2 1 2 3 5 7 8 9 9 9 9 9 8 8 10 10 7 6 4 5 12 24 10 22 92 149 88 133 118 88 92 61
0 0 0 0 1 2 2 3 2 3 3 2 2 3 3 3 4 6 7 8 8 8 8 9 8 6 7 6 5 5 10 20 29 26 30 58 137 160 228 297 193 79
0 0 0 0 2 3 4 4 4 4 3 3 2 2 4 4 4 4 7 7 6 8 8 10 8 6 5 10 8 6 7 12 18 29 27 25 42 64 83 67 107 28
0 0 0 1 3 4 4 3 3 3 3 3 3 2 2 4 3 5 5 5 6 6 7 7 7 8 11 12 7 6 6 8 13 13 28 30 34 36 64 132 95 96
0 0 0 2 4 4 4 3 3 4 4 4 4 3 4 3 2 2 4 5 5 6 5 6 6 8 8 10 12 10 8 8 10 11 17 31 35 20 27 79 131 87
0 0 0 2 5 5 5 5 5 4 4 4 3 4 3 3 2 3 3 3 4 4 5 5 4 7 9 10 9 14 12 8 6 12 13 16 26 22 16 39 72 119
0 0 1 4 6 6 6 5 5 6 6 4 4 4 3 4 4 3 4 3 4 4 4 5 4 4 6 8 11 9 15 13 8 9 12 13 19 29 13 31 58 140
0 1 3 6 5 6 6 6 6 5 7 7 5 5 4 4 4 4 4 2 3 4 4 6 7 6 5 5 7 10 16 19 10 8 13 13 15 24 27 16 28 53
0 2 4 5 6 6 6 5 6 6 5 5 5 4 5 4 3 3 3 3 4 5 5 5 5 6 8 8 7 8 9 16 18 8 12 19 16 18 34 21 24 52
1 6 5 5 6 7 8 8 6 10 7 5 5 5 6 5 2 2 2 3 2 4 4 6 6 7 7 6 7 7 8 13 9 9 7 16 22 20 32 37 15 61
2 6 8 9 8 9 8 8 8 7 6 4 5 6 7 4 2 3 3 2 2 3 4 5 7 7 6 6 7 6 8 12 16 10 7 6 19 23 28 45 34 34
2 5 7 8 8 8 8 5 3 2 3 4 5 6 4 3 4 3 3 4 4 3 3 6 7 8 5 3 4 7 10 9 17 18 11 5 14 24 29 38 35 33
5 7 8 7 8 5 4 3 2 3 2 3 3 4 4 4 4 4 3 5 4 4 5 4 6 7 2 2 4 7 7 11 20 22 19 10 11 18 25 23 34 29
4 7 8 7 4 1 0 0 1 1 2 2 2 2 5 6 4 4 4 6 6 7 6 5 5 4 3 4 4 6 7 9 14 29 27 19 11 18 20 27 35 56
7 9 7 4 2 0 0 2 1 2 2 3 3 6 5 4 4 4 5 6 8 7 8 9 8 1 4 5 5 7 8 3 10 14 30 32 18 17 22 22 30 49
9 5 4 3 1 0 1 2 2 2 2 2 3 3 4 5 7 8 9 8 7 7 8 9 9 4 4 5 5 5 3 2 4 10 26 39 30 22 33 28 42 34
2 3 5 2 1 1 2 2 2 2 2 2 4 2 6 8 8 10 9 10 8 8 10 11 11 4 5 6 9 3 2 1 4 9 26 41 22 26 21 24 34 29
4 5 0 1 0 1 2 2 2 2 3 4 2 2 6 6 9 10 9 10 10 10 12 15 12 5 5 5 5 4 2 2 4 12 26 48 35 20 11 18 30 46
6 6 3 1 0 1 2 1 2 2 4 5 4 4 4 5 6 6 7 8 9 10 12 15 15 9 6 4 0 1 1 2 4 17 34 48 29 31 11 22 20 27
5 4 4 0 0 1 1 3 2 4 5 4 4 3 3 2 5 5 5 8 8 7 8 16 19 12 11 7 0 0 0 2 8 24 39 47 37 32 20 18 6 0
8 3 3 0 0 1 1 1 1 2 3 3 3 4 5 6 7 6 5 4 5 6 6 7 10 13 18 16 1 1 3 7 12 43 39 31 20 25 15 4 4 7
1 4 1 0 0 1 2 2 2 2 0 0 0 5 5 5 6 8 8 2 4 6 6 6 8 10 18 17 4 6 14 19 26 33 28 12 20 23 13 6 6 7

ECMWFNIL_con_mucape_006.txt.gz
CAPE
0 0 0 0 0 0 0 0 0 0 0 0 0 0 0 0 0 0 1 1 3 3 4 7 9 9 9 1 0 0 0 0 4 71 121 70 96 71 129 153 160 45
0 0 0 0 0 0 0 0 0 0 0 0 0 0 0 0 0 0 1 1 1 2 2 5 9 11 9 6 6 0 0 0 0 0 52 116 53 24 15 33 175 192
0 0 0 0 0 0 0 0 0 0 0 0 0 0 0 0 0 0 0 1 2 2 8 11 11 7 6 8 10 12 2 0 0 0 3 8 45 94 290 423 451 422
0 0 0 0 0 0 0 0 0 0 0 0 0 0 0 0 0 0 0 1 2 2 3 6 8 8 8 9 8 8 9 5 0 0 0 2 18 114 144 79 146 312
0 0 0 0 0 0 0 0 0 0 0 0 0 0 0 1 0 0 0 0 2 2 3 4 7 8 7 9 10 8 9 7 7 4 0 0 2 20 53 266 216 122
0 0 0 0 0 0 0 0 0 0 0 0 0 0 0 0 0 0 0 2 0 1 2 6 7 8 8 10 11 10 7 7 3 5 4 2 0 2 11 41 117 159
0 0 0 0 0 0 0 0 0 0 0 0 0 0 0 0 0 0 0 2 0 0 2 2 4 4 10 10 11 12 5 6 5 4 4 6 3 0 1 21 39 66
0 0 0 0 0 0 0 0 0 0 0 0 0 1 0 0 0 0 0 3 2 2 2 2 2 2 4 12 13 13 14 13 8 6 6 4 8 6 0 1 24 40
0 0 0 0 0 0 0 0 0 0 0 2 1 0 1 2 1 1 2 4 3 1 0 2 2 3 3 4 8 11 9 8 10 8 11 9 9 6 4 0 6 23
0 0 0 0 0 0 0 0 0 0 0 0 2 2 2 3 6 4 3 4 3 2 0 0 0 2 2 2 2 6 12 9 11 9 12 13 9 5 3 6 6 5
0 0 0 0 0 0 0 0 0 0 0 0 2 3 5 6 6 5 4 4 6 3 3 4 1 0 1 2 1 4 8 9 10 10 16 10 13 9 2 7 9 2
0 0 0 0 0 0 0 0 0 0 1 3 6 8 9 5 6 4 4 2 3 2 2 2 2 1 0 1 0 0 4 10 11 9 13 14 10 13 7 6 13 9
0 0 0 0 0 0 0 0 0 1 2 5 6 5 6 4 3 4 4 4 3 4 2 2 1 1 1 0 0 1 2 5 9 10 8 12 16 9 12 8 8 7
0 0 0 0 0 0 0 0 1 4 6 5 4 4 4 3 4 3 5 4 3 3 2 2 2 1 0 0 1 2 2 1 4 6 8 12 14 13 10 14 12 12
0 0 0 0 0 0 0 1 4 4 4 5 4 3 3 2 2 4 4 3 3 2 2 3 2 3 2 1 3 1 2 3 2 4 6 9 14 13 13 10 13 13
0 0 0 0 0 0 0 2 3 5 3 3 2 0 2 3 2 3 2 3 2 2 4 5 3 2 1 0 0 0 7 2 5 10 9 9 10 16 11 12 12 15
0 0 0 0 0 0 2 3 0 5 0 2 2 2 4 4 4 3 1 2 3 4 4 4 3 2 0 0 0 0 0 4 7 7 13 10 10 12 17 15 22 11
0 0 0 0 0 0 4 3 3 2 2 1 2 3 4 4 2 2 2 1 4 3 4 3 4 1 0 0 0 0 1 5 7 8 11 14 12 13 18 18 21 18
0 0 0 0 0 2 4 4 0 2 1 4 4 6 7 0 0 3 0 4 3 1 3 3 4 0 0 0 0 0 0 1 12 11 9 9 10 13 17 21 22 21
0 0 0 0 1 2 2 2 2 1 5 4 4 5 3 3 2 2 2 0 2 1 4 3 0 0 0 0 0 0 2 1 10 11 12 11 9 5 8 23 24 24
0 0 0 0 3 3 3 2 4 0 1 0 0 0 3 0 4 2 2 0 2 2 5 4 0 0 0 0 0 1 1 1 11 14 13 14 13 12 0 1 23 27
0 0 0 0 1 0 2 2 0 0 0 3 2 6 3 3 3 0 1 2 2 0 0 6 1 0 0 1 2 1 1 3 11 14 11 13 13 13 9 0 2 16
0 0 0 0 0 2 3 2 0 3 8 0 0 1 0 2 0 0 2 2 2 5 8 0 4 0 0 0 0 0 2 9 13 13 14 13 14 12 16 6 0 6
0 0 0 0 0 2 1 2 0 0 10 0 0 0 1 0 2 3 1 6 2 5 6 7 8 4 0 0 1 1 2 10 12 12 18 17 13 12 13 11 1 0
0 0 0 0 1 2 2 0 0 3 0 2 0 2 0 1 4 2 4 5 4 6 8 9 10 5 0 0 0 0 1 9 10 14 17 18 14 14 15 14 11 2
0 0 0 0 2 6 0 6 5 0 0 0 0 0 0 2 4 1 0 3 0 9 10 9 8 9 6 0 0 0 0 4 10 12 21 20 18 14 18 17 12 14

ECMWFNIL_con_mucape_009.txt.gz
CAPE
0 0 0 0 0 0 0 0 0 0 0 0 0 0 0 0 0 0 0 0 0 0 0 0 0 0 0 1 2 0 0 0 2 0 1 24 202 395 313 272 158 174
0 0 0 0 0 0 0 0 0 0 0 0 0 0 0 0 0 0 0 0 0 0 0 0 0 0 0 0 1 2 0 2 0 0 1 0 28 220 465 480 333 297
0 0 0 0 0 0 0 0 0 0 0 0 0 0 0 0 0 0 0 0 0 0 0 0 0 0 0 0 2 3 1 2 1 0 1 0 2 23 88 439 604 459
0 0 0 0 0 0 0 0 0 0 0 0 0 0 0 0 0 0 0 0 0 0 0 0 0 0 1 0 4 3 2 2 2 2 2 5 3 1 8 49 113 112
0 0 0 0 0 0 0 0 0 0 0 0 0 0 0 0 0 0 0 0 0 0 1 0 0 0 1 7 5 2 2 2 3 4 4 6 5 7 7 7 30 119
0 0 0 0 0 0 0 0 0 0 0 0 0 0 0 0 0 0 0 0 0 0 0 0 0 0 0 4 8 7 5 2 3 3 6 8 5 4 2 7 12 34
0 0 0 0 0 0 0 0 0 0 0 0 0 0 0 0 0 0 0 0 0 0 0 0 0 0 0 0 5 8 7 11 5 2 2 7 5 6 7 4 6 5
0 0 0 0 0 0 0 0 0 0 0 0 0 0 0 0 0 0 0 0 0 0 0 0 0 0 0 0 1 3 6 10 10 8 6 4 8 6 8 7 2 7
0 0 0 0 0 0 0 0 0 0 0 0 0 0 0 0 0 0 0 0 0 0 0 0 0 0 0 0 0 1 2 4 8 8 6 6 6 7 4 6 6 4
0 0 0 0 0 0 0 0 0 0 0 0 0 0 0 0 0 0 0 0 0 0 0 0 0 0 0 0 0 1 0 2 1 5 6 7 6 4 7 8 7 5
0 0 0 0 0 0 0 0 0 0 0 0 0 0 0 0 0 0 0 0 0 0 0 0 0 0 0 0 0 2 1 4 2 2 3 3 4 6 5 8 13 11
0 0 0 0 0 0 0 0 0 0 0 0 0 0 0 0 0 0 3 2 1 1 1 0 2 3 1 0 2 0 3 4 6 4 2 2 2 3 4 9 11 12
0 0 0 0 0 0 0 0 0 0 0 0 0 0 0 0 0 1 3 4 4 3 2 1 1 2 2 4 1 0 1 0 1 3 2 3 2 1 2 2 5 10
0 0 0 0 0 0 0 0 0 0 0 0 0 0 0 0 0 1 3 4 4 4 2 3 3 2 1 0 0 2 0 1 0 0 3 3 3 2 1 1 2 2
0 0 0 0 0 0 0 0 0 0 0 0 0 0 0 0 3 4 1 4 3 1 1 3 2 2 2 0 0 0 2 2 1 2 1 4 5 6 6 5 2 4
0 0 0 0 0 0 0 0 0 0 0 0 0 0 1 2 3 4 1 2 1 0 3 4 3 3 2 0 0 0 0 0 4 4 4 4 5 8 6 8 4 8
0 0 0 0 0 0 0 0 0 0 0 0 0 0 5 6 6 6 0 4 2 3 5 4 3 2 0 0 0 0 0 1 1 0 2 6 12 6 12 7 10 4
0 0 0 0 0 0 0 0 0 0 0 0 0 2 5 3 4 4 3 3 6 5 5 4 4 0 0 0 0 0 0 0 1 3 4 2 4 6 8 11 11 9
0 0 0 0 0 0 0 0 0 0 0 0 0 5 5 5 5 1 1 0 0 0 0 4 4 0 0 0 0 0 0 0 0 0 0 4 3 7 6 7 14 15
0 0 0 0 0 0 0 0 0 0 0 0 1 1 0 3 2 6 2 3 2 4 4 2 2 0 0 0 0 0 1 2 2 1 3 3 4 5 7 9 9 12
0 0 0 0 0 0 0 0 0 0 0 0 1 0 4 0 0 4 1 1 5 5 4 5 3 0 0 0 0 0 0 0 0 0 1 8 4 7 7 6 10 9
0 0 0 0 0 0 0 0 0 0 0 2 0 0 0 0 0 2 0 0 1 0 5 2 2 0 0 0 0 0 0 0 1 0 4 5 7 6 3 10 9 8
0 0 0 0 0 0 0 0 0 0 1 0 1 0 0 3 0 0 0 0 0 0 4 4 0 0 0 0 1 1 2 0 0 0 0 1 10 2 13 4 14 12
0 0 0 0 0 0 0 0 0 0 1 1 1 0 0 0 0 2 3 1 3 3 0 1 2 1 0 1 2 1 0 0 7 0 0 0 9 6 11 10 11 11
0 0 0 0 0 0 0 0 0 0 1 1 1 0 1 0 3 2 2 3 2 0 3 0 2 1 0 1 1 1 0 4 5 6 3 3 6 9 1 11 12 12
0 0 0 0 0 0 0 0 0 0 0 1 0 0 0 1 1 0 0 4 1 3 2 4 2 3 0 1 1 2 2 0 2 5 8 4 0 0 2 12 12 13

ECMWFNIL_con_mucape_012.txt.gz
CAPE
0 0 0 0 0 0 0 0 0 0 0 0 0 0 0 0 0 0 0 0 0 0 0 0 0 0 0 0 0 0 0 0 0 0 0 0 0 2 50 246 292 247
0 0 0 0 0 0 0 0 0 0 0 0 0 0 0 0 0 0 0 0 0 0 0 0 0 0 0 0 0 0 0 0 0 0 0 0 0 0 5 84 258 270
0 0 0 0 0 0 0 0 0 0 0 0 0 0 0 0 0 0 0 0 0 0 0 0 0 0 1 1 0 0 0 0 0 0 0 0 0 0 0 0 89 342
0 0 0 0 0 0 0 0 0 0 0 0 0 0 0 0 0 0 0 0 0 0 0 0 0 0 0 0 0 0 0 0 2 3 1 0 0 0 0 0 0 54
0 0 0 0 0 0 0 0 0 0 0 0 0 0 0 0 0 0 0 0 0 0 0 0 0 0 0 1 2 2 2 0 0 1 3 2 1 1 0 0 0 0
0 0 0 0 0 0 0 0 0 0 0 0 0 0 0 0 0 0 0 0 0 0 0 0 0 0 0 0 0 2 2 0 0 0 0 2 0 0 0 1 2 0
0 0 0 0 0 0 0 0 0 0 0 0 0 0 0 0 0 0 0 0 0 0 0 0 0 0 0 1 0 0 1 4 2 0 0 1 6 4 0 0 2 1
0 0 0 0 0 0 0 0 0 0 0 0 0 0 0 0 0 0 0 0 0 0 0 0 0 0 0 0 0 0 0 4 8 8 3 0 1 4 3 0 1 3
0 0 0 0 0 0 0 0 0 0 0 0 0 0 0 0 0 0 0 0 0 0 0 0 0 0 0 0 1 0 0 0 1 4 7 6 2 0 0 0 0 1
0 0 0 0 0 0 0 0 0 0 0 0 0 0 0 0 0 0 0 0 0 0 0 0 0 0 0 0 0 0 0 0 0 0 1 7 9 4 0 0 0 0
0 0 0 0 0 0 0 0 0 0 0 0 0 0 0 0 0 0 0 0 0 0 0 0 0 0 0 0 0 0 0 0 0 0 0 0 2 8 7 1 0 0
0 0 0 0 0 0 0 0 0 0 0 0 0 0 0 0 0 0 0 0 0 0 0 0 0 0 0 0 0 0 0 0 0 0 0 0 0 0 2 5 2 0
0 0 0 0 0 0 0 0 0 0 0 0 0 0 0 0 0 0 0 0 0 0 0 0 0 0 0 0 0 0 0 0 0 0 0 1 2 0 0 0 3 3
2 0 0 0 0 0 0 0 0 0 0 0 0 0 0 0 0 0 0 0 0 0 0 0 0 0 0 0 1 1 1 1 1 0 0 0 0 2 4 2 1 4
5 0 0 0 0 0 0 0 0 0 0 0 0 0 0 0 0 0 0 0 0 0 2 2 2 3 3 2 2 1 2 4 4 3 2 0 0 0 0 1 2 2
0 0 0 0 0 0 0 0 0 0 0 0 0 0 0 0 0 0 0 0 0 0 0 0 0 3 4 0 0 0 0 0 0 0 0 0 0 1 1 1 0 0
0 0 0 0 0 0 0 0 0 0 0 0 0 0 0 0 0 0 0 0 0 0 0 1 3 3 0 0 0 0 0 0 0 0 0 0 0 0 0 0 0 0
0 0 0 0 0 0 0 0 0 0 0 0 0 0 0 0 0 0 0 0 0 0 1 1 2 1 0 0 0 0 0 0 0 0 0 0 0 0 0 0 0 0
0 0 0 0 0 0 0 0 0 0 0 0 0 0 0 0 0 0 0 0 0 0 0 1 1 0 0 0 0 0 0 0 0 0 1 0 0 0 0 0 0 0
0 0 0 0 0 0 0 0 0 0 0 0 0 0 0 0 0 0 0 0 0 1 2 1 1 2 0 0 0 0 0 0 0 0 0 0 0 1 2 2 1 2
0 0 0 0 0 0 0 0 0 0 0 0 0 0 0 0 0 0 0 0 1 2 1 1 1 0 0 0 0 0 0 0 0 0 0 0 0 0 0 0 0 2
0 0 0 0 0 0 0 0 0 0 0 0 0 0 0 0 0 0 0 0 0 0 1 1 1 0 0 1 1 1 1 2 1 0 0 0 0 0 1 0 1 0
0 0 0 0 0 0 0 0 0 0 0 0 0 0 0 0 0 0 0 0 0 0 2 1 0 1 1 1 1 1 1 0 0 0 1 1 0 0 1 1 0 1
0 0 0 0 0 0 0 0 0 0 0 0 0 0 0 0 0 0 0 0 0 0 0 1 1 0 0 0 1 0 0 0 0 1 1 1 1 1 4 5 4 3
0 0 0 0 0 0 0 0 0 0 0 0 0 0 0 0 0 0 0 0 0 0 2 0 2 1 1 0 0 1 1 2 2 2 3 2 3 4 2 2 2 1
0 0 0 0 0 0 0 0 0 0 0 0 0 0 0 0 0 0 0 0 1 1 1 2 1 1 2 0 0 0 0 0 1 1 1 1 1 4 2 1 3 2

ECMWFNIL_con_mucape_015.txt.gz
CAPE
0 0 0 0 0 0 0 0 0 0 0 0 0 0 0 0 0 0 0 0 0 0 0 0 0 0 0 0 0 0 0 0 0 0 0 0 0 0 0 0 0 34
0 0 0 0 0 0 0 0 0 0 0 0 0 0 0 0 0 0 0 0 0 0 0 0 0 0 0 0 0 0 0 0 0 0 0 0 0 0 0 0 0 0
0 0 0 0 0 0 0 0 0 0 0 0 0 0 0 0 0 0 0 0 0 0 0 0 0 0 0 0 0 0 0 0 0 0 0 0 0 0 0 0 0 0
0 0 0 0 0 0 0 0 0 0 0 0 0 0 0 0 0 0 0 0 0 0 0 0 0 0 0 0 0 0 0 0 0 0 0 0 0 0 0 0 0 0
0 0 0 0 0 0 0 0 0 0 0 0 0 0 0 0 0 0 0 0 0 0 0 0 0 0 0 0 0 0 0 0 0 0 0 0 0 0 0 0 0 0
0 0 0 0 0 0 0 0 0 0 0 0 0 0 0 0 0 0 0 0 0 0 0 0 0 0 0 0 0 0 0 0 0 0 0 0 0 0 0 0 0 0
0 0 0 0 0 0 0 0 0 0 0 0 0 0 0 0 0 0 0 0 0 0 0 0 0 0 0 0 0 0 0 0 0 0 0 0 1 0 0 0 0 0
0 0 0 0 0 0 0 0 0 0 0 0 0 0 0 0 0 0 0 0 0 0 0 0 0 0 0 0 0 0 0 0 0 0 0 0 4 3 0 0 0 0
0 0 0 0 0 0 0 0 0 0 0 0 0 0 0 0 0 0 0 0 0 0 0 0 0 0 0 0 0 0 0 0 0 0 0 0 0 0 0 1 0 0
0 0 0 0 0 0 0 0 0 0 0 0 0 0 0 0 0 0 0 0 0 0 0 0 0 0 0 0 0 0 0 0 0 0 0 0 0 0 0 1 6 6
0 0 0 0 0 0 0 0 0 0 0 0 0 0 0 0 0 0 0 0 0 0 0 0 0 0 0 0 0 0 0 0 0 0 0 0 0 0 0 0 0 2
0 0 0 0 0 0 0 0 0 0 0 0 0 0 0 0 0 0 0 0 0 0 0 0 0 0 0 0 0 0 0 0 0 0 0 0 0 0 0 0 0 0
0 0 0 0 0 0 0 0 0 0 0 0 0 0 0 0 0 0 0 0 0 0 0 0 0 0 0 0 0 0 0 0 0 0 0 0 0 0 0 0 0 0
0 0 0 0 0 0 0 0 0 0 0 0 0 0 0 0 0 0 0 0 0 0 0 0 0 0 0 0 0 0 0 1 0 0 0 0 0 0 0 0 0 0
0 0 0 0 0 0 0 0 0 0 0 0 0 0 0 0 0 0 0 0 0 0 0 0 0 0 0 0 0 0 0 0 0 0 0 0 0 0 0 0 0 0
0 0 0 0 0 0 0 0 0 0 0 0 0 0 0 0 0 0 0 0 0 0 0 0 0 0 0 0 0 0 0 0 0 0 0 0 0 0 0 0 0 0
0 0 0 0 0 0 0 0 0 0 0 0 0 0 0 0 0 0 0 0 0 0 0 0 0 0 0 0 0 0 0 0 0 0 0 0 0 0 0 0 0 0
0 0 0 0 0 0 0 0 0 0 0 0 0 0 0 0 0 0 0 0 0 0 0 0 0 0 0 0 0 0 0 0 0 0 0 0 0 0 0 0 0 0
0 0 0 0 0 0 0 0 0 0 0 0 0 0 0 0 0 0 0 0 0 0 0 0 0 0 0 0 0 0 0 0 0 0 0 0 0 0 0 0 0 0
0 0 0 0 0 0 0 0 0 0 0 0 0 0 0 0 0 0 0 0 0 0 0 0 0 0 0 0 0 0 0 0 0 0 0 0 0 0 0 0 0 0
0 0 0 0 0 0 0 0 0 0 0 0 0 0 0 0 0 0 0 0 0 0 0 0 0 0 0 0 0 0 0 0 0 1 0 0 0 0 0 0 0 0
0 0 0 0 0 0 0 0 0 0 0 0 0 0 0 0 0 0 0 0 0 0 0 0 0 0 0 0 0 0 0 0 0 0 0 0 0 0 0 0 0 0
0 0 0 0 0 0 0 0 0 0 0 0 0 0 0 0 0 0 0 0 0 0 0 0 0 0 0 0 0 0 0 0 0 0 0 0 0 0 0 0 0 1
0 0 0 0 0 0 0 0 0 0 0 0 0 0 0 0 0 0 0 0 0 0 0 0 0 0 0 0 0 0 0 0 0 0 0 1 0 0 1 1 1 10
0 0 0 0 0 0 0 0 0 0 0 0 0 0 0 0 0 0 0 0 0 0 0 0 0 0 0 0 0 0 0 0 0 0 0 0 0 0 0 0 0 4
0 0 0 0 0 0 0 0 0 0 0 0 0 0 0 0 0 0 0 0 0 0 0 0 0 0 0 0 0 0 0 0 0 0 0 0 0 0 0 0 0 1

ECMWFNIL_con_mucape_018.txt.gz
CAPE
0 0 0 0 0 0 0 0 0 0 0 0 0 0 0 0 0 0 0 0 0 0 0 0 0 0 0 0 0 0 0 0 0 0 0 0 0 0 0 0 0 0
0 0 0 0 0 0 0 0 0 0 0 0 0 0 0 0 0 0 0 0 0 0 0 0 0 0 0 0 0 0 0 0 0 0 0 0 0 0 0 0 0 0
0 0 0 0 0 0 0 0 0 0 0 0 0 0 0 0 0 0 0 0 0 0 0 0 0 0 0 0 0 0 0 0 0 0 0 0 0 0 0 0 0 0
0 0 0 0 0 0 0 0 0 0 0 0 0 0 0 0 0 0 0 0 0 0 0 0 0 0 0 0 0 0 0 0 0 0 0 0 0 0 0 0 0 0
0 0 0 0 0 0 0 0 0 0 0 0 0 0 0 0 0 0 0 0 0 0 0 0 0 0 0 0 0 0 0 0 0 0 0 0 0 0 0 0 0 0
0 0 0 0 0 0 0 0 0 0 0 0 0 0 0 0 0 0 0 0 0 0 0 0 0 0 0 0 0 0 0 0 0 0 0 0 0 0 0 0 0 0
0 0 0 0 0 0 0 0 0 0 0 0 0 0 0 0 0 0 0 0 0 0 0 0 0 0 0 0 0 0 0 0 0 0 0 0 0 0 0 0 0 0
321 0 0 0 0 0 0 0 0 0 0 0 0 0 0 0 0 0 0 0 0 0 0 0 0 0 0 0 0 0 0 0 0 0 0 0 0 0 0 0 0 0
405 312 0 0 0 0 0 0 0 0 0 0 0 0 0 0 0 0 0 0 0 0 0 0 0 0 0 0 0 0 0 0 0 0 0 0 0 0 0 0 0 0
511 411 212 0 0 0 0 0 0 0 0 0 0 0 0 0 0 0 0 0 0 0 0 0 0 0 0 0 0 0 0 0 0 0 0 0 0 0 0 0 0 0
604 494 348 0 0 0 0 0 0 0 0 0 0 0 0 0 0 0 0 0 0 0 0 0 0 0 0 0 0 0 0 0 0 0 0 0 0 0 0 0 0 0
681 575 395 0 0 0 0 0 0 0 0 0 0 0 0 0 0 0 0 0 0 0 0 0 0 0 0 0 0 0 0 0 0 0 0 0 0 0 0 0 0 0
747 649 395 0 0 0 0 0 0 0 0 0 0 0 0 0 0 0 0 0 0 0 0 0 0 0 0 0 0 0 0 0 0 0 0 0 0 0 0 0 0 0
813 662 378 0 0 0 0 0 0 0 0 0 0 0 0 0 0 0 0 0 0 0 0 0 0 0 0 0 0 0 0 0 0 0 0 0 0 0 0 0 0 0
840 674 370 0 0 0 0 0 0 0 0 0 0 0 0 0 0 0 0 0 0 0 0 0 0 0 0 0 0 0 0 0 0 0 0 0 0 0 0 0 0 0
871 715 368 0 0 0 0 0 0 0 0 0 0 0 0 0 0 0 0 0 0 0 0 0 0 0 0 0 0 0 0 0 0 0 0 0 0 0 0 0 0 0
869 640 314 0 0 0 0 0 0 0 0 0 0 0 0 0 0 0 0 0 0 0 0 0 0 0 0 0 0 0 0 0 0 0 0 0 0 0 0 0 0 0
746 542 278 0 0 0 0 0 0 0 0 0 0 0 0 0 0 0 0 0 0 0 0 0 0 0 0 0 0 0 0 0 0 0 0 0 0 0 0 0 0 0
668 518 139 0 0 0 0 0 0 0 0 0 0 0 0 0 0 0 0 0 0 0 0 0 0 0 0 0 0 0 0 0 0 0 0 0 0 0 0 0 0 0
574 333 61 0 0 0 0 0 0 0 0 0 0 0 0 0 0 0 0 0 0 0 0 0 0 0 0 0 0 0 0 0 0 0 0 0 0 0 0 0 0 0
4 0 0 0 0 0 0 0 0 0 0 0 0 0 0 0 0 0 0 0 0 0 0 0 0 0 0 0 0 0 0 0 0 0 0 0 0 0 0 0 0 0
0 0 0 0 0 0 0 0 0 0 0 0 0 0 0 0 0 0 0 0 0 0 0 0 0 0 0 0 0 0 0 0 0 0 0 0 0 0 0 0 0 0
14 4 0 0 0 0 0 0 0 0 0 0 0 0 0 0 0 0 0 0 0 0 0 0 0 0 0 0 0 0 0 0 0 0 0 0 0 0 0 0 0 0
0 0 0 0 0 0 0 0 0 0 0 0 0 0 0 0 0 0 0 0 0 0 0 0 0 0 0 0 0 0 0 0 0 0 0 0 0 0 0 0 0 0
0 0 0 0 0 0 0 0 0 0 0 0 0 0 0 0 0 0 0 0 0 0 0 0 0 0 0 0 0 0 0 0 0 0 0 0 0 0 0 0 0 0
0 0 0 0 0 0 0 0 0 0 0 0 0 0 0 0 0 0 0 0 0 0 0 0 0 0 0 0 0 0 0 0 0 1 1 1 1 2 1 1 1 0

ECMWFNIL_con_mucape_021.txt.gz
CAPE
0 0 0 0 0 0 0 0 0 0 0 0 0 0 0 0 0 0 0 0 0 0 0 0 0 0 0 0 0 0 0 0 0 0 0 0 0 0 0 0 0 0
0 0 0 0 0 0 0 0 0 0 0 0 0 0 0 0 0 0 0 0 0 0 0 0 0 0 0 0 0 0 0 0 0 0 0 0 0 0 0 0 0 0
0 0 0 0 0 0 0 0 0 0 0 0 0 0 0 0 0 0 0 0 0 0 0 0 0 0 0 0 0 0 0 0 0 0 0 0 0 0 0 0 0 0
0 0 0 0 0 0 0 0 0 0 0 0 0 0 0 0 0 0 0 0 0 0 0 0 0 0 0 0 0 0 0 0 0 0 0 0 0 0 0 0 0 0
0 0 0 0 0 0 0 0 0 0 0 0 0 0 0 0 0 0 0 0 0 0 0 0 0 0 0 0 0 0 0 0 0 0 0 0 0 0 0 0 0 0
280 24 0 0 0 0 0 0 0 0 0 0 0 0 0 0 0 0 0 0 0 0 0 0 0 0 0 0 0 0 0 0 0 0 0 0 0 0 0 0 0 0
346 325 275 0 0 0 0 0 0 0 0 0 0 0 0 0 0 0 0 0 0 0 0 0 0 0 0 0 0 0 0 0 0 0 0 0 0 0 0 0 0 0
412 381 344 233 0 0 0 0 0 0 0 0 0 0 0 0 0 0 0 0 0 0 0 0 0 0 0 0 0 0 0 0 0 0 0 0 0 0 0 0 0 0
480 468 428 354 270 0 0 0 0 0 0 0 0 0 0 0 0 0 0 0 0 0 0 0 0 0 0 0 0 0 0 0 0 0 0 0 0 0 0 0 0 0
560 549 520 473 389 248 0 0 0 0 0 0 0 0 0 0 0 0 0 0 0 0 0 0 0 0 0 0 0 0 0 0 0 0 0 0 0 0 0 0 0 0
644 629 619 580 506 398 88 0 0 0 0 0 0 0 0 0 0 0 0 0 0 0 0 0 0 0 0 0 0 0 0 0 0 0 0 0 0 0 0 0 0 0
744 736 711 670 615 502 371 0 0 0 0 0 0 0 0 0 0 0 0 0 0 0 0 0 0 0 0 0 0 0 0 0 0 0 0 0 0 0 0 0 0 0
841 832 796 752 710 618 466 318 0 0 0 0 0 0 0 0 0 0 0 0 0 0 0 0 0 0 0 0 0 0 0 0 0 0 0 0 0 0 0 0 0 0
974 932 868 844 815 725 575 422 122 0 0 0 0 0 0 0 0 0 0 0 0 0 0 0 0 0 0 0 0 0 0 0 0 0 0 0 0 0 0 0 0 0
1089 1032 986 935 906 810 662 515 113 0 0 0 0 0 0 0 0 0 0 0 0 0 0 0 0 0 0 0 0 0 0 0 0 0 0 0 0 0 0 0 0 0
934 1002 1055 1022 955 822 714 533 74 0 0 0 0 0 0 0 0 0 0 0 0 0 0 0 0 0 0 0 0 0 0 0 0 0 0 0 0 0 0 0 0 0
704 335 650 855 979 835 772 500 55 0 0 0 0 0 0 0 0 0 0 0 0 0 0 0 0 0 0 0 0 0 0 0 0 0 0 0 0 0 0 0 0 0
762 404 416 519 652 685 767 406 38 0 0 0 0 0 0 0 0 0 0 0 0 0 0 0 0 0 0 0 0 0 0 0 0 0 0 0 0 0 0 0 0 0
466 346 127 256 534 634 756 408 5 0 0 0 0 0 0 0 0 0 0 0 0 0 0 0 0 0 0 0 0 0 0 0 0 0 0 0 0 0 0 0 0 0
509 110 78 179 202 352 134 0 2 0 0 0 0 0 0 0 0 0 0 0 0 0 0 0 0 0 0 0 0 0 0 0 0 0 0 0 0 0 0 0 0 0
521 321 0 216 373 15 12 1 0 0 0 0 0 0 0 0 0 0 0 0 0 0 0 0 0 0 0 0 0 0 0 0 0 0 0 0 0 0 0 0 0 0
459 469 218 339 93 0 16 7 40 9 6 0 0 0 0 0 0 0 0 0 0 0 0 0 0 0 0 0 0 0 0 0 0 0 0 0 0 0 0 0 0 0
474 523 306 296 184 63 50 38 31 30 6 1 0 0 0 0 0 0 0 0 0 0 0 0 0 0 0 0 0 0 0 0 0 0 0 0 0 0 0 0 0 0
438 339 214 198 182 112 82 68 43 10 0 0 0 0 0 0 0 0 0 0 0 0 0 0 0 0 0 0 0 0 0 0 0 0 0 0 0 0 0 0 0 0
296 79 20 52 26 27 32 34 17 7 0 0 0 0 0 0 0 0 0 0 0 0 0 0 0 0 0 0 0 0 0 0 0 0 0 0 0 0 0 0 0 1
159 28 46 86 1 1 4 0 0 0 0 0 0 0 0 0 0 0 0 0 0 0 0 0 0 0 0 0 0 0 0 0 0 0 0 0 0 1 2 2 3 5

ECMWFNIL_con_mucape_024.txt.gz
CAPE
0 0 0 0 0 0 0 0 0 0 0 0 0 0 0 0 0 0 0 0 0 0 0 0 0 0 0 0 0 0 0 0 0 0 0 0 0 0 0 0 0 0
0 0 0 0 0 0 0 0 0 0 0 0 0 0 0 0 0 0 0 0 0 0 0 0 0 0 0 0 0 0 0 0 0 0 0 0 0 0 0 0 0 0
0 0 0 0 0 0 0 0 0 0 0 0 0 0 0 0 0 0 0 0 0 0 0 0 0 0 0 0 0 0 0 0 0 0 0 0 0 0 0 0 0 0
0 0 0 0 0 0 0 0 0 0 0 0 0 0 0 0 0 0 0 0 0 0 0 0 0 0 0 0 0 0 0 0 0 0 0 0 0 0 0 0 0 0
0 0 0 0 0 0 0 0 0 0 0 0 0 0 0 0 0 0 0 0 0 0 0 0 0 0 0 0 0 0 0 0 0 0 0 0 0 0 0 0 0 0
0 0 0 0 0 0 0 0 0 0 0 0 0 0 0 0 0 0 0 0 0 0 0 0 0 0 0 0 0 0 0 0 0 0 0 0 0 0 0 0 0 0
0 0 0 0 0 0 0 0 0 0 0 0 0 0 0 0 0 0 0 0 0 0 0 0 0 0 0 0 0 0 0 0 0 0 0 0 0 0 0 0 0 0
238 201 258 258 0 0 0 0 0 0 0 0 0 0 0 0 0 0 0 0 0 0 0 0 0 0 0 0 0 0 0 0 0 0 0 0 0 0 0 0 0 0
300 325 315 363 324 284 291 280 0 0 0 0 0 0 0 0 0 0 0 0 0 0 0 0 0 0 0 0 0 0 0 0 0 0 0 0 0 0 0 0 0 0
433 397 427 438 406 371 357 362 329 0 0 0 0 0 0 0 0 0 0 0 0 0 0 0 0 0 0 0 0 0 0 0 0 0 0 0 0 0 0 0 0 0
510 562 530 523 507 468 438 419 404 350 184 0 0 0 0 0 0 0 0 0 0 0 0 0 0 0 0 0 0 0 0 0 0 0 0 0 0 0 0 0 0 0
552 584 620 640 637 613 549 494 458 435 370 234 0 0 0 0 0 0 0 0 0 0 0 0 0 0 0 0 0 0 0 0 0 0 0 0 0 0 0 0 0 0
721 713 696 676 693 695 653 589 521 493 463 404 244 0 0 0 0 0 0 0 0 0 0 0 0 0 0 0 0 0 0 0 0 0 0 0 0 0 0 0 0 0
963 868 837 804 777 761 733 678 545 491 538 539 405 182 0 0 0 0 0 0 0 0 0 0 0 0 0 0 0 0 0 0 0 0 0 0 0 0 0 0 0 0
1196 1188 1051 867 840 825 684 650 478 0 206 329 343 315 122 0 0 0 0 0 0 0 0 0 0 0 0 0 0 0 0 0 0 0 0 0 0 0 0 0 0 0
1009 1053 1080 1098 973 896 885 756 596 196 91 8 18 110 117 0 0 0 0 0 0 0 0 0 0 0 0 0 0 0 0 0 0 0 0 0 0 0 0 0 0 0
716 868 966 977 1029 1055 1025 985 901 597 353 143 19 0 0 0 0 0 0 0 0 0 0 0 0 0 0 0 0 0 0 0 0 0 0 0 0 0 0 0 0 0
416 598 718 833 933 1005 1062 984 801 629 448 338 22 1 0 0 0 0 0 0 0 0 0 0 0 0 0 0 0 0 0 0 0 0 0 0 0 0 0 0 0 0
0 216 499 628 739 882 979 954 766 506 423 347 213 0 0 0 0 0 0 0 0 0 0 0 0 0 0 0 0 0 0 0 0 0 0 0 0 0 0 0 0 0
0 0 0 415 566 658 749 805 525 407 382 355 224 49 3 0 0 0 0 0 0 0 0 0 0 0 0 0 0 0 0 0 0 0 0 0 0 0 0 0 0 0
0 0 0 0 227 528 644 622 349 297 256 182 57 24 1 0 0 0 0 0 0 0 0 0 0 0 0 0 0 0 0 0 0 0 0 0 0 0 0 0 0 0
0 0 0 0 0 354 476 469 292 185 235 186 59 38 32 18 0 0 0 0 0 0 0 0 0 0 0 0 0 0 0 0 0 0 0 0 0 0 0 0 0 0
0 0 0 0 0 160 325 375 328 273 203 74 17 19 2 0 0 0 3 2 0 0 0 0 0 0 0 0 0 0 0 0 0 0 0 0 0 0 0 0 0 0
0 0 0 0 0 0 244 350 321 224 143 68 25 14 6 6 0 0 0 0 0 0 0 0 0 0 0 0 0 0 0 0 0 0 0 0 0 0 0 0 0 0
0 0 0 2 0 71 212 332 258 152 50 37 19 4 2 2 0 1 1 0 0 0 0 0 0 0 0 0 0 0 0 0 0 0 0 0 0 0 0 0 0 1
0 0 0 0 13 3 207 277 100 95 1 3 0 15 10 6 1 2 2 1 1 0 0 0 0 0 0 0 0 0 0 0 0 0 0 0 0 0 0 0 0 1

ECMWFNIL_con_mucape_027.txt.gz
CAPE
1 5 32 12 10 12 17 3 0 2 4 4 0 0 0 1 0 0 0 0 0 0 0 0 0 0 0 0 0 0 0 0 0 0 0 0 0 0 0 0 0 0
0 1 4 12 7 0 2 13 3 0 2 2 0 4 3 1 0 0 0 0 0 0 0 0 0 0 0 0 0 0 0 0 0 0 0 0 0 0 0 0 0 0
0 0 2 11 12 7 2 0 2 2 3 1 5 0 0 3 0 0 0 0 0 0 0 0 0 0 0 0 0 0 0 0 0 0 0 0 0 0 0 0 0 0
0 0 2 18 28 21 6 0 0 0 0 0 0 0 0 0 0 0 0 0 0 0 0 0 0 0 0 0 0 0 0 0 0 0 0 0 0 0 0 0 0 0
0 0 0 3 17 16 4 0 0 0 0 0 0 0 0 0 0 0 0 0 0 0 0 0 0 0 0 0 0 0 0 0 0 0 0 0 0 0 0 0 0 0
0 0 0 0 0 7 2 1 1 0 0 0 0 0 0 0 0 0 0 0 0 0 0 0 0 0 0 0 0 0 0 0 0 0 0 0 0 0 0 0 0 0
60 12 0 0 0 0 11 34 33 2 0 0 0 0 0 0 0 0 0 0 0 0 0 0 0 0 0 0 0 0 0 0 0 0 0 0 0 0 0 0 0 0
150 214 204 172 175 134 0 4 12 1 0 0 0 0 0 0 0 0 0 0 0 0 0 0 0 0 0 0 0 0 0 0 0 0 0 0 0 0 0 0 0 0
162 192 232 226 228 232 222 194 10 1 0 0 0 0 0 0 0 0 0 0 0 0 0 0 0 0 0 0 0 0 0 0 0 0 0 0 0 0 0 0 0 0
344 269 239 204 236 282 294 300 286 244 15 0 0 11 2 0 0 0 0 0 0 0 0 0 0 0 0 0 0 0 0 0 0 0 0 0 0 0 0 0 0 0
562 488 467 400 305 234 293 303 326 355 341 292 284 255 244 132 0 0 0 0 0 0 0 0 0 0 0 0 0 0 0 0 0 0 0 0 0 0 0 0 0 0
658 632 572 564 582 574 496 387 362 381 387 376 314 254 303 325 184 6 0 0 0 0 0 0 0 0 0 0 0 0 0 0 0 0 0 0 0 0 0 0 0 0
660 689 713 757 780 752 704 677 616 530 494 450 283 177 48 0 0 182 17 0 0 0 0 0 0 0 0 0 0 0 0 0 0 0 0 0 0 0 0 0 0 0
688 571 596 695 793 907 920 903 826 750 688 593 592 512 28 0 4 0 0 41 0 0 0 0 0 0 0 0 0 0 0 0 0 0 0 0 0 0 0 0 0 0
604 601 562 524 662 720 809 855 878 882 835 734 659 657 413 29 48 3 0 142 0 0 0 0 0 0 0 0 0 0 0 0 0 0 0 0 0 0 0 0 0 0
108 318 440 495 470 614 482 582 704 690 672 657 684 680 536 334 273 101 15 7 2 0 0 0 0 0 0 0 0 0 0 0 0 0 0 0 0 0 0 0 0 0
18 87 215 343 435 496 424 542 515 563 580 581 591 616 584 521 307 0 0 0 0 0 0 0 0 0 0 0 0 0 0 0 0 0 0 0 0 0 0 0 0 0
0 4 68 150 272 334 322 341 354 403 454 572 618 529 496 452 370 123 0 0 0 0 0 0 0 0 0 0 0 0 0 0 0 0 0 0 0 0 0 0 0 0
0 0 6 63 138 173 176 26 277 317 354 522 584 548 435 358 331 311 148 60 4 0 0 0 0 0 0 0 0 0 0 0 0 0 0 0 0 0 0 0 0 0
0 0 0 0 50 62 70 30 0 246 255 355 460 427 361 322 252 275 231 163 67 0 3 0 0 0 0 0 0 0 0 0 0 0 0 0 0 0 0 0 0 0
0 0 0 0 0 0 1 34 0 0 0 203 335 314 310 296 253 242 196 173 141 49 4 9 0 0 0 1 0 0 0 0 0 0 0 0 0 0 0 0 0 0
0 0 0 0 0 0 1 1 0 0 99 248 327 156 0 228 207 204 186 166 98 0 9 15 2 2 6 0 0 0 0 0 0 0 0 0 0 0 0 0 0 0
0 0 0 0 0 0 1 2 0 0 43 0 309 276 180 160 220 196 145 118 26 8 14 12 6 0 0 0 0 0 0 0 0 0 0 0 0 0 0 0 0 0
0 0 0 0 0 0 1 2 0 0 104 121 291 284 226 222 177 104 1 0 1 9 3 17 8 4 0 0 0 0 0 0 0 0 0 0 0 0 0 0 0 0
0 0 0 0 0 0 2 0 1 26 5 254 278 273 253 155 7 1 1 2 0 5 9 8 3 4 2 7 4 0 0 0 0 0 0 0 0 0 0 0 0 0
0 0 0 0 0 0 0 1 1 0 3 222 279 247 110 15 2 3 2 2 3 5 8 8 6 4 7 6 5 1 0 0 0 0 0 0 0 0 0 0 0 0

ECMWFNIL_con_mucape_030.txt.gz
CAPE
400 311 277 46 7 7 34 6 3 5 0 0 0 0 0 0 4 5 3 2 0 0 0 0 0 0 0 0 0 0 0 0 0 0 0 0 0 0 0 0 0 0
650 467 218 113 26 8 56 26 18 0 0 0 0 0 0 4 13 18 30 18 0 0 0 0 0 0 0 0 0 0 0 0 0 0 0 0 0 0 0 0 0 0
817 734 573 412 210 218 260 168 58 14 0 2 0 0 4 46 16 24 31 23 0 0 0 0 0 0 0 0 0 0 0 0 0 0 0 0 0 0 0 0 0 0
816 820 740 649 586 527 523 302 154 69 7 14 7 8 62 67 13 24 38 7 5 0 0 0 0 0 0 0 0 0 0 0 0 0 0 0 0 0 0 0 0 0
902 852 796 716 677 664 685 475 299 106 75 66 38 19 5 17 30 23 35 12 6 0 0 0 0 0 0 0 0 0 0 0 0 0 0 0 0 0 0 0 0 0
894 799 759 686 687 718 662 605 370 242 179 150 115 52 1 11 11 16 28 12 9 0 0 0 0 0 0 0 0 0 0 0 0 0 0 0 0 0 0 0 0 0
824 845 853 768 733 699 652 577 439 297 260 269 265 210 12 24 3 9 10 12 4 0 0 0 0 0 0 0 0 0 0 0 0 0 0 0 0 0 0 0 0 0
643 698 783 817 811 802 759 574 524 499 481 413 352 369 159 104 6 9 11 13 1 0 0 0 0 0 0 0 0 0 0 0 0 0 0 0 0 0 0 0 0 0
613 616 649 752 782 792 792 722 538 579 625 687 570 479 351 235 68 51 37 22 2 0 0 0 0 0 0 0 0 0 0 0 0 0 0 0 0 0 0 0 0 0
787 870 828 813 839 802 716 746 630 570 614 681 570 491 487 348 157 96 90 43 20 1 0 0 0 0 0 0 0 0 0 0 0 0 0 0 0 0 0 0 0 0
945 887 879 849 947 914 853 863 829 711 637 568 523 429 451 411 210 142 139 71 50 9 0 0 0 0 0 0 0 0 0 0 0 0 0 0 0 0 0 0 0 0
1113 1024 983 1037 1041 1012 1051 1029 993 1000 884 779 542 455 441 247 265 208 133 121 64 36 7 0 0 0 0 0 0 0 0 0 0 0 0 0 0 0 0 0 0 0
1239 1315 1145 1015 1006 1010 943 1010 1037 1038 1025 913 677 593 362 422 360 226 179 138 85 51 18 2 0 0 0 0 0 0 0 0 0 0 0 0 0 0 0 0 0 0
2 703 1215 1304 1015 837 686 870 1104 998 994 961 840 658 612 577 510 385 229 192 103 63 25 0 0 0 0 0 0 0 0 0 0 0 0 0 0 0 0 0 0 0
71 130 250 471 776 901 859 896 985 1026 1022 943 731 720 658 714 529 421 300 198 46 32 1 0 0 0 0 0 0 0 0 0 0 0 0 0 0 0 0 0 0 0
3 20 73 196 401 460 671 817 765 846 917 848 643 747 759 722 592 401 355 226 104 18 0 0 0 0 0 0 0 0 0 0 0 0 0 0 0 0 0 0 0 0
0 21 65 83 152 260 475 519 594 690 880 810 616 345 210 510 460 356 302 44 72 57 46 0 0 0 0 0 0 0 0 0 0 0 0 0 0 0 0 0 0 0
0 0 0 11 87 111 213 407 548 536 508 571 503 256 223 392 551 446 362 101 61 17 29 12 1 0 129 118 48 0 0 0 0 0 0 0 0 0 0 0 0 0
0 0 0 0 24 110 217 291 358 512 480 427 400 408 295 266 369 383 168 168 118 36 0 0 0 0 0 48 40 28 19 2 0 0 0 0 0 0 0 0 0 0
0 0 0 0 4 53 177 264 293 362 451 415 336 364 252 327 284 289 281 294 264 106 0 0 0 0 43 34 19 18 17 6 0 0 0 0 0 0 0 0 0 0
0 0 0 0 4 17 86 240 325 440 416 341 217 284 295 217 225 255 315 262 208 106 0 0 8 68 41 22 11 5 0 0 0 0 0 0 0 0 0 0 0 0
0 0 0 0 0 28 86 127 229 405 422 275 164 253 338 317 113 195 275 230 0 0 0 53 69 48 34 2 10 0 0 0 0 1 3 0 0 0 0 0 0 0
0 0 0 0 0 0 24 119 208 265 269 165 131 145 110 81 40 214 175 0 0 0 36 48 39 20 14 4 0 0 0 0 0 0 0 0 0 0 0 0 0 0
0 0 0 0 0 0 12 64 177 189 148 72 100 52 12 88 111 23 0 0 108 94 60 46 37 12 0 0 0 0 6 3 0 0 0 0 0 0 0 0 0 0
0 0 0 0 0 3 30 81 95 97 54 72 39 3 0 114 150 169 0 24 14 36 40 16 3 0 0 0 0 2 3 1 0 0 0 0 0 0 0 0 0 0
8 9 9 15 6 10 24 24 56 0 0 1 0 0 84 156 185 8 4 22 26 0 2 0 1 1 2 3 2 1 0 0 0 0 0 0 0 0 0 0 0 0

ECMWFNIL_con_mucape_033.txt.gz
CAPE
278 209 144 32 5 10 44 3 13 23 4 1 4 1 0 0 15 0 3 0 0 0 0 0 0 0 0 0 0 0 0 0 0 0 0 0 0 0 0 0 0 0
490 328 221 52 10 4 51 12 4 42 7 0 1 2 4 2 37 4 26 11 0 0 0 0 0 0 0 0 0 0 0 0 0 0 0 0 0 0 0 0 0 0
580 510 438 237 57 26 154 84 33 16 15 0 1 1 4 10 66 10 57 42 1 0 0 0 0 0 0 0 0 0 0 0 0 0 0 0 0 0 0 0 0 0
776 705 568 441 250 137 178 266 89 32 6 2 0 0 7 49 120 9 82 37 8 9 0 0 0 0 0 0 0 0 0 0 0 0 0 0 0 0 0 0 0 0
1081 953 798 611 470 382 412 383 261 109 30 15 43 4 14 173 198 28 115 66 9 17 5 0 0 0 0 0 0 0 0 0 0 0 0 0 0 0 0 0 0 0
1106 1012 775 644 617 534 533 612 435 278 171 94 119 41 54 280 205 49 134 140 25 56 8 0 0 0 0 0 0 0 0 0 0 0 0 0 0 0 0 0 0 0
862 576 885 719 682 619 575 545 599 433 250 246 209 206 130 190 181 103 131 174 96 78 42 0 0 0 0 0 0 0 0 0 0 0 0 0 0 0 0 0 0 0
897 712 808 784 696 689 688 552 600 626 465 312 226 214 222 143 149 144 112 167 132 94 89 35 1 0 0 0 0 0 0 0 0 0 0 0 0 0 0 0 0 0
947 727 520 408 698 706 736 703 652 555 495 377 329 285 273 226 169 140 97 150 171 164 148 100 32 6 2 0 0 0 0 0 0 0 0 0 0 0 0 0 0 0
981 971 917 890 789 790 801 629 619 513 344 468 420 346 309 334 225 104 129 184 181 208 187 144 96 37 19 3 0 0 0 0 0 0 0 0 0 0 0 0 0 0
1311 1361 1276 1026 1070 967 1144 1094 1141 1167 881 804 652 570 516 423 430 327 232 231 308 246 222 201 155 84 42 18 0 0 0 0 0 0 0 0 0 0 0 0 0 0
1286 1344 1226 1124 1034 1163 1154 1088 1153 957 646 993 784 870 810 672 513 468 302 266 364 388 310 288 212 152 74 41 9 1 0 0 0 0 0 0 0 0 0 0 0 0
901 838 1041 1162 1221 1199 1277 1263 1229 1176 1022 1083 1007 886 886 878 752 665 623 513 508 496 472 405 322 194 112 68 43 21 5 0 0 0 0 0 0 0 0 0 0 0
6 255 979 1196 1166 1202 1252 1198 1095 1113 1179 1325 1174 1133 1063 857 856 819 604 596 397 514 552 494 404 282 204 101 75 42 3 6 0 0 0 0 0 0 0 0 0 0
0 8 11 41 406 920 860 866 973 1046 998 991 987 1134 1188 1076 746 772 441 393 405 210 196 393 397 231 233 156 153 36 0 1 5 0 0 0 0 0 0 0 0 0
0 0 0 3 35 167 322 651 784 935 1051 1047 1121 1001 1069 850 793 758 486 148 247 228 324 315 709 359 691 146 6 6 1 1 1 1 0 0 0 0 0 0 0 0
0 0 3 1 0 2 47 178 343 536 744 905 1137 1289 1296 1120 964 626 523 516 468 226 531 466 228 229 139 59 91 24 0 2 3 0 0 0 0 0 0 0 0 0
0 0 0 0 0 8 9 11 80 287 400 561 794 1011 1135 945 927 798 562 267 180 84 101 103 38 34 0 17 0 1 0 1 0 3 0 21 1 0 0 0 2 0
0 0 0 0 0 0 6 62 66 64 169 296 391 636 650 709 649 678 454 419 443 393 274 199 188 0 0 0 0 0 0 0 0 1 10 24 4 0 3 0 0 0
0 0 0 0 0 0 0 7 43 69 85 169 227 324 523 425 519 528 564 550 252 248 76 68 252 194 0 0 0 0 1 0 0 0 28 14 0 0 0 0 0 0
0 0 0 0 0 0 3 6 23 94 162 228 259 268 291 350 395 582 555 516 348 254 0 12 121 0 0 0 0 1 1 0 2 0 14 2 0 0 0 0 0 0
0 0 0 0 0 1 4 17 49 91 195 274 256 239 210 219 275 420 567 373 397 0 0 0 0 0 54 130 32 12 0 8 5 8 3 0 0 0 0 0 0 0
0 0 0 0 0 0 0 2 4 42 162 234 247 273 237 183 272 380 424 310 0 0 0 0 0 147 185 170 99 44 30 22 18 11 9 7 3 0 0 0 0 0
0 0 0 5 12 10 21 52 87 100 153 220 207 189 138 98 238 208 110 0 0 0 0 54 91 66 47 48 40 23 25 15 9 9 9 1 0 0 1 0 0 0
0 0 6 17 29 37 33 23 37 117 195 162 180 170 132 118 0 0 29 0 0 0 29 66 47 12 3 5 7 8 4 6 8 2 3 1 2 2 4 2 0 0
17 30 59 82 96 116 119 92 77 115 152 212 235 29 1 0 0 0 3 9 8 7 11 11 6 3 0 3 2 2 0 0 1 6 4 4 6 2 2 1 0 0

ECMWFNIL_con_mucape_036.txt.gz
CAPE
707 418 687 560 489 426 281 426 324 236 227 334 299 146 100 282 5 87 81 3 1 0 0 0 0 0 0 0 0 0 0 0 0 0 0 0 0 0 0 0 0 0
634 575 339 416 447 443 490 526 604 304 282 280 376 246 149 300 29 117 193 52 23 0 0 0 0 0 0 0 0 2 0 0 0 0 0 0 0 0 0 0 0 0
688 839 457 458 380 582 545 477 697 600 346 254 477 343 300 419 110 166 312 191 16 8 1 0 0 0 0 0 0 2 0 0 0 0 0 0 0 0 0 0 0 0
958 1009 851 737 531 832 858 404 552 766 602 295 436 441 398 336 235 177 345 327 157 111 2 0 0 0 0 0 0 0 0 0 0 0 0 0 0 0 0 0 0 0
1170 1118 1117 1033 818 875 831 669 565 522 544 472 324 399 353 352 432 198 335 276 238 126 68 21 0 0 0 0 0 0 0 0 0 0 0 0 0 0 0 0 0 0
1160 1062 958 967 944 885 933 871 824 606 634 618 590 379 398 517 438 258 249 319 181 190 174 29 0 0 0 3 0 0 0 0 0 0 0 0 0 0 0 0 0 0
1465 1317 1260 922 697 698 786 731 662 680 663 701 585 582 355 547 498 380 184 252 186 138 135 86 18 7 0 0 0 1 0 0 0 0 0 0 0 0 0 0 0 0
1366 1151 807 568 540 1019 835 722 835 721 687 594 546 704 513 442 433 477 319 255 229 135 143 128 65 4 5 0 0 0 0 0 0 0 0 0 0 0 0 0 0 0
1163 1012 970 834 980 1027 787 370 440 746 736 616 581 421 392 344 350 453 366 251 241 284 186 169 117 42 32 2 0 0 0 0 0 0 0 0 0 0 0 0 0 0
1004 1018 865 826 856 1149 504 513 871 1107 718 838 878 842 448 422 406 302 300 269 218 263 252 258 200 152 121 30 1 0 0 0 0 0 0 0 0 0 0 0 0 0
1032 1311 1418 1362 1045 1044 701 438 311 421 663 444 512 550 404 15 430 233 237 219 246 214 251 268 265 203 118 114 94 80 17 8 3 0 0 0 0 0 0 0 0 0
1380 1501 1081 851 758 634 786 1061 1008 1129 998 620 554 561 654 481 268 330 314 244 254 71 37 267 293 251 191 154 97 81 56 30 17 6 1 0 1 0 0 0 0 0
1425 1400 1279 1079 791 805 964 1154 1203 1195 1195 954 920 787 628 433 342 384 429 551 418 61 294 215 216 213 262 181 85 118 82 53 51 26 2 0 3 1 0 0 0 0
1315 1349 1281 955 754 740 839 1225 1350 999 810 645 514 634 699 600 601 807 556 434 317 335 203 95 484 430 273 230 156 156 129 118 78 31 0 0 0 0 0 0 0 0
35 608 1409 1320 1018 986 958 976 975 1038 867 746 703 763 975 821 553 542 470 481 379 400 371 358 288 351 380 35 68 65 188 131 44 6 0 0 0 0 0 0 0 0
5 112 83 147 369 528 890 1142 1008 1040 1077 952 982 1071 996 888 801 677 634 603 588 528 409 208 282 435 178 282 209 167 12 8 11 0 0 0 0 0 0 0 0 0
0 0 9 21 49 72 85 134 351 787 939 941 1072 1140 1157 1228 1056 846 719 696 689 596 400 252 861 659 461 345 310 85 68 67 0 0 0 0 0 0 0 0 0 1
0 0 0 6 18 35 52 55 72 101 175 443 672 905 1106 1149 1035 1109 982 931 826 689 567 465 306 304 277 333 317 270 175 28 0 0 0 0 0 0 0 0 2 3
0 0 0 0 0 1 19 69 50 77 88 134 287 638 746 869 1032 952 1036 859 684 555 504 451 350 384 403 399 373 296 109 113 38 0 0 0 0 0 0 1 3 3
0 0 0 0 0 1 4 1 0 8 80 149 138 226 632 736 793 815 690 812 684 731 482 399 418 432 406 388 381 362 235 131 0 11 28 44 26 0 2 5 9 7
0 0 0 0 0 0 1 0 1 27 66 89 172 275 288 546 642 540 560 496 510 238 311 368 367 343 333 364 325 340 244 64 26 72 69 54 26 12 7 12 14 10
0 0 0 0 0 0 0 4 17 119 164 200 186 237 253 250 364 402 469 448 179 186 288 326 310 238 217 226 117 0 52 145 100 57 48 37 24 12 11 13 10 2
0 0 0 0 0 0 0 0 15 32 47 59 108 217 255 291 209 343 196 208 223 252 270 311 283 234 173 105 0 0 63 13 0 2 10 19 18 18 18 11 3 0
0 0 0 0 14 26 51 108 118 100 102 116 136 162 202 232 205 5 0 30 28 43 237 287 293 243 123 10 118 136 87 56 0 1 0 2 9 8 3 0 0 0
2 3 7 21 25 53 118 122 94 87 58 98 177 166 86 0 0 0 0 0 0 0 0 0 136 200 181 154 142 152 158 6 0 0 0 2 3 1 0 1 4 4
20 21 69 60 61 95 158 138 136 130 183 194 217 20 0 0 0 0 0 0 0 0 0 0 64 118 89 82 61 45 48 20 19 7 4 1 0 1 7 13 3 1

ECMWFNIL_con_mucape_039.txt.gz
CAPE
0 0 0 0 0 0 0 0 0 0 0 0 0 0 0 0 0 0 0 0 0 0 0 0 0 0 0 0 0 0 0 0 0 0 0 0 0 0 0 0 0 0
0 23 18 0 9 3 4 0 0 0 0 0 0 0 0 0 0 0 0 0 0 0 0 0 0 0 0 0 0 0 0 0 0 0 0 0 0 0 0 0 0 0
8 8 20 6 15 5 12 40 1 0 12 1 0 0 0 0 0 0 0 0 0 0 0 0 0 0 0 0 0 0 0 0 0 0 0 0 0 0 0 0 0 0
13 0 0 3 24 5 0 316 44 0 11 20 3 0 2 0 0 0 0 151 0 0 0 0 0 0 0 0 0 0 0 0 0 0 0 0 0 0 0 0 0 0
116 12 44 0 92 34 0 17 160 31 10 2 62 20 21 0 0 6 1 24 0 0 0 0 0 0 0 0 0 0 0 0 0 0 0 0 0 0 0 0 0 0
480 216 164 17 116 150 1 0 81 91 52 4 27 25 20 0 0 1 26 12 1 0 0 0 0 0 0 0 0 0 0 0 0 0 0 0 0 0 0 0 0 0
633 600 506 333 403 328 53 47 67 81 104 8 19 16 38 96 7 0 26 33 6 4 0 0 0 0 0 0 0 0 0 0 0 0 0 0 0 0 0 0 0 0
631 567 477 438 381 397 347 350 248 344 400 361 110 13 38 194 207 24 11 24 10 0 0 0 0 0 0 0 0 0 0 0 0 0 0 0 0 0 0 0 0 0
547 538 574 455 365 37 77 72 298 480 391 421 407 373 73 180 276 236 30 4 10 0 0 0 0 0 0 0 0 0 0 0 0 0 0 0 0 0 0 0 0 0
230 601 154 446 15 163 133 47 44 137 26 111 151 64 50 262 282 306 307 274 243 31 1 1 0 0 0 0 0 0 0 0 0 0 0 0 0 0 0 0 0 0
580 484 521 644 569 531 495 234 111 160 196 191 133 152 191 188 88 54 144 225 292 271 240 235 4 0 125 188 98 76 0 0 0 0 0 0 0 0 0 0 0 0
555 698 895 814 665 569 542 549 451 453 605 529 424 322 201 197 209 129 157 135 68 118 187 78 186 192 140 227 214 204 174 146 78 16 0 0 0 0 0 0 0 0
543 590 724 645 567 569 503 582 708 718 721 664 589 433 330 176 76 113 120 12 8 289 288 108 86 95 61 208 184 137 145 118 41 10 54 0 0 0 0 0 0 0
936 1154 1081 874 746 703 650 686 794 797 864 872 801 735 612 551 494 493 438 385 346 352 333 302 204 157 22 179 272 92 20 18 96 118 112 30 26 75 43 0 0 0
1036 1252 1194 1091 902 776 734 789 1055 1054 982 974 985 955 843 662 525 550 546 495 422 374 418 476 454 358 176 53 23 239 1 0 0 95 127 118 108 85 123 109 0 0
728 996 1074 868 654 590 626 707 831 1054 978 813 750 757 718 699 777 804 759 686 619 542 481 470 475 455 375 314 129 95 216 0 0 0 12 66 106 0 0 0 0 0
0 0 188 698 536 477 510 564 699 822 818 717 721 830 860 876 932 937 948 904 752 607 601 640 653 622 612 615 493 309 203 50 11 0 0 59 94 86 88 87 18 48
0 0 0 0 0 0 1 1 158 429 744 808 893 968 968 900 949 997 974 907 909 916 876 835 829 778 662 578 502 418 340 300 170 48 8 2 43 36 76 74 72 21
0 0 0 0 0 0 0 0 0 0 0 0 4 168 608 880 1003 1041 966 956 939 917 913 854 733 693 685 610 463 389 378 329 208 14 13 12 2 0 48 64 68 61
0 0 0 0 0 0 0 0 0 0 0 0 0 0 9 220 667 996 1047 998 974 951 855 732 648 570 551 538 508 482 449 412 235 225 204 216 106 0 56 0 0 0
0 0 0 0 0 0 0 0 0 0 0 0 0 0 0 12 140 770 938 1002 1005 942 854 743 665 598 534 491 445 405 393 385 380 270 209 63 0 57 0 0 0 0
0 0 0 0 0 0 0 0 0 0 0 0 0 0 0 0 0 202 449 600 764 750 646 618 524 475 408 351 314 275 244 275 346 150 0 54 0 0 0 0 0 0
0 0 0 0 0 0 0 0 0 0 0 0 0 0 0 0 0 0 184 363 410 417 424 408 374 327 286 250 240 255 225 199 148 0 57 9 1 11 0 0 0 0
0 0 0 0 0 0 0 0 0 0 0 0 0 0 0 0 0 0 0 89 220 275 304 314 295 237 198 190 199 205 130 87 60 39 10 4 4 3 4 6 4 2
0 0 0 0 0 0 0 0 0 0 0 0 0 0 0 0 0 0 0 0 42 158 207 220 213 193 127 0 36 99 98 74 49 26 6 2 6 20 23 20 17 16
0 0 0 0 0 0 1 4 0 0 0 0 0 0 0 0 0 0 0 0 0 5 98 123 135 142 0 0 71 56 38 37 62 38 36 27 21 11 3 7 4 0

ECMWFNIL_con_mucape_042.txt.gz
CAPE
0 0 0 0 0 0 0 0 0 0 0 0 0 0 0 0 0 0 0 0 0 0 0 0 0 0 0 0 0 0 0 0 0 0 0 0 0 0 0 0 0 0
110 0 0 0 0 0 0 0 0 0 0 0 0 0 0 0 0 0 0 0 0 0 0 0 0 0 0 0 0 0 0 0 0 0 0 0 0 0 0 0 0 0
0 0 0 0 0 0 0 0 0 0 0 0 0 0 0 0 0 0 0 0 0 0 0 0 0 0 0 0 0 0 0 0 0 0 0 0 0 0 0 0 0 0
0 74 38 0 0 0 0 0 0 0 0 0 0 0 0 0 0 0 0 0 0 0 0 0 0 0 0 0 0 0 0 0 0 0 0 0 0 0 0 0 0 0
119 196 67 0 0 3 7 8 0 0 0 0 0 0 0 0 0 0 0 0 0 0 0 0 0 0 0 0 0 0 0 0 0 0 0 0 0 0 0 0 0 0
0 35 28 14 6 0 1 11 8 2 119 130 0 0 0 0 0 0 0 0 0 0 0 0 0 0 0 0 0 0 0 0 0 0 0 0 0 0 0 0 0 0
151 19 2 88 223 0 0 5 103 17 16 105 5 0 1 1 0 0 0 0 0 0 0 0 0 0 0 0 0 0 0 0 0 0 0 0 0 0 0 0 0 0
37 44 25 212 210 4 6 9 3 3 8 11 4 7 27 36 23 10 0 0 0 0 0 0 0 0 0 0 0 0 0 0 0 0 0 0 0 0 0 0 0 0
307 58 155 324 387 148 13 8 0 0 4 0 6 26 28 13 5 11 19 11 0 0 0 0 0 0 0 0 0 0 0 0 0 0 0 0 0 0 0 0 0 0
377 388 456 409 407 470 443 3 1 1 110 22 191 0 9 0 0 1 7 7 13 113 140 160 162 30 7 8 0 0 0 0 0 0 0 0 0 0 0 0 0 0
494 528 559 563 500 394 276 16 16 27 48 330 236 102 0 0 0 0 0 0 145 194 213 219 210 196 178 176 165 74 0 0 0 0 0 0 0 0 0 0 0 0
518 464 420 437 479 440 381 78 29 24 184 35 180 1 0 0 8 15 283 301 299 319 330 321 302 268 236 220 217 237 234 221 202 133 0 0 0 0 0 0 0 0
498 580 590 546 509 558 547 461 501 410 308 8 6 11 0 27 4 4 14 13 15 80 189 284 299 298 295 280 262 257 247 247 237 174 103 0 0 0 0 0 0 0
694 725 647 682 666 585 492 500 465 343 608 602 547 202 47 54 17 80 20 28 18 6 1 0 0 0 0 192 187 276 265 254 236 218 175 137 37 0 0 0 0 0
615 604 653 697 730 742 673 612 635 656 724 752 790 768 708 668 612 566 555 558 536 478 398 292 177 0 0 0 0 0 0 0 182 214 202 184 136 0 0 0 0 0
652 713 886 1054 1045 924 824 795 761 783 866 928 964 976 978 993 972 907 840 749 759 722 662 596 546 467 469 500 497 459 378 300 282 252 228 203 177 67 0 108 67 82
584 910 1007 1023 920 754 656 619 701 754 848 989 1050 977 851 695 697 760 805 847 864 905 908 840 741 663 616 624 652 636 572 476 406 297 241 219 210 220 200 136 134 132
0 0 0 266 361 336 278 250 423 618 721 783 766 702 667 681 785 867 894 908 917 977 954 935 968 930 888 880 830 770 680 610 561 486 405 307 247 238 159 77 132 108
0 0 0 0 0 0 0 0 0 0 4 6 34 39 87 230 392 571 784 872 981 1039 1025 990 976 899 816 686 635 652 638 616 599 528 424 236 0 148 87 14 33 85
0 0 0 0 0 0 0 0 0 0 0 0 0 0 1 90 179 324 488 703 955 1128 1081 996 935 798 703 614 522 461 445 431 448 454 466 435 299 0 0 16 63 38
0 0 0 0 0 0 0 0 0 0 0 0 0 0 0 0 7 194 386 668 884 1114 1107 1065 933 732 658 563 504 454 387 336 318 356 360 342 326 249 0 82 6 12
0 0 0 0 0 0 0 0 0 0 0 0 0 0 0 0 0 0 294 485 698 979 1099 1079 906 689 562 498 385 254 135 0 44 182 203 192 134 0 0 0 0 5
0 0 0 0 0 0 0 0 0 0 0 0 0 0 0 0 0 0 0 241 375 597 821 894 682 494 399 352 270 162 12 3 98 64 80 68 36 0 9 3 2 5
0 0 0 0 0 0 0 0 0 0 0 0 0 0 0 0 0 0 0 28 242 356 477 527 448 388 342 277 201 145 0 0 0 41 26 29 29 17 11 4 3 6
0 0 0 0 0 0 0 0 0 0 0 0 0 0 0 0 0 0 0 0 89 194 236 264 265 241 224 181 158 115 0 0 0 2 2 4 9 8 7 4 6 6
0 0 0 0 0 0 0 0 0 0 0 0 0 0 0 0 0 0 0 0 0 10 106 122 142 146 143 139 125 0 0 1 2 0 0 0 5 9 10 7 8 10

ECMWFNIL_con_mucape_045.txt.gz
CAPE
0 0 0 0 0 0 0 0 0 0 0 0 0 0 0 0 0 0 0 0 0 0 0 0 0 0 0 0 0 0 0 0 0 0 0 0 0 0 0 0 0 0
0 0 0 0 0 0 0 0 0 0 0 0 0 0 0 0 0 0 0 0 0 0 0 0 0 0 0 0 0 0 0 0 0 0 0 0 0 0 0 0 0 0
0 0 0 0 0 0 0 0 0 0 0 0 0 0 0 0 0 0 0 0 0 0 0 0 0 0 0 0 0 0 0 0 0 0 0 0 0 0 0 0 0 0
0 0 0 0 0 0 0 0 0 0 0 0 0 0 0 0 0 0 0 0 0 0 0 0 0 0 0 0 0 0 0 0 0 0 0 0 0 0 0 0 0 0
0 0 0 0 0 0 0 0 0 0 0 0 0 0 0 0 0 0 0 0 0 0 0 0 0 0 0 0 0 0 0 0 0 0 0 0 0 0 0 0 0 0
34 0 0 0 0 0 0 0 0 0 0 0 0 0 0 0 0 0 0 0 0 0 0 0 0 0 0 0 0 0 0 0 0 0 0 0 0 0 0 0 0 0
115 8 0 88 0 0 0 0 3 0 0 0 0 0 0 0 0 0 0 0 0 0 0 0 0 0 0 0 0 0 0 0 0 0 0 0 0 0 0 0 0 0
164 18 0 0 0 0 0 0 0 0 1 0 0 0 0 0 0 0 0 0 0 0 0 0 0 0 0 0 0 0 0 0 0 0 0 0 0 0 0 0 0 0
174 10 0 96 0 0 0 0 1 0 0 0 1 0 0 0 0 0 0 0 0 0 0 0 0 0 0 0 0 0 0 0 0 0 0 0 0 0 0 0 0 0
221 107 22 29 27 0 0 0 0 0 0 0 0 0 0 0 0 2 2 0 0 0 0 0 0 1 1 0 0 0 0 0 0 0 0 0 0 0 0 0 0 0
176 38 3 15 22 0 0 0 0 0 0 3 25 7 0 0 0 0 0 4 14 1 0 0 0 0 0 1 0 0 0 0 0 0 0 0 0 0 0 0 0 0
183 100 321 271 17 137 324 305 271 205 0 3 2 0 14 15 3 0 89 2 1 0 4 0 19 32 228 257 236 213 190 33 89 131 0 0 0 0 0 0 0 0
609 216 395 364 339 371 296 80 219 377 10 0 0 1 9 10 22 35 25 39 27 4 22 23 8 226 322 360 359 318 276 251 243 194 223 0 0 0 0 0 0 0
471 381 362 479 516 477 420 239 266 140 126 320 93 66 6 16 26 35 38 51 37 34 17 34 29 204 269 366 372 365 343 312 296 302 296 272 246 214 192 153 108 26
334 316 82 336 275 41 12 22 231 286 0 0 58 0 0 0 25 5 91 106 11 16 31 53 250 258 18 13 0 41 45 42 0 45 265 259 267 244 210 172 147 103
297 256 147 379 376 362 170 319 154 211 128 154 162 142 124 279 290 269 252 213 101 366 512 582 636 650 607 533 488 450 398 284 100 245 253 238 248 238 243 208 164 136
554 467 584 635 849 775 615 592 579 474 540 622 673 698 698 712 607 394 371 498 554 630 655 811 934 927 867 762 636 559 508 496 515 539 475 435 429 366 332 266 224 178
0 0 0 81 177 12 0 0 0 145 333 383 438 416 286 364 374 404 532 628 695 775 825 857 946 886 887 848 733 665 598 508 414 500 588 581 528 513 458 388 331 279
0 0 0 0 0 0 0 0 0 0 0 0 0 0 0 0 0 96 169 265 380 534 704 870 969 944 878 748 640 591 502 436 430 358 411 449 428 444 419 379 309 292
0 0 0 0 0 0 0 0 0 0 0 0 0 0 0 0 0 0 72 179 304 457 641 879 1009 967 849 679 548 434 386 337 364 387 363 368 395 423 369 238 128 62
0 0 0 0 0 0 0 0 0 0 0 0 0 0 0 0 0 0 0 199 269 339 486 732 926 970 838 570 388 346 326 277 236 233 237 259 261 257 248 205 160 0
0 0 0 0 0 0 0 0 0 0 0 0 0 0 0 0 0 0 128 179 183 206 267 404 619 775 805 624 387 235 131 0 0 0 0 0 0 0 0 0 0 0
0 0 0 0 0 0 0 0 0 0 0 0 0 0 0 0 0 0 0 0 46 142 181 260 388 413 420 351 260 174 110 0 0 0 0 0 0 0 0 0 0 0
0 0 0 0 0 0 0 0 0 0 0 0 0 0 0 0 0 0 0 0 0 0 143 177 257 256 254 230 197 147 0 0 0 0 0 0 0 0 0 1 3 1
0 0 0 0 0 0 0 0 0 0 0 0 0 0 0 0 0 0 0 0 0 0 0 81 102 92 88 77 0 0 0 0 0 0 0 0 0 0 0 2 3 4
0 0 0 0 0 0 0 0 0 0 0 0 0 0 0 0 0 0 0 0 0 0 0 0 0 0 0 0 0 0 0 0 0 0 0 0 0 0 0 0 2 6

ECMWFNIL_con_mucape_048.txt.gz
CAPE
362 288 0 0 0 0 0 0 0 0 0 0 0 0 0 0 0 0 0 0 0 0 0 0 0 0 0 0 0 0 0 0 0 0 0 0 0 0 0 0 0 0
542 315 0 0 0 0 0 0 0 0 0 0 0 0 0 0 0 0 0 0 0 0 0 0 0 0 0 0 0 0 0 0 0 0 0 0 0 0 0 0 0 0
457 231 43 0 0 0 0 0 0 0 0 0 0 0 0 0 0 0 0 0 0 0 0 0 0 0 0 0 0 0 0 0 0 0 0 0 0 0 0 0 0 0
353 322 275 0 0 0 0 0 0 0 0 0 0 0 0 0 0 0 0 0 0 0 0 0 0 0 0 0 0 0 0 0 0 0 0 0 0 0 0 0 0 0
417 384 123 0 0 0 0 0 0 0 0 0 0 0 0 0 0 0 0 0 0 0 0 0 0 0 0 0 0 0 0 0 0 0 0 0 0 0 0 0 0 0
441 385 0 0 0 0 0 0 0 0 0 0 0 0 0 0 0 0 0 0 0 0 0 0 0 0 0 0 0 0 0 0 0 0 0 0 0 0 0 0 0 0
501 49 0 0 0 0 0 0 0 0 0 0 0 0 0 0 0 0 0 0 0 0 0 0 0 0 0 0 0 0 0 0 0 0 0 0 0 0 0 0 0 0
352 0 0 0 0 0 0 0 0 0 0 0 2 0 0 0 0 0 0 0 0 0 0 0 0 0 0 0 0 0 0 0 0 0 0 0 0 0 0 0 0 0
201 11 18 26 12 3 0 0 0 0 0 2 2 1 1 0 0 0 0 0 0 0 0 0 0 0 0 0 0 0 0 0 0 0 0 0 0 0 0 0 0 0
169 64 118 97 88 20 0 0 0 0 0 0 1 0 0 0 0 0 0 0 0 0 0 0 0 0 0 0 0 0 0 66 36 36 16 0 0 0 0 0 0 0
291 136 124 88 105 36 0 0 0 0 0 0 6 22 6 2 0 0 0 0 0 0 0 1 5 0 0 0 0 0 0 0 0 0 30 49 0 0 0 31 18 3
489 320 146 139 127 43 26 0 0 153 208 168 156 177 152 109 0 0 0 0 0 2 2 0 1 6 7 3 0 0 0 0 0 0 28 18 17 113 18 64 61 39
563 385 276 31 107 71 13 2 0 0 120 268 266 193 0 0 0 0 1 9 24 22 12 0 0 5 6 13 5 0 0 0 0 0 0 2 165 166 59 0 0 0
370 368 300 66 60 72 0 0 0 303 304 284 0 0 0 0 2 9 154 10 19 33 47 40 22 15 8 1 0 7 2 2 0 0 4 20 4 121 68 60 58 116
640 593 512 411 60 2 9 44 238 264 234 276 284 281 308 308 7 48 4 0 5 7 2 2 0 0 0 1 4 14 5 8 6 0 30 2 8 2 0 35 174 139
537 585 604 498 46 384 169 265 127 104 0 108 81 5 7 3 153 374 337 292 280 261 111 0 0 120 256 288 367 370 322 296 307 355 340 281 248 11 4 86 179 186
326 364 382 324 287 382 359 303 354 331 326 327 340 378 412 526 595 586 554 507 399 298 315 404 518 572 417 532 688 693 664 627 530 482 437 396 357 331 308 264 233 227
465 410 410 469 552 664 578 450 396 361 396 430 510 558 558 529 524 543 443 357 326 367 422 464 573 729 766 727 695 632 540 530 545 440 300 272 278 388 447 416 391 363
0 169 238 243 87 31 56 0 109 189 225 184 76 127 0 0 0 0 160 164 187 235 321 483 667 777 812 751 669 553 417 323 291 271 261 241 251 283 321 342 340 324
0 0 0 0 0 0 0 0 0 0 0 0 0 0 0 0 0 0 0 0 132 169 223 350 536 771 838 778 645 426 322 269 227 223 255 274 278 264 294 327 330 283
0 0 0 0 0 0 0 0 0 0 0 0 0 0 0 0 0 0 0 0 0 67 29 126 222 445 658 722 578 337 266 259 205 37 137 138 134 170 198 227 224 208
0 0 0 0 0 0 0 0 0 0 0 0 0 0 0 0 0 0 0 0 0 0 0 0 0 204 331 406 358 236 42 36 0 0 0 0 0 0 0 0 0 0
0 0 0 0 0 0 0 0 0 0 0 0 0 0 0 0 0 0 0 0 0 0 0 0 0 0 102 100 69 0 0 0 0 0 0 0 0 0 0 0 0 0
0 0 0 0 0 0 0 0 0 0 0 0 0 0 0 0 0 0 0 0 0 0 0 0 0 0 0 0 0 0 0 0 0 0 0 0 0 0 0 0 0 0
0 0 0 0 1 0 0 0 0 0 0 0 0 0 0 0 0 0 0 0 0 0 0 0 0 0 0 0 0 0 0 0 0 0 0 0 0 0 0 0 0 0
0 0 0 0 0 0 0 0 0 0 0 0 0 0 0 0 0 0 0 0 0 0 0 0 0 0 0 0 0 0 0 0 0 0 0 0 0 0 0 0 0 0

ECMWFNIL_con_mucape_051.txt.gz
CAPE
392 503 520 457 396 287 90 28 9 24 21 25 11 0 7 2 0 17 41 41 34 1 0 0 0 0 0 0 0 0 0 0 0 0 0 0 0 0 0 0 0 0
210 339 362 269 81 6 72 103 20 26 20 44 32 5 0 0 2 19 66 51 20 11 4 0 0 0 0 0 0 0 0 0 0 0 0 0 0 0 0 0 0 0
431 494 522 374 117 3 0 1 20 63 39 23 20 17 5 25 7 14 52 50 21 26 24 12 0 0 0 0 0 0 0 0 0 0 0 0 0 0 0 0 0 0
638 645 575 387 270 89 0 0 5 20 47 11 13 33 34 24 38 7 16 6 36 32 36 18 1 0 0 0 0 0 0 0 0 0 0 0 0 0 0 0 0 0
595 571 497 349 297 66 8 20 11 21 36 119 96 35 24 42 54 24 31 4 16 11 21 12 0 0 0 0 0 0 0 0 0 0 0 0 0 0 0 0 0 0
465 423 388 318 287 38 17 43 26 38 92 94 148 47 82 73 81 32 10 2 0 0 2 1 0 0 0 0 0 2 0 0 0 0 0 0 0 0 0 0 0 0
408 390 360 358 243 78 113 92 68 38 77 167 36 72 24 23 35 38 11 0 0 0 0 4 2 1 0 0 0 2 13 18 0 0 0 0 0 0 0 0 0 0
509 387 416 424 164 97 72 44 87 58 68 5 68 68 36 26 2 160 116 44 15 0 0 0 0 0 0 0 0 0 0 1 44 0 0 0 0 0 0 0 0 0
474 430 481 484 299 275 236 188 279 216 46 121 173 111 65 90 156 222 177 172 149 133 79 67 32 8 8 3 2 0 0 0 0 2 0 0 0 0 0 0 0 0
534 446 448 447 482 492 613 495 398 423 240 235 178 277 247 307 309 273 272 324 324 260 247 262 205 198 125 58 22 5 1 0 0 0 0 0 0 0 0 0 0 0
721 490 489 551 673 672 682 546 590 680 526 357 443 435 523 660 459 259 226 181 390 329 362 368 326 259 195 150 124 68 27 25 9 0 4 0 0 2 0 0 0 0
755 521 510 534 567 637 734 769 762 638 572 686 626 645 697 706 816 647 484 488 539 549 551 506 416 306 230 267 241 211 148 92 70 34 1 0 0 0 0 0 0 0
803 637 461 459 534 638 672 685 670 723 590 549 545 645 709 767 706 660 786 747 723 720 627 555 466 438 518 484 348 285 274 216 198 127 31 0 0 0 0 0 0 0
909 868 632 454 529 567 663 766 785 788 776 740 650 751 799 745 731 809 857 713 823 718 613 428 414 410 454 448 462 494 420 298 171 130 133 51 10 0 0 0 44 0
837 823 733 551 445 160 329 707 918 901 719 679 695 768 854 701 695 674 639 633 563 623 488 403 420 605 595 470 567 432 352 308 162 91 175 185 64 35 0 0 0 0
585 594 640 631 491 578 615 660 330 832 819 670 606 612 612 646 544 487 450 598 593 533 472 405 420 367 192 0 0 161 337 339 381 356 272 283 295 343 334 275 212 0
768 728 649 605 796 675 726 189 100 438 654 625 560 495 499 444 422 398 461 499 428 424 390 336 297 455 494 526 624 630 577 480 525 546 474 469 450 424 434 421 346 86
633 650 682 670 637 467 440 439 399 107 108 80 238 126 134 224 512 443 323 248 268 334 409 322 369 479 647 700 573 512 436 344 322 359 340 312 366 266 204 195 278 365
424 710 621 488 331 64 145 350 58 33 366 108 254 465 359 138 77 22 40 57 261 403 157 384 600 718 763 675 547 472 383 328 222 200 211 283 260 248 213 227 251 275
486 485 472 304 177 53 97 71 48 96 166 184 140 66 122 37 13 25 0 0 1 15 13 44 308 625 700 664 567 383 296 263 209 199 166 129 7 0 6 12 77 219
0 0 0 0 0 16 68 94 90 47 16 4 39 88 103 48 67 47 0 0 0 0 67 14 0 244 362 439 444 345 230 238 200 94 0 0 0 0 0 0 0 0
0 0 0 0 0 9 23 15 24 26 18 2 2 0 0 0 0 0 0 0 0 28 169 59 0 0 93 169 192 55 0 4 0 0 0 0 0 0 0 0 0 0
0 0 0 0 0 9 13 28 30 20 5 1 30 18 39 26 1 0 0 7 4 21 193 56 0 0 0 0 0 0 0 1 0 0 0 0 0 0 0 0 0 0
0 0 0 2 42 51 69 26 9 9 5 0 164 127 58 0 0 0 0 0 0 0 0 1 0 0 0 0 0 0 0 0 0 0 0 0 0 0 0 0 0 0
0 0 0 0 0 1 44 108 171 112 0 0 3 28 2 0 0 0 0 0 0 0 0 0 0 0 0 0 0 0 0 0 0 0 0 0 0 0 0 0 0 0
0 0 0 0 0 0 0 32 0 0 0 0 0 0 0 0 0 0 0 0 0 0 0 0 0 0 0 0 0 0 0 0 0 0 0 0 0 0 0 0 0 0

ECMWFNIL_con_mucape_054.txt.gz
CAPE
1254 1254 1158 945 584 372 280 107 11 0 0 0 0 0 0 0 0 0 0 0 0 0 0 0 0 0 0 0 0 0 0 0 0 0 0 0 0 0 0 0 0 0
1314 1280 1008 974 664 390 345 294 30 0 1 1 0 4 0 0 10 0 0 0 0 0 0 0 0 0 0 0 0 0 0 0 0 0 0 0 0 0 0 0 0 0
1687 1642 1341 1128 836 730 576 305 90 1 8 23 39 19 6 26 46 43 0 1 1 15 12 0 0 0 0 0 0 0 0 0 0 0 0 0 0 0 0 0 0 0
1340 1434 1266 1134 999 924 737 358 159 21 73 65 53 58 92 81 91 103 40 6 7 22 27 10 1 0 0 0 0 0 0 0 0 0 0 0 0 0 0 0 0 0
1350 1395 1337 1190 954 764 604 404 213 72 38 25 86 85 26 52 44 22 10 31 13 16 35 32 12 6 4 0 0 0 0 0 0 0 0 0 0 0 0 0 0 0
1398 1246 1214 1212 1085 867 582 375 185 59 17 55 114 45 57 61 18 1 0 20 6 4 23 23 37 36 41 54 48 22 6 0 0 0 0 0 0 0 0 0 0 0
1155 1125 1151 1078 998 866 598 418 206 67 75 66 40 64 90 61 48 8 0 22 24 11 20 75 51 61 71 77 107 109 94 13 0 0 0 0 0 0 0 0 0 0
1242 1320 1201 1093 1064 950 771 584 338 238 156 60 97 123 91 42 26 46 27 48 56 99 134 133 156 130 143 166 111 147 115 117 121 40 19 2 0 0 0 0 0 0
1096 1082 1002 1058 1058 959 947 691 442 418 434 263 91 194 67 38 25 85 114 123 215 238 220 245 236 264 300 291 275 275 266 258 228 173 157 147 81 38 3 0 0 0
961 1050 1157 1144 1148 972 995 780 520 479 311 200 170 178 106 138 146 128 217 339 337 329 372 395 385 470 448 439 437 426 434 457 396 374 319 256 176 121 24 9 1 0
1047 1029 1063 1153 1187 1036 1107 992 934 827 483 304 314 305 219 329 391 395 474 460 580 498 490 588 602 620 594 579 654 620 523 518 476 458 495 431 359 235 70 105 66 50
1281 1215 1187 1242 1211 1178 1238 1079 1002 836 731 553 565 438 530 578 551 613 551 530 516 377 532 672 618 590 546 581 606 711 650 653 648 651 626 561 556 483 364 308 262 195
1287 1226 1130 1153 1225 1255 1356 1085 1068 1075 1010 937 778 650 790 759 737 850 792 612 566 640 736 768 765 640 720 784 790 794 794 814 882 762 725 739 693 619 558 490 428 380
1107 1003 1101 1262 1242 1280 1381 1261 1196 1227 956 935 802 824 847 740 876 976 1067 810 1050 1017 1027 954 951 908 973 1041 930 1077 1046 1010 1034 994 920 852 777 595 579 562 520 458
1167 1049 973 1047 1140 1137 1178 1255 1178 1070 1097 926 897 996 1045 1031 1075 1131 1152 923 1052 1176 1056 1028 955 1103 1356 1207 1291 1067 1056 1169 1074 1062 1044 1076 1110 1056 944 774 680 653
1020 1061 1054 1018 927 1085 1156 1251 1218 1330 1204 1072 1100 1096 1007 1072 1093 1135 1016 1060 1108 1156 1332 1354 1305 1303 504 0 11 737 1285 1092 1176 1203 1190 1245 1214 1227 1136 1024 933 887
866 917 953 902 650 821 986 1042 968 857 778 696 737 732 839 1213 1351 1161 1094 1124 1226 1450 1355 1184 927 462 359 331 396 465 755 1283 1408 1410 1270 1177 1137 1168 1126 1126 1046 855
942 900 933 1003 1049 1015 999 959 776 410 359 411 567 596 704 794 1015 1082 1354 1370 1291 1261 1327 1208 721 420 503 648 519 482 425 768 834 707 658 558 515 414 356 419 446 562
928 1007 916 725 767 676 737 764 196 748 533 689 684 760 942 968 1222 1241 1121 1368 1503 1371 1161 936 445 540 592 633 525 310 379 667 539 537 441 442 434 335 351 331 428 280
822 989 1110 875 748 675 626 655 794 842 1000 953 874 827 822 908 793 968 763 646 497 442 570 703 688 705 757 621 472 400 279 534 660 573 389 351 279 366 370 378 402 369
347 382 421 357 426 602 694 677 634 819 771 774 732 501 404 189 267 218 271 156 127 77 144 532 281 579 666 637 490 319 286 329 566 437 299 250 171 108 86 147 188 279
93 59 73 147 193 220 277 321 451 240 194 141 82 49 68 169 146 70 117 164 230 85 36 44 22 131 276 332 448 293 217 625 246 165 128 73 22 8 6 13 24 48
0 1 19 46 42 28 34 118 170 169 106 40 31 12 11 6 39 74 27 11 34 38 26 26 38 0 0 0 0 0 0 162 122 60 66 41 13 1 0 0 0 0
0 0 0 0 6 1 36 55 22 19 27 14 7 8 6 12 11 7 12 16 9 4 80 40 50 0 0 0 0 0 0 192 72 44 40 6 0 0 0 0 0 0
0 0 0 0 0 17 49 38 30 18 20 22 10 6 7 3 0 0 6 4 21 80 1 394 65 0 0 0 0 0 4 148 30 56 19 3 0 0 0 0 0 0
0 0 0 0 0 63 75 28 32 20 46 28 22 0 5 0 0 0 6 0 16 36 65 181 140 34 0 0 0 0 0 14 30 12 2 2 0 0 0 0 0 0

ECMWFNIL_con_mucape_057.txt.gz
CAPE
675 643 582 310 276 239 160 36 5 8 1 0 0 0 0 0 0 0 0 0 0 0 0 0 0 0 0 0 0 0 0 0 0 0 0 0 0 0 0 0 0 0
764 794 610 407 266 246 136 36 24 10 6 5 0 0 2 0 0 0 0 0 0 0 0 0 0 0 0 0 0 0 0 0 0 0 0 0 0 0 0 0 0 0
1004 602 705 444 252 317 180 67 71 40 21 17 9 0 13 11 0 0 0 0 0 0 0 0 0 0 0 0 0 0 0 0 0 0 0 0 0 0 0 0 0 0
1282 1006 599 541 410 373 211 75 105 109 121 56 11 2 17 37 24 13 2 0 1 1 0 0 0 0 0 0 0 0 0 0 0 0 0 0 0 0 0 0 0 0
1351 1324 777 382 525 424 222 100 75 173 144 95 52 9 5 40 34 19 12 4 5 3 9 0 0 0 0 0 0 0 0 0 0 0 0 0 0 0 0 0 0 0
1346 1249 1040 876 644 437 224 117 76 162 119 148 47 12 20 21 15 17 19 11 2 0 0 6 2 25 21 6 13 8 2 0 0 0 0 0 0 0 0 0 0 0
1507 1412 1328 905 505 436 196 155 118 109 139 175 34 17 34 20 9 11 10 17 12 6 19 58 78 121 123 188 146 144 63 39 39 20 4 0 0 0 0 0 0 0
1752 1538 1442 1127 1213 363 202 102 48 27 114 66 54 24 38 10 4 7 15 22 10 10 31 45 96 182 202 216 232 266 208 164 160 118 100 59 22 0 0 0 0 0
1509 1449 1244 1411 1289 761 340 92 70 33 23 30 64 38 21 14 7 18 21 36 39 46 60 87 90 158 310 294 323 320 276 335 324 260 222 216 204 78 14 4 9 5
1451 1424 1202 1258 1332 1096 265 130 78 147 54 43 22 45 21 15 25 24 41 67 74 74 78 139 304 411 437 489 471 546 530 499 464 415 473 388 321 277 194 77 86 65
1389 1454 1399 1546 1569 1248 949 297 124 216 166 23 14 16 1 5 35 42 80 99 197 120 298 289 397 444 477 508 577 645 684 576 560 533 564 546 523 441 228 268 178 137
1307 1315 1427 1432 1361 1180 999 520 139 129 131 119 124 37 32 21 79 74 115 124 237 236 408 387 355 400 445 469 556 686 729 762 654 600 568 543 528 631 516 468 369 332
1204 1244 1119 1222 1152 1232 1072 690 213 95 55 19 59 8 79 153 212 186 227 263 352 294 255 404 387 443 493 472 493 586 616 638 834 699 720 786 734 683 690 663 636 621
857 784 1070 1247 1262 1056 1078 500 593 292 85 6 56 107 176 216 264 205 483 738 625 239 265 436 416 511 543 629 634 683 626 823 930 1034 1022 777 947 786 747 678 744 734
635 712 641 842 896 1114 1087 668 758 570 375 144 194 171 216 311 566 668 692 524 442 373 470 628 793 818 642 572 1276 806 755 860 987 606 653 622 604 691 662 625 779 854
793 581 846 1179 1161 913 1118 1177 1130 1179 1144 807 455 315 730 1070 671 487 519 610 373 809 1043 1290 1069 642 640 766 716 758 666 243 206 789 633 509 811 539 842 662 882 908
1090 904 924 855 856 1001 804 446 627 604 715 976 881 780 871 849 592 315 35 355 420 659 796 1120 1154 947 639 394 0 0 468 703 533 267 447 583 803 692 966 609 402 631
783 782 735 661 532 603 701 577 735 616 649 842 1130 1085 1034 938 1083 782 558 640 620 644 496 702 736 375 0 44 396 181 135 912 847 564 545 390 474 502 318 222 395 678
735 884 718 530 555 501 490 523 614 676 560 594 560 793 872 964 1206 1099 856 807 806 718 536 630 581 277 402 502 373 139 164 433 705 178 182 171 262 168 128 68 104 112
1007 985 886 713 475 417 320 328 331 395 160 38 626 864 931 908 1159 1264 761 10 339 571 406 473 490 386 578 428 305 0 0 26 663 77 96 69 88 91 84 165 165 108
964 902 461 783 674 508 304 290 465 587 412 657 683 807 743 644 543 307 419 383 256 300 466 479 651 666 579 507 232 55 0 5 435 190 90 128 62 18 28 89 128 156
380 367 446 424 298 243 298 202 366 502 509 414 454 416 278 210 101 44 1 0 0 1 73 113 112 342 532 582 458 248 206 99 212 50 46 58 15 25 58 109 90 95
72 112 102 132 154 168 134 177 202 179 135 116 78 86 84 49 0 0 0 0 0 0 0 51 13 0 0 0 179 14 0 498 8 33 45 17 15 3 0 0 0 3
18 22 36 39 42 64 109 143 117 82 87 9 10 2 6 5 2 1 0 0 0 0 0 0 74 0 0 0 0 0 0 384 83 76 89 40 2 0 0 0 0 0
0 0 6 2 51 27 37 41 23 11 7 6 8 6 8 0 0 0 0 0 0 3 0 7 42 0 0 0 0 0 0 266 148 87 92 50 3 0 0 0 0 0
22 4 0 0 0 12 6 8 3 8 6 0 2 2 0 0 0 0 0 0 0 0 0 40 67 6 0 0 0 0 0 11 188 39 31 3 1 2 2 0 0 0

ECMWFNIL_con_mucape_060.txt.gz
CAPE
836 910 562 543 465 447 399 336 109 87 51 61 0 1 31 0 0 0 0 0 0 0 0 0 0 0 0 0 0 0 0 0 0 0 0 0 0 0 0 0 0 0
828 780 307 546 508 356 551 188 148 157 148 11 29 61 0 0 1 0 0 0 0 0 0 0 0 0 0 0 0 0 0 0 0 0 0 0 0 0 0 0 0 0
979 742 561 670 532 589 329 314 321 216 99 80 117 47 6 10 1 0 2 2 0 0 2 0 0 0 0 0 0 0 0 0 0 0 0 0 0 0 0 0 0 0
955 924 968 734 653 540 280 322 383 231 261 55 30 42 12 2 36 78 7 13 2 0 0 0 22 2 0 0 0 0 0 0 0 0 0 0 0 0 0 0 0 0
1375 969 1131 642 616 422 279 316 239 295 130 61 43 36 12 46 48 18 40 26 23 19 17 14 4 0 0 0 0 0 0 0 2 0 0 0 0 0 0 0 0 0
840 504 878 660 414 373 288 277 287 300 215 86 42 15 85 79 29 20 29 31 32 23 27 17 10 3 8 2 18 7 17 0 0 0 0 0 0 6 0 0 0 0
759 541 308 658 431 450 232 233 300 241 246 174 28 36 64 56 26 26 21 18 15 13 20 43 48 118 70 172 54 98 84 10 10 3 0 0 0 0 0 0 0 0
986 719 463 348 575 424 279 271 414 314 362 82 46 70 32 31 24 43 42 26 15 18 37 37 93 122 212 194 198 320 171 61 70 44 41 12 4 0 0 0 3 3
400 300 480 471 840 345 336 150 394 381 296 150 61 71 45 35 20 54 46 41 42 34 32 56 61 154 193 353 412 326 148 185 215 299 117 62 69 10 0 1 19 4
407 461 478 590 1133 812 302 232 273 332 229 191 62 42 44 48 43 33 42 57 40 46 55 70 92 257 250 279 286 286 287 276 262 350 230 183 189 163 23 0 56 92
563 425 625 553 812 1164 621 296 261 187 118 90 142 47 31 65 49 42 45 68 191 55 76 62 209 222 307 371 354 472 450 486 335 318 458 479 540 542 412 278 79 143
352 309 437 492 586 605 774 452 284 220 136 70 141 58 58 109 71 41 72 118 136 101 79 142 101 340 188 270 340 472 459 466 462 308 340 246 123 178 212 168 215 190
311 323 220 304 758 997 906 637 234 306 261 190 103 90 134 136 201 115 254 195 122 157 191 138 356 392 492 532 422 398 271 248 56 19 72 84 129 63 163 3 13 42
855 470 254 437 838 866 605 543 195 243 164 109 16 25 14 12 3 209 285 351 519 395 232 262 450 595 322 633 992 358 265 323 131 9 63 57 92 105 7 170 143 35
948 793 516 642 803 703 572 383 76 60 35 106 124 258 341 204 330 69 416 716 477 363 389 454 328 113 0 108 581 577 386 295 292 274 334 295 212 237 346 148 4 176
853 798 794 760 839 617 314 292 172 41 38 882 189 190 673 1090 755 524 659 606 377 317 398 373 180 0 125 187 192 324 353 389 387 330 292 300 250 247 135 130 161 122
715 702 606 576 647 632 448 365 281 232 343 861 833 854 931 970 647 578 471 396 270 257 362 395 404 332 557 536 536 513 548 599 376 366 396 287 258 297 204 240 142 184
657 658 604 493 484 531 416 420 279 351 348 710 1028 948 837 846 604 744 609 362 420 441 349 388 227 34 506 338 187 0 259 719 816 606 620 281 374 147 156 353 535 342
272 284 206 339 414 476 528 416 434 330 502 602 790 936 687 522 562 682 627 505 450 430 352 144 314 386 32 224 86 113 263 386 626 698 386 472 278 236 90 106 200 463
86 374 382 328 325 376 420 254 504 584 584 574 707 1040 968 605 654 440 666 511 263 134 287 236 301 343 292 347 147 78 163 0 376 187 187 90 14 56 101 116 72 68
106 408 481 348 237 299 365 365 550 513 482 554 779 981 847 838 763 299 18 271 370 358 432 59 267 228 360 7 0 0 0 0 67 203 44 22 10 29 20 0 1 156
361 298 417 423 367 302 340 518 504 522 562 724 807 874 842 743 570 447 257 176 357 497 321 10 433 353 430 184 0 0 0 0 429 121 26 0 0 0 0 0 0 16
87 200 308 224 196 280 377 493 534 508 586 651 720 630 540 355 234 272 239 222 431 472 200 75 67 428 397 376 193 0 0 275 401 27 2 4 0 0 0 0 0 0
2 0 104 54 98 109 216 384 458 406 348 301 373 334 195 75 34 15 13 20 5 19 56 10 0 0 42 40 44 222 0 2 222 14 19 0 0 0 0 0 0 0
0 0 9 46 32 82 216 206 204 107 91 145 136 87 58 33 0 7 3 1 13 22 4 45 0 0 0 0 0 0 0 61 195 25 2 2 0 0 0 0 0 0
0 0 0 0 6 81 66 89 90 65 118 99 25 5 1 0 0 1 2 2 0 1 52 28 0 0 0 0 0 0 0 0 16 17 34 9 0 0 0 0 0 0

ECMWFNIL_con_mucape_063.txt.gz
CAPE
15 2 9 0 0 0 0 0 0 0 0 0 0 0 0 0 0 0 0 0 0 0 0 0 0 0 0 0 0 0 0 0 0 0 0 0 0 0 0 0 0 0
75 22 20 1 0 1 0 0 0 0 0 0 0 0 0 0 0 0 0 0 0 0 0 0 0 0 0 0 0 0 0 0 0 0 0 0 0 0 0 0 0 0
70 11 15 5 4 5 0 0 0 0 0 0 0 0 0 0 0 0 0 0 0 0 0 0 0 0 0 0 0 0 0 0 0 0 0 0 0 0 0 0 0 0
25 28 48 17 15 0 0 0 0 0 0 0 0 0 0 0 0 0 0 10 0 0 0 0 0 0 0 0 0 0 0 0 0 0 0 0 0 0 0 0 0 0
282 403 183 38 11 3 5 2 0 0 0 0 0 0 0 0 0 0 0 0 0 0 0 0 0 0 0 0 0 0 0 0 0 0 0 0 0 0 0 0 0 0
580 452 227 53 10 12 19 16 4 0 0 0 0 0 0 0 0 0 0 0 0 0 0 0 0 0 0 0 0 0 0 0 0 0 0 0 0 0 0 0 0 0
469 339 278 67 28 44 79 38 7 2 0 0 0 0 0 0 0 0 0 0 0 0 0 0 0 0 0 1 4 0 0 0 0 0 0 0 0 0 0 0 0 0
414 384 354 292 72 83 125 96 26 13 4 0 1 6 2 0 0 0 0 0 0 0 1 13 10 18 21 8 1 4 21 84 2 0 0 0 0 0 0 0 0 0
536 399 405 582 465 99 129 164 93 48 24 7 15 16 14 1 0 0 0 0 1 2 7 23 34 71 143 112 21 10 31 8 7 0 0 11 11 0 0 0 0 0
728 450 380 594 745 632 99 216 152 101 76 32 24 10 32 6 2 5 3 4 4 14 60 80 118 112 162 141 54 46 165 146 167 69 14 6 11 16 7 0 0 0
773 493 550 630 676 621 421 168 194 103 67 30 23 17 36 19 4 4 11 16 21 19 25 83 80 47 260 197 228 213 196 156 154 104 84 93 3 9 50 0 0 0
591 199 422 684 639 534 370 133 137 126 68 22 14 20 77 27 0 8 7 26 21 0 0 211 288 304 297 216 251 231 238 166 176 48 60 174 176 107 0 0 0 0
415 412 468 518 668 355 438 223 96 94 52 39 18 25 19 39 0 27 2 2 0 2 12 178 203 227 236 239 232 226 227 163 40 16 4 10 4 0 0 1 0 2
458 328 371 366 585 367 301 318 92 63 0 73 23 6 11 2 2 48 0 5 30 194 100 13 0 0 132 66 129 29 106 111 31 0 2 0 0 0 0 0 2 22
548 362 293 367 390 386 259 341 214 94 118 200 124 16 4 2 1 68 196 58 113 94 90 7 0 0 0 164 131 35 3 144 0 0 0 1 12 17 16 0 5 8
543 375 0 0 0 298 357 340 350 98 109 144 406 129 110 27 52 46 13 51 152 127 15 0 0 0 0 121 155 76 13 13 0 19 21 2 9 18 8 110 206 23
326 412 446 0 0 0 316 18 1 0 0 42 482 306 315 268 61 30 26 18 35 230 220 119 0 0 0 165 244 286 329 1 15 24 22 20 39 3 8 55 26 177
394 156 285 0 0 23 139 138 0 0 17 320 805 479 418 364 60 20 2 0 6 1 0 61 0 192 412 310 328 252 143 12 31 68 51 23 74 72 40 124 136 301
303 261 22 1 2 0 350 326 368 158 85 640 834 557 473 421 352 31 16 1 1 129 226 14 0 0 13 0 0 224 559 595 533 67 123 23 61 32 11 131 282 388
18 179 257 285 314 295 298 358 340 0 462 752 732 637 529 444 374 317 204 284 274 285 296 257 0 0 0 0 0 106 303 150 121 366 257 0 0 0 0 170 367 488
35 67 10 1 48 352 330 294 66 348 530 606 583 578 512 517 493 310 246 0 0 238 196 0 0 0 223 0 0 169 0 0 0 0 0 0 0 0 0 0 376 254
59 246 235 214 64 307 335 387 396 384 448 507 468 487 471 443 76 319 319 294 0 2 5 5 69 251 250 0 0 0 0 0 0 0 0 0 0 0 0 0 54 87
167 206 36 1 184 251 281 359 387 383 437 372 402 463 493 423 416 362 127 23 8 77 0 0 228 315 116 0 1 3 3 1 0 0 0 0 0 0 0 0 0 0
92 224 208 237 129 166 262 265 329 290 388 414 432 513 448 450 301 0 235 341 353 0 0 226 354 361 193 0 0 0 0 0 0 0 0 0 0 0 0 0 0 0
0 0 75 156 103 275 348 372 374 420 547 614 597 431 288 203 0 0 12 342 380 0 0 367 336 407 375 202 86 0 0 0 0 0 0 0 0 0 0 0 0 0
0 0 0 0 25 261 308 353 311 327 430 509 402 244 0 0 0 0 7 247 248 0 0 10 239 107 410 249 263 185 0 0 0 0 0 0 0 0 0 0 0 0

ECMWFNIL_con_mucape_066.txt.gz
CAPE
426 220 209 193 177 0 4 32 84 0 0 0 0 0 0 0 0 0 0 0 0 0 0 0 0 0 0 0 0 0 0 0 0 0 0 0 0 0 0 0 0 0
521 434 371 316 137 140 143 133 125 44 0 0 0 0 0 0 0 0 0 0 0 0 0 0 0 0 0 0 0 0 0 0 0 0 0 0 0 0 0 0 0 0
557 530 478 167 148 162 143 49 0 0 0 0 0 0 0 0 0 0 0 0 0 0 0 0 0 0 0 0 0 0 0 0 0 0 0 0 0 0 0 0 0 0
546 354 191 175 190 151 43 0 0 0 0 0 0 0 0 0 0 0 0 0 0 0 0 0 0 0 0 0 0 0 0 0 0 0 0 0 0 0 0 0 0 0
293 208 240 243 178 98 102 107 21 0 0 0 0 0 0 0 0 0 0 0 0 0 0 0 0 0 0 0 0 0 0 0 0 0 0 0 0 0 0 0 0 0
201 189 178 146 138 142 140 116 0 0 0 0 0 0 0 0 0 0 0 0 0 0 0 0 0 0 0 0 0 0 0 0 0 0 0 0 0 0 0 0 0 0
272 143 166 154 154 173 129 7 0 0 0 0 0 0 0 0 0 0 0 0 0 0 0 0 0 0 0 0 0 0 0 0 0 0 0 0 0 0 0 0 0 0
228 42 15 167 157 125 79 0 0 0 0 0 0 0 0 0 0 0 0 0 0 0 0 0 0 0 0 0 0 0 0 0 0 0 0 0 0 0 0 0 0 0
176 152 127 20 0 0 0 0 0 0 0 0 0 0 0 0 0 0 0 0 0 0 0 0 0 0 0 0 0 0 0 0 0 0 0 0 0 0 0 0 0 0
378 358 288 162 76 2 0 0 0 2 0 0 0 0 0 0 0 0 0 0 0 0 0 0 0 0 0 0 0 0 0 0 0 0 0 0 0 0 0 0 0 0
352 331 85 57 49 46 21 6 28 43 46 2 0 5 3 0 0 0 0 0 4 0 1 0 127 150 165 52 30 139 0 0 0 0 0 0 0 0 0 0 0 0
199 281 79 4 4 1 6 122 120 110 108 3 0 2 0 0 2 0 6 11 20 70 119 142 175 223 220 176 191 190 170 172 168 134 114 24 0 0 0 0 0 0
192 134 174 234 0 0 0 98 198 167 109 25 0 0 8 1 0 3 8 9 9 40 136 170 210 269 277 252 251 257 166 134 19 0 12 203 123 0 0 0 0 0
388 370 292 364 250 73 167 232 182 168 119 5 0 3 6 6 0 13 10 16 45 138 193 220 241 299 330 305 281 278 291 275 198 0 0 0 2 123 163 63 0 0
308 293 311 637 375 151 0 0 0 30 34 58 11 36 4 1 51 9 18 40 103 177 235 254 266 296 320 308 285 280 254 210 181 147 0 0 0 0 121 0 0 0
343 256 204 197 289 309 106 1 2 2 67 122 140 73 0 0 2 31 61 105 131 178 238 276 296 322 339 294 274 240 28 0 1 104 10 0 0 129 102 0 61 60
537 393 228 48 283 253 16 0 0 0 32 52 260 162 0 0 35 62 65 94 8 8 178 213 238 248 237 221 205 214 65 0 0 0 0 0 21 167 140 120 159 141
557 526 412 0 0 0 0 0 0 0 0 0 126 262 1 0 0 1 0 0 0 0 0 0 0 17 96 170 187 172 0 0 0 0 0 13 96 81 41 164 205 193
436 476 501 369 0 0 18 18 20 0 0 0 97 290 244 0 0 0 0 0 0 0 9 0 0 0 0 13 189 184 11 0 0 0 0 0 0 0 0 79 211 332
474 385 314 369 398 347 102 144 345 318 78 0 138 291 277 147 0 0 0 0 0 0 0 0 0 0 105 296 301 221 0 0 0 0 0 0 0 0 0 288 371 409
0 0 268 73 0 0 0 0 0 0 0 0 62 309 326 296 250 212 37 0 0 0 0 0 0 328 303 132 30 224 306 415 365 263 79 0 0 0 62 342 417 450
0 0 0 0 243 284 189 0 0 197 183 349 424 402 373 351 378 357 308 276 277 262 238 237 230 0 207 195 165 318 434 418 300 202 2 6 4 7 244 420 513 485
0 0 0 0 198 260 323 322 304 352 298 458 495 520 528 439 400 348 335 314 291 9 74 146 200 194 182 151 0 224 256 14 11 7 9 15 16 4 315 456 523 369
134 98 0 13 0 0 234 241 285 301 336 360 345 51 32 42 0 0 0 153 296 253 26 0 6 150 153 12 112 38 6 34 51 9 16 7 4 2 225 376 379 259
35 101 0 51 78 147 181 176 240 248 327 318 79 0 77 170 230 354 122 83 70 117 10 10 160 216 236 5 48 0 1 0 57 12 4 19 30 0 0 0 0 0
0 0 0 0 18 190 257 246 207 131 8 9 165 240 316 396 397 383 340 275 216 32 112 110 254 334 200 0 0 0 0 3 82 82 86 40 0 0 0 0 0 0

ECMWFNIL_con_mucape_069.txt.gz
CAPE
544 447 294 230 0 0 0 0 0 0 0 0 0 0 0 0 0 0 0 0 0 0 0 0 0 0 0 0 0 0 0 0 0 0 0 0 0 0 0 0 212 371
580 454 276 126 0 130 114 91 48 0 0 0 0 0 0 0 0 0 0 0 0 0 0 0 0 0 0 0 0 0 0 0 0 0 0 0 0 0 0 0 0 139
485 266 192 91 123 131 134 84 58 0 0 0 0 0 0 0 0 0 0 0 0 0 0 0 0 0 0 0 0 0 0 0 0 0 0 0 0 0 0 0 0 0
340 269 228 306 320 221 80 0 0 0 0 0 0 0 0 0 0 0 0 0 0 0 0 0 0 0 0 0 0 0 0 0 0 0 0 0 0 0 0 0 0 0
449 518 469 476 383 165 14 0 22 0 0 0 0 0 0 0 0 0 0 0 0 0 0 0 0 0 0 0 0 0 0 0 0 0 0 0 0 0 0 0 0 0
570 537 489 385 169 74 88 86 13 0 0 0 0 0 0 0 0 0 0 0 0 0 0 0 0 0 0 0 0 0 0 0 0 0 0 0 0 0 0 0 0 0
607 522 358 127 0 0 0 0 0 0 0 0 0 0 0 0 0 0 0 0 0 0 0 0 0 0 0 0 0 0 0 0 0 0 0 0 0 0 0 0 0 0
459 367 117 0 0 0 0 0 0 0 0 0 0 0 0 0 0 0 0 0 0 0 0 0 0 0 0 0 0 0 0 0 0 0 0 0 0 0 0 0 0 0
318 185 0 0 0 0 0 0 0 0 0 0 0 0 0 0 0 0 0 0 0 0 0 0 0 0 0 0 0 0 0 0 0 0 0 0 0 0 0 0 0 0
214 0 0 0 0 0 19 0 0 0 0 0 0 0 0 0 0 0 0 0 0 0 0 0 0 0 0 0 0 0 0 0 0 0 0 0 0 0 0 0 0 0
0 0 0 0 0 0 0 0 0 0 0 0 0 0 0 0 0 0 0 0 0 0 0 0 0 0 0 0 0 0 0 0 0 0 0 0 0 0 0 0 0 0
0 0 0 0 0 0 0 0 0 0 0 0 0 0 0 0 0 0 0 0 0 0 0 0 0 0 0 0 0 0 0 0 0 0 0 0 0 0 0 0 0 0
83 143 36 0 0 0 0 0 0 0 0 0 0 0 0 0 0 0 0 0 0 0 0 0 0 0 0 0 0 0 0 0 0 0 0 0 0 0 0 0 0 0
0 87 97 64 29 0 0 0 0 0 0 0 0 0 0 0 0 0 0 0 0 0 2 1 0 141 184 60 0 0 0 0 0 0 0 0 0 0 0 0 0 0
18 120 82 12 2 0 0 0 0 0 0 0 0 0 0 0 0 0 0 0 0 0 9 1 0 151 230 234 134 0 0 0 0 0 0 0 0 0 0 0 0 0
149 92 29 74 0 0 0 0 0 0 0 0 0 0 0 0 0 14 19 2 1 1 1 0 0 46 207 262 260 220 238 241 234 220 94 0 0 0 0 0 0 0
52 82 0 0 171 156 75 101 127 175 165 1 6 2 0 52 62 60 37 16 1 0 0 0 0 188 260 295 324 302 281 293 280 223 8 0 0 0 0 0 0 0
268 250 139 65 125 0 168 177 140 105 162 74 1 0 0 1 23 26 42 18 0 0 0 0 89 191 262 325 343 343 306 268 25 0 0 0 0 0 0 0 0 0
283 260 200 323 319 101 0 0 1 0 48 0 0 6 2 1 0 1 1 0 0 1 0 0 9 198 252 313 356 368 322 214 141 0 0 0 0 0 0 0 0 0
452 171 408 333 279 298 218 0 0 0 0 0 0 69 63 0 0 0 0 0 0 0 1 0 173 256 307 352 381 370 250 198 53 0 0 0 0 0 0 0 0 0
413 376 415 438 422 280 225 252 43 37 36 0 0 0 0 0 0 0 0 0 0 0 0 0 196 299 339 325 276 201 160 198 199 0 0 0 0 0 0 0 0 0
279 307 88 328 305 318 301 290 281 287 324 273 34 0 0 0 0 146 118 72 0 0 0 0 0 196 228 202 224 229 215 199 48 0 0 0 0 0 0 0 0 111
55 52 43 0 2 1 64 64 0 262 287 318 351 296 173 27 154 0 0 1 0 0 0 84 77 175 240 249 254 325 311 228 206 182 0 0 0 0 0 90 247 338
18 42 31 8 9 136 190 235 281 259 232 234 244 239 138 34 202 0 0 0 0 0 4 15 86 52 183 263 270 265 232 254 313 290 194 16 8 0 1 240 393 464
0 0 0 39 57 9 0 0 176 248 279 274 320 405 408 347 276 0 0 223 300 0 0 0 0 0 0 298 302 215 193 225 250 303 98 24 21 24 89 347 520 602
0 0 0 0 0 95 0 0 162 171 188 235 247 278 296 203 0 9 0 0 0 0 0 6 164 23 44 34 28 84 25 26 266 306 241 167 87 15 32 463 631 646

ECMWFNIL_con_mucape_072.txt.gz
CAPE
746 492 296 0 0 0 0 65 204 181 124 30 0 0 0 0 0 0 0 0 0 0 0 0 0 0 0 0 0 0 0 0 0 0 0 0 0 115 232 318 362 318
810 691 444 297 0 0 0 0 123 176 124 0 0 0 0 0 0 0 0 0 0 0 0 0 0 0 0 0 0 0 0 0 0 0 0 0 0 0 71 283 338 362
735 732 554 310 0 0 0 194 190 54 0 0 0 0 0 0 0 0 0 0 0 0 0 0 0 0 0 0 0 0 0 0 0 0 0 0 0 0 0 0 228 270
764 706 603 191 0 0 0 0 0 0 0 0 0 0 0 0 0 0 0 0 0 0 0 0 0 0 0 0 0 0 0 0 0 0 0 0 0 0 0 0 0 0
700 681 531 94 0 0 0 0 0 0 0 0 0 0 0 0 0 0 0 0 0 0 0 0 0 0 0 0 0 0 0 0 0 0 0 0 0 0 0 0 0 50
562 511 302 0 216 0 0 0 0 0 0 0 0 0 0 0 0 0 0 0 0 0 0 0 0 0 0 0 0 0 0 0 0 0 0 0 0 0 0 0 0 0
560 377 27 294 333 280 0 0 0 0 0 0 0 0 0 0 0 0 0 0 0 0 0 0 0 0 0 0 0 0 0 0 0 0 0 0 0 0 0 0 0 0
297 259 427 423 338 14 0 0 0 0 0 0 0 0 0 0 0 0 0 0 0 0 0 0 0 0 0 0 0 0 0 0 0 0 0 0 0 0 0 0 0 0
334 482 524 419 253 0 0 0 0 0 0 0 0 0 0 0 0 0 0 0 0 0 0 0 0 0 0 0 0 0 0 0 0 0 0 0 0 0 0 0 0 0
645 619 506 354 155 0 0 0 0 0 0 0 0 0 0 0 0 0 0 0 0 0 0 0 0 0 0 0 0 0 0 0 0 0 0 0 0 0 0 0 0 0
664 562 380 172 0 0 0 0 0 0 0 0 0 0 0 0 0 0 0 0 0 0 0 0 0 0 0 0 0 0 0 0 0 0 0 0 0 0 0 0 0 0
622 464 260 0 0 0 0 0 0 0 0 0 0 0 0 0 0 0 0 0 0 0 0 0 0 0 0 0 0 0 0 0 0 0 0 0 0 0 0 0 0 0
560 332 239 0 0 0 0 0 0 0 0 0 0 0 0 0 0 0 0 0 0 0 0 0 0 0 0 0 0 0 0 0 0 0 0 0 0 0 0 0 0 0
198 0 74 93 0 0 0 0 0 0 0 0 0 0 0 0 0 0 0 0 0 0 0 0 0 0 0 0 18 0 0 0 0 0 0 0 0 0 0 0 0 0
96 51 72 68 5 0 0 0 0 0 0 0 0 0 0 0 0 0 0 0 0 0 0 0 0 28 92 104 114 111 0 0 64 110 124 101 76 82 76 72 52 0
21 24 29 14 0 0 0 0 0 0 0 0 0 0 0 0 0 0 0 0 0 0 3 34 85 98 126 146 175 195 171 125 139 151 150 142 126 105 60 112 111 98
34 8 8 12 28 0 0 0 0 0 0 0 0 0 0 0 0 0 0 0 0 4 11 6 83 102 126 145 157 207 225 206 174 191 188 161 190 188 134 11 3 3
10 0 1 27 42 25 0 0 0 0 0 0 2 2 0 0 0 0 0 0 48 55 54 60 67 85 110 129 140 150 185 221 243 241 250 254 250 195 88 0 0 0
144 123 2 24 69 44 0 0 0 0 0 0 2 4 0 0 0 0 2 40 52 60 56 35 8 0 0 0 0 0 169 208 252 298 285 273 211 124 30 0 0 0
112 124 20 0 43 94 102 94 51 74 97 59 30 41 0 0 0 0 26 45 48 43 40 38 13 0 0 51 27 0 0 223 281 327 335 285 201 74 0 0 0 0
255 283 192 57 41 0 0 0 0 66 107 71 0 71 0 0 0 0 0 0 0 1 1 0 0 0 0 0 0 0 60 240 308 334 346 310 208 0 0 0 0 0
272 274 264 240 237 197 83 0 0 0 0 0 0 27 28 0 0 0 0 2 1 0 0 0 0 0 0 0 0 19 162 237 292 334 349 261 0 0 0 0 0 0
117 159 182 180 220 233 110 0 0 0 94 0 0 0 54 108 59 0 0 0 0 0 0 0 0 0 0 0 0 106 188 259 307 331 283 0 0 0 0 0 0 0
14 53 105 117 115 89 4 0 182 175 182 0 208 225 241 257 234 130 25 0 0 0 0 0 0 0 0 3 34 93 185 265 297 269 0 0 0 0 0 0 0 0
0 0 0 0 0 0 0 9 30 34 14 52 171 132 198 228 236 251 240 194 77 0 0 0 0 0 0 0 0 0 0 0 34 150 170 176 71 45 0 0 0 0
0 0 0 0 0 0 0 0 0 72 106 120 120 131 153 184 181 183 186 99 0 0 0 0 0 0 0 0 0 0 0 0 13 149 206 240 224 146 114 93 25 97

ECMWFNIL_con_mucape_075.txt.gz
CAPE
794 802 817 778 593 578 510 411 509 600 495 394 434 271 344 371 80 259 125 73 131 48 3 2 0 0 0 0 0 0 0 0 0 0 19 251 498 666 743 688 761 623
546 442 507 410 326 356 363 372 431 539 340 307 325 214 149 84 50 54 31 41 3 0 0 0 0 0 0 0 0 0 0 0 0 0 0 120 248 508 750 847 808 603
487 403 361 396 268 104 204 272 358 446 309 98 88 147 41 21 4 1 10 0 0 0 0 0 0 0 0 0 0 0 0 0 0 0 0 0 0 270 399 503 609 594
671 608 503 567 366 160 71 271 248 110 56 2 32 10 1 0 1 0 0 0 0 0 0 0 0 0 0 0 0 0 0 0 0 0 0 0 0 32 115 353 384 363
832 788 613 293 144 67 41 65 41 74 139 70 0 0 0 0 0 0 0 0 1 0 0 0 0 0 0 0 0 0 0 0 0 0 0 0 0 13 40 284 464 481
740 794 700 358 30 34 65 104 54 77 51 9 3 0 10 13 0 0 0 0 0 0 0 0 0 0 0 0 0 0 0 0 0 0 0 0 0 0 0 240 422 426
761 758 704 366 22 126 149 109 111 76 78 73 0 0 0 1 0 0 0 0 0 0 0 0 0 0 0 0 0 0 0 0 0 0 0 0 0 0 0 68 180 217
686 672 653 312 189 222 185 179 76 103 108 0 9 0 1 0 0 0 0 0 0 0 0 0 0 0 0 0 0 0 0 3 11 0 0 0 0 0 0 0 93 136
569 549 486 275 290 255 113 10 60 71 15 40 4 0 0 0 0 0 0 0 0 0 0 0 0 0 0 0 1 0 0 7 64 44 10 5 1 0 0 0 3 57
547 498 312 350 348 268 1 0 1 12 11 27 0 0 0 0 0 0 0 0 0 0 0 0 0 0 0 0 0 0 0 0 0 37 39 19 0 0 0 4 4 8
500 344 367 456 393 250 0 0 0 0 0 1 2 6 0 0 0 0 0 0 0 0 0 0 0 0 0 0 12 12 1 5 2 7 68 37 107 80 51 42 141 99
268 263 506 500 345 120 0 0 0 0 0 3 2 0 4 0 0 0 0 0 0 0 0 0 0 1 0 0 2 19 101 168 143 90 88 93 154 101 30 132 118 102
483 433 282 309 120 0 0 0 0 0 0 0 6 18 18 3 3 0 8 1 0 6 6 16 23 38 76 130 64 53 82 140 287 248 207 296 350 218 242 297 196 140
444 332 213 228 54 0 0 0 0 0 4 7 5 38 50 11 4 6 17 19 38 20 42 76 106 100 122 184 157 189 243 340 357 444 336 324 434 404 479 419 343 294
81 33 13 24 15 0 0 0 0 0 0 4 11 46 98 57 68 43 27 12 30 110 74 116 127 184 215 203 188 191 398 392 382 363 463 430 421 424 401 410 478 485
0 91 90 47 13 0 0 1 9 4 7 7 8 9 21 76 78 84 55 49 69 152 263 235 200 158 34 36 61 232 357 542 600 675 559 567 603 600 477 400 512 582
51 101 69 13 66 0 0 0 9 83 48 25 32 14 32 14 36 34 97 116 123 243 330 307 278 127 63 93 123 156 446 564 468 459 596 698 805 753 720 627 478 290
0 0 0 0 0 0 0 0 0 0 5 13 59 43 23 22 33 30 11 84 151 159 278 348 284 5 72 94 118 142 170 379 675 574 560 642 670 693 755 670 584 424
0 0 0 0 0 0 0 0 0 0 0 16 64 66 55 56 6 10 4 165 248 201 250 134 147 3 41 54 83 114 128 140 604 828 770 784 743 776 704 729 635 435
0 0 0 0 0 0 0 0 0 0 0 0 0 1 150 81 83 0 193 274 268 242 192 96 97 57 58 58 58 80 101 123 285 766 890 916 865 788 832 803 711 566
51 47 0 0 0 0 0 0 0 7 5 0 4 19 152 157 188 174 152 164 236 270 354 243 50 54 58 56 53 48 65 88 105 330 516 704 812 836 849 848 740 595
165 180 46 0 0 0 22 45 60 40 0 0 9 1 0 4 17 62 95 88 56 108 216 314 30 0 0 35 42 47 46 43 58 138 375 505 547 548 512 514 458 417
123 103 114 69 0 28 88 110 116 66 0 0 25 0 0 5 0 0 0 25 21 49 173 210 44 0 0 0 25 40 44 37 2 27 138 374 486 346 241 269 224 142
20 49 36 18 4 0 5 33 105 101 70 0 3 32 38 0 0 5 0 0 0 7 19 163 82 1 0 0 0 2 0 0 4 35 120 138 213 214 247 254 198 146
2 11 30 32 22 14 0 0 44 108 109 113 149 170 170 156 62 72 58 54 132 116 105 44 49 101 107 114 92 46 0 0 0 14 134 229 170 228 252 77 56 59
0 0 0 0 0 0 0 0 0 0 0 0 112 143 160 170 160 136 130 137 121 120 132 126 134 129 113 82 77 27 53 0 0 0 86 130 59 76 98 113 118 81

ECMWFNIL_con_mucape_078.txt.gz
CAPE
1414 1579 1907 1756 1569 1532 1493 1454 1339 1006 772 593 594 547 554 720 688 774 789 664 520 390 364 493 500 456 397 408 359 50 103 284 228 332 991 1399 1394 1634 1786 1691 1665 1430
1208 1571 1426 1470 1434 1383 1516 1320 957 755 689 554 490 573 672 754 916 759 644 520 332 278 228 324 289 218 143 57 52 38 15 120 90 92 564 1147 992 1420 1689 1868 1769 1481
1292 1620 1650 1331 1356 1306 1409 1212 945 718 594 574 736 647 733 877 849 732 549 413 232 186 161 145 94 50 22 2 22 64 82 251 225 304 210 180 332 622 1724 1835 1778 1444
1335 1641 1548 1568 1425 1412 1393 1352 1151 804 865 769 604 647 653 740 737 810 755 356 157 75 115 121 93 1 0 0 3 11 46 81 145 183 114 124 237 418 1279 1648 1576 1468
1680 1605 932 885 891 1012 1265 1170 1158 964 706 607 814 651 501 646 697 663 504 231 90 22 49 71 70 37 0 0 0 0 0 0 94 23 0 8 223 653 933 1154 1447 1318
1909 1575 1097 814 831 982 1114 1051 941 801 758 834 635 375 392 525 471 472 297 149 62 1 0 0 0 0 0 0 0 0 0 0 0 0 0 7 172 442 340 717 968 876
1983 1529 1078 736 835 1138 959 890 851 797 668 498 384 271 433 507 474 297 147 100 8 0 0 0 0 0 0 0 0 0 0 0 0 0 0 4 106 421 190 232 91 190
1933 1552 1314 913 1089 1147 856 787 748 717 609 373 193 337 480 455 309 206 128 33 0 0 0 0 0 0 0 0 0 0 0 0 0 0 0 2 54 14 253 200 262 52
1808 1556 1237 1303 1196 976 803 628 691 626 564 288 191 226 397 344 238 200 101 3 0 0 0 0 0 0 0 0 0 0 0 0 0 0 0 0 8 12 5 75 218 267
1616 1350 1231 1191 1139 945 766 559 561 490 377 220 155 142 203 293 256 149 70 2 0 0 0 0 0 0 0 0 0 0 0 0 0 0 0 0 0 0 2 10 32 177
1343 1334 1277 1218 1130 864 993 754 600 461 353 232 197 154 136 205 149 131 45 1 0 0 0 0 0 0 0 0 0 0 0 0 0 0 0 0 4 4 2 11 21 17
1134 952 1234 1319 1166 1109 1082 812 562 455 421 282 162 140 117 86 113 88 18 0 0 0 0 0 0 0 0 0 0 1 1 1 0 1 0 0 2 2 5 21 22 16
653 869 858 600 685 940 870 599 447 381 299 180 117 107 74 32 58 66 14 0 0 0 0 0 0 0 0 0 1 27 49 66 70 62 60 57 40 28 25 20 10 17
329 480 276 232 193 241 352 449 526 469 238 128 83 66 37 11 6 28 15 1 0 0 0 0 0 0 3 24 34 60 82 122 152 149 154 186 223 204 244 205 120 52
347 243 157 138 147 38 122 241 299 314 309 236 132 92 63 15 0 5 11 8 0 0 6 28 18 35 74 110 154 142 194 182 192 179 196 246 304 361 368 364 324 306
186 218 120 104 199 148 48 131 257 330 250 164 149 138 99 18 2 5 3 5 0 0 8 60 82 281 525 11 130 406 338 338 310 324 380 434 416 415 439 408 400 477
57 42 37 130 89 284 52 44 126 179 112 71 128 127 120 63 47 64 31 3 2 52 129 140 190 713 0 0 0 0 594 542 486 449 535 574 580 606 579 526 597 493
41 105 70 22 3 15 19 8 0 41 43 48 59 122 139 69 113 57 108 58 59 121 241 203 560 0 0 0 0 0 6 585 573 474 510 585 647 662 653 707 697 748
101 19 0 0 2 0 0 12 0 66 94 131 256 274 128 169 159 190 155 186 193 182 217 220 531 1 0 0 0 0 0 325 633 846 713 680 776 775 866 1035 1131 1082
20 33 2 2 0 0 0 6 0 26 36 96 142 122 181 238 238 313 204 180 147 210 214 234 652 24 0 0 0 0 0 39 472 792 1139 1071 1005 1041 1178 1248 1255 1279
6 6 19 19 14 9 10 0 1 0 19 79 192 301 326 222 298 338 519 478 499 358 343 558 89 0 0 0 0 0 0 3 454 877 1042 1057 1009 950 356 402 1234 1370
1 2 42 26 94 111 97 57 69 114 130 86 239 268 262 246 282 418 453 553 516 516 534 698 66 0 0 0 0 0 0 46 423 701 808 752 823 950 1014 1188 1387 1471
0 18 0 10 106 58 19 13 54 112 91 120 148 214 296 275 339 446 468 548 555 554 685 468 150 0 0 0 0 0 0 129 452 557 576 842 945 1072 1227 1251 1247 1292
0 0 0 0 1 3 2 23 3 8 42 243 321 369 331 381 463 382 236 276 414 486 299 618 289 0 0 0 0 0 0 96 389 498 627 741 932 1159 1278 1092 1059 674
0 0 0 0 0 0 2 3 5 50 100 98 278 313 263 276 290 528 376 251 156 71 29 545 182 1 1 0 0 0 0 34 134 339 609 893 984 1066 1179 984 1064 554
0 0 0 0 0 0 0 0 31 23 9 22 57 78 79 86 66 102 119 96 80 74 81 94 116 79 3 3 5 4 3 2 21 271 359 460 592 613 681 1014 763 757

ECMWFNIL_con_mucape_081.txt.gz
CAPE
907 719 600 870 724 761 980 996 1061 763 692 638 671 564 581 553 428 437 418 391 407 330 339 520 506 542 475 464 315 227 234 270 276 938 1507 1253 1062 1402 1314 894 859 984
762 656 601 658 674 752 985 788 740 690 671 526 464 458 475 480 498 498 384 329 204 215 317 413 403 393 339 238 220 115 162 234 204 207 1143 1285 1146 1885 1797 1801 1574 1090
1013 985 970 708 662 1117 1180 853 740 643 399 374 405 697 471 482 491 340 284 151 147 180 314 411 364 277 219 202 134 128 146 166 127 209 223 200 456 1412 1711 1671 1370 1213
912 912 942 934 857 1026 1082 831 709 560 505 455 373 525 432 456 462 436 398 173 159 79 209 274 234 137 73 81 101 115 101 125 172 213 219 233 254 511 1472 1655 1253 1002
945 990 991 945 996 1007 1011 746 545 458 528 467 448 405 417 426 550 464 364 169 70 39 136 244 146 63 23 2 18 75 74 111 90 113 68 129 115 255 613 1477 1339 1416
633 755 645 740 499 1031 780 734 518 453 417 462 520 390 492 541 433 472 308 120 39 43 101 215 170 23 0 0 0 0 0 0 0 0 0 5 57 174 165 735 1484 1170
1105 345 698 494 732 702 566 587 421 312 427 481 426 430 504 448 440 463 152 62 5 1 9 35 64 13 1 0 0 0 0 0 0 0 0 0 34 90 95 324 260 339
1196 1172 515 472 464 446 361 471 506 381 471 388 288 311 446 319 422 269 103 20 0 0 0 0 0 8 0 0 0 0 0 0 0 0 0 6 36 37 114 78 168 189
1099 656 664 750 599 488 416 403 427 393 317 359 212 334 399 420 320 165 74 14 0 0 0 0 0 0 0 0 0 0 0 0 0 0 12 42 26 24 20 23 44 92
776 652 815 583 605 406 391 395 476 442 321 192 207 286 428 319 207 101 71 4 0 0 0 0 0 0 0 0 0 0 0 0 0 0 8 9 10 6 2 19 31 49
650 575 952 577 521 400 360 345 402 399 210 91 150 224 238 288 168 123 54 2 0 0 0 0 0 0 0 0 0 0 0 0 0 0 1 0 2 3 0 9 8 22
676 820 826 858 527 433 363 262 324 346 188 117 53 80 222 264 167 146 24 1 0 0 0 0 0 0 0 0 0 0 0 0 0 0 0 1 0 0 4 4 11 6
632 720 890 882 958 708 450 359 336 300 235 189 121 118 143 203 138 164 9 0 0 0 0 0 0 0 0 0 0 0 0 0 0 0 0 0 0 0 0 2 3 5
634 598 695 771 870 943 431 386 345 308 171 146 125 126 85 40 108 93 6 0 0 0 0 0 0 0 0 0 2 24 13 21 25 27 24 22 35 18 10 7 10 7
452 469 483 590 563 738 536 352 375 264 151 105 101 117 24 7 47 64 1 0 0 0 0 0 0 1 8 40 154 212 150 140 167 135 164 203 230 203 192 130 72 42
242 290 278 390 236 410 500 289 212 234 132 88 43 33 25 6 7 16 2 0 0 0 0 12 18 569 129 105 182 226 380 286 239 271 170 288 357 428 395 372 406 286
257 230 235 214 153 245 380 193 236 221 150 65 52 48 16 19 5 12 2 28 0 21 82 112 419 290 0 0 8 144 1070 718 344 429 569 460 442 545 599 436 458 207
236 175 119 117 19 90 78 27 200 66 56 55 88 85 23 24 12 16 6 18 2 20 97 81 308 0 0 0 0 0 114 497 583 521 409 624 333 552 537 586 439 484
144 23 29 19 62 45 0 0 0 52 242 352 537 333 30 17 31 16 26 15 37 69 141 108 442 0 0 0 0 0 0 82 203 617 464 391 468 503 474 515 428 510
76 3 0 0 0 53 0 10 18 6 33 19 87 322 339 249 71 59 42 60 50 112 128 203 215 0 0 0 0 0 0 56 228 376 607 617 486 538 789 989 344 169
18 11 4 0 0 1 2 8 8 26 138 346 493 434 332 338 211 240 548 409 330 193 140 505 0 0 0 0 0 0 0 5 316 395 652 809 838 940 1027 532 699 614
58 39 167 2 0 0 0 4 8 0 46 180 493 631 644 725 834 518 417 456 482 296 410 173 14 0 0 0 0 0 0 28 399 545 391 303 241 401 553 681 940 955
7 86 102 52 154 37 36 32 21 42 32 58 92 260 432 727 640 816 645 617 506 453 324 311 46 0 0 0 0 0 0 178 302 177 66 85 112 191 133 243 829 805
2 15 90 23 27 63 252 334 359 255 94 201 284 318 288 290 388 489 588 457 454 372 378 206 223 82 10 0 0 0 0 213 625 415 306 324 331 309 255 342 407 347
8 2 4 4 8 8 47 94 185 354 382 126 201 482 565 501 371 565 358 369 316 174 133 162 167 144 63 2 3 1 1 24 143 254 318 427 345 258 608 282 645 199
0 1 2 0 1 8 1 15 10 50 102 66 180 182 116 89 184 225 173 234 253 284 292 334 187 92 60 57 2 4 7 8 4 199 288 430 436 530 382 353 236 215

ECMWFNIL_con_mucape_084.txt.gz
CAPE
1003 874 905 883 1075 1270 1259 1151 1097 1243 974 913 978 932 885 974 957 873 875 901 758 688 775 885 782 646 654 401 226 295 393 986 1117 920 876 1526 1245 1187 1389 1227 1320 1130
1111 932 914 932 1049 1230 1544 1345 960 976 859 958 1043 1001 838 856 878 750 744 600 527 633 597 732 771 652 574 475 651 475 443 646 752 787 847 1099 1043 1246 1003 1456 1412 1272
932 952 1008 999 964 1092 1124 621 456 495 883 1011 1026 966 951 903 898 762 652 430 447 518 768 703 638 641 507 280 464 410 450 748 643 604 694 622 453 1409 1073 1465 1642 1319
938 901 953 909 1010 1043 637 486 548 528 704 854 923 827 810 757 786 726 604 516 347 525 649 544 459 333 116 180 471 422 410 408 396 612 422 577 850 1110 1183 1084 1330 1110
1190 1182 961 956 1049 998 817 862 736 685 832 785 666 661 592 737 627 460 479 286 250 299 364 424 333 420 120 97 395 281 644 273 258 449 549 564 694 1098 1413 1350 1176 1148
820 1045 778 736 738 548 384 388 512 613 649 603 609 505 689 618 508 376 265 125 123 238 373 254 150 17 77 165 196 204 145 244 306 138 105 252 186 512 632 1176 1154 1177
793 768 642 521 521 406 284 214 505 459 596 714 479 754 681 653 477 320 128 87 87 124 228 330 81 65 73 40 19 2 499 0 0 0 1 175 173 250 305 530 470 584
853 684 829 698 558 317 247 302 404 451 644 451 531 601 683 571 455 330 116 42 23 47 93 77 34 30 2 0 0 61 0 0 0 0 34 7 95 131 260 327 495 394
1303 770 508 526 413 412 444 254 499 572 488 583 557 593 586 572 402 210 80 30 8 11 5 4 8 24 10 58 24 1 0 0 85 229 79 156 131 65 40 188 404 500
941 902 1138 328 241 349 539 582 667 588 468 396 362 396 406 694 350 126 88 31 4 0 0 0 5 6 12 4 0 0 0 0 50 57 86 125 89 29 10 93 239 466
519 626 838 1004 739 746 785 729 762 615 446 316 536 601 496 280 203 184 63 6 3 0 0 0 0 0 2 0 1 0 1 6 0 7 73 141 251 51 188 106 189 200
386 580 682 661 1017 827 782 771 639 454 486 393 393 447 432 286 189 107 14 0 0 0 0 0 0 0 0 0 0 0 3 4 16 22 60 46 0 3 5 50 222 186
304 349 365 319 1051 674 692 575 493 315 222 163 263 398 414 315 199 118 34 0 0 0 0 0 0 0 0 0 0 0 0 14 12 20 40 0 17 19 33 58 36 102
574 437 254 366 770 704 476 452 499 334 252 141 211 315 328 217 127 53 30 7 0 0 0 0 0 0 0 0 0 1 10 0 26 41 4 0 111 118 38 73 204 99
506 508 549 752 862 817 538 389 377 510 320 223 315 243 185 197 185 50 20 3 0 2 0 5 140 164 11 2 131 25 52 70 42 121 87 67 131 187 102 38 156 164
532 445 472 611 751 652 405 327 316 300 319 186 211 90 93 156 163 55 6 8 0 4 54 180 21 0 0 0 0 36 148 316 380 193 349 304 283 436 319 389 358 315
530 446 450 473 363 315 386 256 256 452 154 83 115 51 91 87 195 74 20 42 0 60 167 150 0 0 0 0 0 0 94 572 316 333 338 503 411 232 465 247 292 165
538 518 413 375 304 154 58 144 250 302 238 262 310 119 209 90 92 76 14 111 79 256 216 1 0 0 0 0 0 33 98 139 724 503 756 164 229 310 200 212 180 126
425 394 331 284 216 131 72 38 35 42 114 258 179 92 298 222 111 238 67 90 245 165 94 0 0 0 0 0 0 66 209 176 232 579 444 666 429 228 121 111 123 143
227 239 201 268 161 107 70 11 0 0 0 6 62 291 269 272 257 261 313 275 278 70 0 0 0 0 0 0 0 0 0 26 152 364 799 404 251 189 110 58 173 300
0 0 100 19 29 27 34 0 33 9 2 4 190 400 251 143 192 371 352 255 137 20 0 0 0 0 0 0 0 0 0 2 227 498 535 708 365 363 247 290 244 485
5 3 0 0 6 13 20 17 14 30 44 176 426 355 356 370 402 320 178 198 144 13 7 54 5 0 0 0 0 0 0 9 297 473 524 411 424 435 478 654 642 377
47 160 21 0 0 0 5 7 15 35 144 274 247 195 247 373 471 553 499 200 108 44 20 0 0 0 0 0 0 0 0 94 440 353 224 268 272 361 334 264 416 512
20 15 46 44 1 1 36 104 58 9 54 65 97 116 200 416 456 293 214 157 137 114 98 12 0 0 0 0 0 0 0 0 70 200 323 402 300 430 498 359 316 284
3 7 24 29 34 26 38 38 118 153 100 165 156 238 326 337 238 234 152 94 88 104 84 79 92 106 68 0 0 0 0 0 3 15 201 318 278 265 419 376 322 130
1 11 7 1 2 13 7 44 165 186 279 193 214 257 277 363 295 174 144 170 196 147 132 101 99 92 74 64 10 2 4 5 4 118 95 156 179 179 144 160 278 172

ECMWFNIL_con_mucape_087.txt.gz
CAPE
652 755 843 874 807 780 987 1115 1034 816 761 723 676 534 488 394 357 424 566 536 397 155 109 52 374 406 585 755 690 801 784 899 1000 1102 1125 1069 1124 1002 936 936 806 794
872 963 794 831 868 1030 1059 917 958 814 659 612 753 714 556 493 477 499 400 252 323 314 155 140 66 144 156 182 518 633 601 673 786 852 941 967 1126 1090 884 766 802 759
923 817 922 912 1064 1205 1109 990 845 712 704 604 614 598 521 586 440 332 253 255 112 116 135 141 93 46 54 57 408 501 622 696 666 674 911 922 809 938 1129 1158 995 871
829 826 830 1067 1155 1146 1019 860 652 525 716 685 524 525 578 476 300 280 248 264 97 254 238 107 120 164 56 56 20 207 558 594 569 702 718 698 719 812 877 1192 1131 980
883 890 926 909 993 1008 1052 731 444 417 678 606 534 539 440 317 228 216 6 31 214 279 282 231 110 26 7 30 19 134 421 461 573 582 486 657 710 750 739 952 1122 882
812 1075 960 807 809 770 734 519 382 542 394 372 352 360 354 253 175 4 1 20 212 188 136 102 2 0 15 7 10 4 2 14 135 400 516 713 793 945 1101 959 1019 799
968 979 851 776 743 596 552 428 455 418 385 367 338 312 176 45 110 43 0 4 144 122 62 0 0 15 2 0 0 0 2 2 53 320 496 773 860 854 882 876 852 754
1043 849 762 743 625 433 374 313 318 313 320 304 240 161 261 110 101 75 4 6 118 138 20 4 7 0 0 0 0 0 0 0 0 13 15 162 561 645 711 710 657 703
877 748 640 655 434 382 334 311 302 279 227 250 301 227 335 142 112 14 2 2 104 94 16 9 2 0 0 0 0 0 0 12 0 0 0 155 287 336 429 538 646 674
803 676 606 529 395 345 312 341 258 180 54 307 251 308 320 167 72 4 0 0 72 75 0 3 1 1 0 0 0 0 0 0 0 0 2 1 0 217 330 561 691 661
738 680 602 477 298 300 326 357 135 46 36 261 274 284 232 169 15 0 0 0 0 0 0 0 0 0 0 0 0 0 0 0 0 0 2 4 0 237 310 394 440 438
501 506 508 325 211 245 334 297 89 280 210 180 218 238 221 141 14 0 0 0 0 0 0 0 0 0 0 0 0 0 0 0 0 0 0 0 0 5 20 256 311 148
456 418 367 272 288 364 357 178 30 126 128 172 227 208 168 65 10 0 0 0 0 0 0 0 0 0 0 0 0 0 0 0 0 0 0 0 0 0 0 0 0 0
387 355 352 493 349 210 186 130 154 10 85 233 238 187 155 16 1 0 0 0 0 0 0 0 0 0 0 0 0 0 0 0 0 0 0 0 0 0 0 0 0 0
344 282 297 408 238 199 202 197 71 1 0 179 152 111 15 6 1 0 0 0 0 0 0 0 0 0 0 0 0 0 0 0 0 0 0 0 0 0 0 0 0 0
307 253 229 217 224 248 245 68 20 1 1 142 126 74 9 4 0 0 0 0 0 0 0 0 0 0 0 0 0 11 27 26 12 9 3 0 0 0 3 52 86 52
213 286 224 199 226 183 13 2 8 2 0 0 0 0 6 0 0 0 0 0 0 0 0 0 0 0 12 170 189 170 164 87 15 0 0 0 0 0 4 115 118 95
273 308 188 159 146 156 112 8 40 14 7 8 10 17 0 0 0 0 0 0 0 0 0 0 0 124 153 158 194 216 221 224 191 104 1 146 179 156 156 178 151 124
312 245 135 117 156 151 105 57 0 1 10 15 11 5 6 9 5 0 0 0 0 0 0 0 0 0 161 182 182 182 212 232 226 215 198 158 144 167 54 126 84 9
448 374 1 119 125 104 50 21 0 0 0 3 7 8 11 8 0 0 0 0 0 0 0 0 0 0 0 136 218 199 185 214 245 242 220 170 153 118 72 73 106 92
480 390 277 109 118 87 59 49 0 0 0 0 8 8 2 0 0 0 0 0 0 0 30 5 42 40 16 0 108 205 194 127 189 276 123 126 191 154 91 129 184 176
284 392 318 244 159 100 61 29 31 10 6 0 0 0 0 0 0 0 0 0 0 0 12 42 13 7 18 40 39 50 100 11 0 94 226 237 222 116 132 218 254 258
0 3 152 178 161 136 86 30 44 40 22 0 14 56 79 66 31 30 40 23 0 0 0 19 0 0 0 0 4 24 40 2 173 174 170 182 182 220 275 325 369 497
7 4 0 0 12 37 57 18 31 30 15 23 91 103 81 60 45 18 18 28 45 42 12 78 49 22 0 0 0 0 0 0 21 151 180 188 174 170 167 229 301 325
2 4 6 8 1 7 12 11 6 32 53 115 148 112 79 67 39 4 33 3 4 5 8 5 33 22 36 22 0 0 0 0 37 105 135 140 176 217 241 211 175 34
0 2 6 4 1 8 23 32 51 85 116 161 171 138 85 47 55 71 26 4 3 8 9 5 8 25 64 70 68 24 34 44 76 102 127 142 115 117 122 137 123 106

ECMWFNIL_con_mucape_090.txt.gz
CAPE
800 746 767 772 809 691 688 846 906 807 780 809 838 866 801 587 520 532 651 691 665 602 558 624 586 910 929 811 869 846 881 818 889 907 922 817 741 650 680 753 674 622
716 775 923 839 905 749 586 655 863 875 779 674 703 766 606 442 449 552 586 605 523 477 470 570 560 986 1005 936 952 873 926 976 858 1005 1064 936 934 826 776 747 642 520
788 767 860 879 848 730 697 567 722 834 822 673 705 620 419 469 492 475 424 484 468 370 393 563 585 900 981 979 1000 925 890 955 992 1087 1110 991 942 904 868 794 736 620
691 716 874 877 773 809 686 804 763 765 750 755 683 517 422 468 498 549 563 581 452 290 415 552 466 582 772 866 952 928 845 937 1030 1062 953 958 971 918 854 780 573 626
669 687 716 808 725 668 872 1078 1034 862 730 620 522 500 473 498 530 558 563 439 281 276 263 396 429 445 523 616 684 679 706 791 825 796 765 806 937 908 765 727 623 793
772 734 747 754 711 960 956 944 866 610 605 568 555 537 569 569 491 405 343 317 282 294 261 240 244 252 310 487 547 602 685 698 671 704 724 693 671 810 897 924 718 842
865 849 822 821 853 1086 875 784 569 465 538 685 606 576 542 447 424 374 339 315 335 319 307 293 270 240 287 332 381 519 533 521 596 620 627 669 644 727 850 958 759 819
803 782 802 786 1017 1058 831 576 406 320 374 352 489 510 522 424 414 326 214 331 350 311 298 309 238 190 204 199 302 387 402 418 454 483 679 655 664 730 717 792 741 685
775 897 826 984 902 966 865 433 342 416 455 460 341 424 387 390 227 212 246 316 327 268 240 245 157 185 193 223 260 225 205 283 364 456 700 769 754 766 772 791 740 654
697 841 763 710 836 805 687 356 295 436 406 319 303 240 10 210 158 163 152 275 278 199 171 108 118 176 167 0 0 0 23 103 205 383 587 642 799 765 761 683 566 536
715 720 633 695 688 566 471 180 172 366 226 282 258 233 170 132 140 90 143 185 197 156 112 70 87 72 0 0 0 0 0 0 0 240 260 465 526 648 705 678 576 572
689 673 703 678 556 476 398 274 281 173 135 220 265 179 163 143 0 73 137 155 161 136 84 56 54 11 0 0 0 0 0 0 0 0 191 274 294 380 533 616 558 447
619 582 621 523 337 260 179 74 56 125 164 218 298 270 208 104 0 17 120 170 142 90 58 0 0 0 0 0 0 0 0 0 0 0 0 180 277 357 512 553 482 345
684 648 522 293 281 247 56 86 141 198 274 282 291 289 234 0 0 0 42 110 78 2 0 0 0 0 0 0 0 0 0 0 0 0 164 225 242 322 353 264 136 0
501 639 574 240 172 200 241 222 229 237 290 311 264 266 146 0 0 0 0 8 0 0 0 0 0 0 0 0 0 0 0 0 0 94 62 0 99 242 243 189 0 0
367 538 506 270 234 295 296 202 202 100 0 83 207 194 0 0 0 0 0 0 0 0 0 0 0 0 0 0 0 0 0 0 0 0 0 0 0 43 87 66 0 0
166 289 283 224 207 130 224 42 0 67 92 238 206 134 0 0 0 0 0 0 0 0 0 0 0 0 0 0 0 0 0 0 0 0 0 0 0 0 0 0 0 0
186 200 275 202 152 96 54 4 26 186 232 233 168 59 0 0 0 0 0 0 0 0 0 0 0 0 0 39 88 97 88 44 0 0 0 0 0 0 0 0 0 0
186 168 137 81 70 63 19 4 135 149 176 153 81 40 0 0 0 0 0 0 0 3 4 6 18 134 146 140 138 142 146 155 157 150 144 139 31 0 0 0 0 8
77 127 119 110 46 43 11 0 0 150 138 118 64 44 0 0 0 0 0 0 79 119 151 166 174 174 177 183 187 184 178 164 164 180 187 204 199 107 74 0 52 43
205 97 121 120 96 53 0 5 0 0 98 114 61 35 0 0 0 0 0 0 45 134 176 184 187 193 197 192 193 196 189 186 181 168 148 161 160 165 166 144 28 31
188 184 127 78 115 44 14 28 16 0 0 0 0 0 0 0 0 0 0 0 0 28 115 166 195 210 204 198 211 192 222 200 180 169 146 135 118 120 157 184 220 257
33 106 53 63 37 67 16 5 27 13 0 0 8 10 22 7 10 5 12 45 51 54 54 55 75 118 177 221 242 237 223 195 151 124 199 208 202 206 221 259 314 356
47 25 61 63 36 31 14 6 9 0 17 2 10 30 47 52 54 53 49 39 0 9 33 0 0 0 0 15 74 127 147 128 108 153 162 170 187 199 221 276 399 436
43 59 14 22 37 48 23 17 17 10 0 12 14 39 47 62 72 76 76 69 69 74 66 60 19 0 0 0 0 20 48 130 139 163 173 174 186 184 195 198 208 229
6 7 2 22 18 2 24 19 18 19 29 25 28 35 39 45 58 61 66 69 46 7 68 71 56 0 0 0 0 0 5 36 136 164 168 176 180 162 160 144 142 125

ECMWFNIL_con_mucape_093.txt.gz
CAPE
1155 1128 1062 968 732 750 763 723 669 637 616 606 631 738 742 753 680 559 551 596 769 901 908 766 781 853 836 544 491 560 428 454 397 485 433 432 564 552 536 588 523 478
1145 1151 1122 1043 870 800 850 737 746 665 633 669 711 795 791 798 747 641 567 603 631 842 860 794 824 939 808 610 627 634 457 238 483 582 520 374 466 459 476 536 615 644
1132 1182 1162 1026 892 860 856 852 773 710 683 780 849 845 853 857 834 699 595 685 706 670 696 671 775 860 812 703 697 667 538 513 644 634 552 573 654 574 541 497 662 620
1107 1111 1079 939 870 934 928 926 800 747 686 778 850 857 827 838 807 585 526 616 658 551 608 521 638 634 689 795 697 653 694 694 692 771 791 774 740 726 658 578 644 569
1057 1051 968 918 789 842 932 904 801 667 651 725 770 812 828 868 730 442 466 572 600 478 439 439 472 415 694 843 720 724 705 747 684 816 863 834 834 840 773 726 686 646
1070 1020 888 837 773 818 860 840 745 651 737 796 807 778 720 651 451 465 529 526 433 350 284 327 413 421 747 826 789 794 772 754 795 852 922 874 852 836 824 765 688 519
1015 946 807 710 731 779 875 810 650 581 718 765 746 727 623 456 482 467 461 424 396 194 268 317 434 441 595 658 728 807 746 719 807 870 809 704 819 840 816 722 615 514
917 676 715 643 669 741 797 645 530 604 536 754 768 597 382 452 476 521 502 515 240 217 279 377 403 363 418 462 557 560 541 604 669 617 573 562 613 695 735 709 548 612
358 401 631 684 661 648 652 709 535 722 757 756 636 490 432 373 362 355 512 358 266 235 217 240 343 343 293 295 415 428 471 464 505 518 548 566 536 600 747 810 722 657
460 475 495 654 664 606 606 688 844 771 748 618 541 530 505 401 346 370 318 325 290 218 198 26 0 0 138 288 296 373 323 333 379 428 550 568 558 596 651 721 664 609
478 479 465 539 602 521 631 735 830 673 630 522 633 576 540 408 355 316 336 252 223 206 203 206 178 141 170 158 221 280 243 264 274 344 552 576 577 595 641 646 609 544
438 395 498 618 491 480 497 665 723 640 527 587 655 612 496 388 245 226 0 220 223 207 162 167 122 135 140 159 201 189 89 140 179 198 393 548 670 640 661 571 534 501
525 480 527 518 509 551 521 586 607 498 408 555 601 585 378 182 55 0 75 210 226 160 118 102 110 140 164 188 158 0 0 26 36 41 230 354 519 621 625 589 404 389
473 564 560 569 545 540 421 386 316 286 455 517 428 292 117 137 0 0 0 162 212 123 97 70 105 124 30 0 0 0 0 0 0 0 0 278 366 468 435 493 402 361
406 382 521 565 559 412 282 262 330 536 357 302 127 118 111 0 0 0 0 164 164 107 86 60 72 36 0 0 0 0 0 0 0 0 110 193 252 369 483 446 284 194
364 442 445 552 474 289 150 130 200 204 173 218 116 123 102 0 0 0 64 137 145 85 72 56 46 0 0 0 0 0 0 0 0 0 84 163 248 330 362 228 155 50
389 452 483 418 282 150 47 42 171 105 145 90 0 126 109 0 0 0 0 106 41 94 70 44 0 0 0 0 0 0 0 0 0 0 48 175 228 264 212 81 81 4
360 444 384 212 173 103 97 127 22 58 95 113 37 104 0 0 0 0 0 32 0 19 25 7 0 0 0 0 0 0 0 0 0 134 133 137 181 179 121 0 0 0
291 301 474 314 178 106 168 182 70 58 70 151 101 0 0 0 0 0 0 0 0 0 0 0 0 0 0 0 0 0 0 0 0 0 0 98 95 94 35 0 0 0
215 161 360 415 276 214 258 124 117 88 122 156 15 0 0 0 0 0 0 0 0 0 0 0 0 0 0 0 0 0 0 0 0 0 0 43 63 64 0 0 0 0
68 194 212 250 254 222 186 68 4 72 136 144 65 0 0 0 0 0 0 0 0 0 0 0 0 0 0 0 0 0 0 0 0 0 0 0 0 70 79 19 107 106
78 100 171 188 59 54 107 34 70 129 169 134 126 0 0 0 0 0 0 0 0 0 0 0 0 0 0 0 0 0 0 0 0 0 0 0 0 0 0 0 0 0
43 100 67 33 62 39 20 35 69 59 0 112 32 0 0 0 0 0 0 0 0 0 0 0 76 87 100 106 115 125 125 132 152 157 47 59 156 93 130 193 210 161
20 65 90 110 83 80 29 30 41 41 56 0 0 0 0 0 0 0 0 0 43 74 103 116 142 147 152 143 136 135 140 78 0 27 16 157 138 116 173 199 205 254
14 13 16 57 54 62 34 7 40 27 89 7 17 0 0 0 0 8 48 72 88 105 135 154 164 182 188 196 180 158 145 134 0 0 0 99 149 160 176 175 203 230
4 24 18 18 17 28 31 14 5 28 65 4 0 0 0 2 14 37 68 86 110 149 161 181 208 226 241 244 217 178 180 0 0 0 0 4 4 18 150 152 176 157

ECMWFNIL_con_mucape_096.txt.gz
CAPE
1120 1027 998 960 925 833 684 568 619 564 504 554 546 526 544 555 668 691 627 586 538 512 582 617 573 511 656 678 542 424 435 524 618 639 586 535 500 460 549 549 428 377
1052 1046 1039 1019 981 891 857 801 628 543 489 542 604 622 607 543 638 671 647 595 602 675 742 768 623 575 710 736 667 536 452 466 494 536 482 403 414 485 614 577 468 466
788 850 959 1019 1039 1019 995 858 729 586 519 441 593 586 598 551 660 671 638 614 649 715 852 862 762 617 674 731 741 586 536 497 460 460 452 448 424 517 591 542 562 547
678 716 812 937 976 973 889 804 653 616 608 446 491 483 436 579 712 716 665 574 541 588 729 829 852 749 743 869 762 563 606 531 463 440 485 492 434 464 490 496 511 610
519 565 664 777 847 845 798 759 692 584 672 580 530 458 488 660 744 776 730 680 588 560 582 714 794 793 783 857 766 636 644 588 480 469 581 558 526 585 561 546 512 620
334 346 501 664 778 718 763 676 707 693 641 605 572 538 597 708 785 818 817 739 606 610 677 655 674 700 731 798 745 701 683 600 632 650 673 678 711 715 712 660 601 621
18 270 522 550 682 740 414 514 730 688 678 743 632 604 718 814 816 805 819 692 520 568 647 568 586 592 628 569 708 736 656 662 695 652 736 760 753 789 802 772 692 686
272 430 540 475 471 467 32 354 603 715 773 730 653 570 752 843 830 820 807 553 466 575 584 486 497 491 430 540 794 754 730 738 734 690 784 821 803 793 815 792 744 639
603 706 579 358 228 141 170 134 332 613 714 739 647 688 801 828 778 720 558 479 527 495 347 308 351 385 405 604 766 736 768 765 727 781 833 805 752 799 781 763 725 537
568 613 536 492 410 482 358 320 373 505 608 657 666 738 800 743 694 517 480 488 405 293 151 0 0 368 401 478 539 568 590 584 626 746 747 606 624 699 692 644 480 512
517 562 527 451 436 516 433 236 305 454 594 600 607 684 771 740 557 458 430 358 276 237 203 217 346 334 316 341 362 387 396 452 495 517 509 514 552 588 694 696 655 568
445 430 415 410 408 490 487 378 578 587 588 682 742 748 779 623 488 383 368 353 260 230 209 0 0 258 292 256 272 316 344 332 372 391 503 530 529 577 657 690 651 557
510 487 444 408 416 532 633 561 697 727 689 778 813 770 648 528 448 297 347 339 298 283 218 0 0 0 0 0 231 258 271 266 259 332 544 557 562 585 618 631 597 525
357 481 494 422 469 540 519 568 686 765 652 729 744 588 491 450 346 366 366 313 309 102 0 0 0 0 0 0 0 44 215 186 186 239 455 600 614 599 592 516 458 446
15 350 485 517 520 475 441 471 566 734 665 595 566 477 385 261 336 363 217 168 0 0 134 147 150 137 143 143 157 191 173 120 122 140 247 402 573 614 567 421 380 327
62 101 344 469 590 586 524 439 572 695 719 560 513 520 451 320 313 184 196 0 0 142 134 112 121 138 145 165 182 170 75 0 48 69 156 292 462 445 425 377 293 155
2 196 290 390 478 538 520 468 455 603 629 413 388 606 446 201 102 172 165 0 0 57 105 108 102 128 157 86 5 0 0 0 0 47 158 252 379 430 298 213 154 0
2 214 285 406 476 527 458 281 309 255 290 322 393 373 197 88 96 102 12 0 0 81 79 80 92 120 63 0 0 0 0 0 0 0 150 260 346 323 193 179 60 0
12 9 284 294 327 332 177 152 165 222 287 286 153 102 47 113 55 0 0 0 0 0 15 42 51 56 35 0 0 0 0 0 0 0 124 193 265 216 0 108 89 0
130 34 233 199 168 141 86 66 60 143 102 58 92 47 17 7 0 0 0 0 70 75 34 21 41 44 17 0 0 0 0 15 0 0 0 114 194 154 62 0 0 0
59 125 169 232 213 130 67 77 70 141 75 84 82 61 0 0 0 0 0 0 0 0 65 64 53 47 0 0 0 0 0 0 95 29 0 0 0 0 0 0 0 0
8 75 181 155 216 152 107 144 102 77 70 84 74 35 0 0 0 0 0 0 0 0 6 49 53 0 0 0 0 0 0 50 121 41 0 0 0 0 0 0 0 0
17 27 119 104 103 140 135 190 155 51 37 42 53 9 16 35 0 0 0 0 0 0 0 0 0 0 0 0 0 0 81 107 86 0 0 0 0 0 0 0 0 0
3 18 47 25 31 8 12 48 102 41 66 9 49 0 43 5 0 0 0 0 0 0 0 0 0 0 0 0 0 0 0 9 0 0 0 63 0 0 0 0 0 0
4 4 10 28 38 19 10 10 9 21 15 4 34 28 42 0 0 0 0 0 0 0 0 0 0 0 0 0 0 0 0 0 0 0 0 0 0 0 91 91 79 114
1 0 13 11 21 38 39 20 22 9 10 12 2 24 36 0 0 0 0 0 0 0 0 0 0 0 0 50 53 59 60 42 0 0 0 0 102 65 1 58 96 32

ECMWFNIL_con_mucape_099.txt.gz
CAPE
1023 1017 994 962 1105 1014 850 1108 937 948 740 733 661 626 547 589 601 655 720 697 612 685 811 930 968 910 738 642 720 702 550 928 904 920 870 901 1012 508 637 974 1099 1013
1098 1107 1050 945 989 874 805 668 828 878 750 943 671 610 638 721 663 735 828 754 622 772 810 811 840 798 759 767 731 790 783 927 1005 619 813 856 754 539 703 850 1006 1099
837 757 749 861 875 804 683 625 784 806 774 731 691 623 649 640 626 733 805 744 798 807 858 770 808 764 648 792 740 899 876 762 944 772 842 813 925 642 566 1021 1194 1097
862 726 571 631 668 590 539 240 325 403 443 496 602 526 503 555 607 674 781 742 810 804 599 728 794 670 667 894 972 982 925 889 810 690 737 855 890 900 986 1113 1090 1073
722 596 481 580 709 507 329 206 416 407 470 488 483 462 581 592 653 634 740 750 692 647 565 690 860 677 644 589 849 1102 897 884 755 642 750 755 825 872 907 1005 1118 1149
931 763 615 536 416 392 424 455 533 408 517 551 566 553 553 623 640 674 689 756 699 584 571 812 624 706 717 614 710 934 778 872 748 752 830 1025 866 785 736 801 1028 1217
424 362 329 278 189 283 437 519 525 470 504 616 674 668 564 607 580 662 745 760 733 660 671 790 580 648 688 629 681 578 585 929 920 921 929 1108 969 723 634 706 546 904
295 346 411 342 407 586 389 17 333 361 510 692 707 706 626 534 537 665 751 787 831 626 683 679 625 646 711 720 685 706 736 1186 1201 1157 1219 1192 1188 912 672 512 530 696
331 418 593 597 586 424 252 32 240 325 480 612 771 766 669 574 610 664 763 869 856 748 605 625 776 810 671 722 900 885 1140 1103 1233 1299 1376 1311 1306 1346 874 754 881 887
399 452 559 530 622 575 354 318 316 344 324 589 773 811 719 614 732 879 862 895 864 749 576 720 707 739 820 1012 1159 1302 1261 1210 1220 1415 1463 1405 1402 1354 1140 1104 1224 1102
427 475 531 549 541 502 470 382 278 336 321 506 712 787 715 645 772 860 886 857 771 551 528 587 646 786 934 1018 1156 1319 1321 1299 1198 1298 1436 1466 1469 1267 1156 1213 1128 1120
432 482 473 431 426 440 472 469 313 332 361 464 624 726 701 728 831 814 744 612 505 500 522 390 420 698 925 954 993 1084 1123 1194 1144 1202 1270 1331 1370 1354 1226 1254 1216 1179
347 472 511 483 420 372 398 456 304 262 360 495 608 682 735 773 812 751 539 477 462 354 224 286 341 601 911 890 773 798 882 917 984 1101 1110 1103 1106 1160 1179 1192 1173 1088
183 314 406 472 396 344 449 541 427 411 543 583 633 614 677 724 765 622 486 422 258 228 146 192 288 417 544 506 488 612 737 857 940 973 923 913 954 967 1092 1133 1096 1031
42 52 277 354 416 326 422 579 543 581 658 631 612 666 692 768 644 487 414 314 212 93 83 107 264 306 313 292 368 499 664 772 854 836 874 767 570 590 638 678 584 504
27 38 65 329 358 361 367 344 463 527 602 665 622 574 695 622 549 314 288 225 210 192 176 137 143 162 230 186 222 351 454 531 663 733 562 588 592 613 585 556 534 416
10 2 1 230 271 257 306 257 281 401 526 592 548 510 469 485 451 242 185 165 131 151 143 146 13 143 140 141 162 185 254 360 502 516 452 538 625 568 407 435 416 329
1 6 30 42 102 89 167 208 243 79 138 301 398 437 368 296 275 262 147 111 113 126 141 153 140 120 127 129 132 154 148 353 446 432 403 475 508 348 434 380 259 210
1 1 33 74 60 31 111 201 189 181 136 211 408 397 381 245 168 214 136 106 82 102 114 86 81 119 114 136 154 166 137 194 339 339 294 373 420 418 354 228 113 62
1 10 66 57 31 19 44 68 66 79 165 265 306 269 425 305 72 58 97 91 76 87 70 22 3 102 91 14 0 0 0 71 274 251 284 382 377 211 165 139 194 74
1 1 31 34 40 51 61 40 56 50 104 193 233 322 341 8 73 78 38 51 80 35 0 5 65 109 52 14 0 0 0 22 162 201 286 342 284 136 142 209 257 259
0 1 2 6 1 22 52 41 43 50 61 30 73 132 44 40 39 24 33 77 82 47 28 40 44 47 35 0 0 0 0 81 124 176 229 250 232 115 22 28 69 126
0 0 1 1 0 3 29 78 61 64 42 15 29 38 18 31 20 31 53 81 53 14 45 25 36 29 9 10 0 0 43 81 109 138 161 176 154 0 0 0 0 29
0 0 0 1 6 0 0 14 44 55 23 27 24 34 29 38 41 37 50 62 69 0 7 56 52 61 58 26 0 0 27 84 102 129 127 130 110 36 0 0 0 0
0 0 0 0 6 8 1 6 18 25 7 5 4 6 27 47 46 32 0 10 26 0 0 17 43 67 50 0 0 0 47 67 109 130 107 124 94 52 0 0 0 0
0 0 0 0 0 1 13 16 0 0 10 22 6 16 28 32 34 20 0 0 0 0 0 0 1 0 0 0 0 71 103 125 136 132 84 93 98 99 92 65 0 0

ECMWFNIL_con_mucape_102.txt.gz
CAPE
1674 1603 1594 1654 1618 1641 1878 1404 1503 1978 1984 1364 1172 1114 986 1014 906 1008 622 726 748 600 819 1279 1057 456 454 645 725 622 650 746 405 654 452 956 547 665 1012 999 827 523
1546 1587 1566 1544 1543 1585 1736 1340 1504 1498 1601 1470 1195 1193 1052 861 871 895 799 915 566 698 1195 1397 583 489 516 515 674 696 798 988 467 425 374 611 603 1247 1060 1010 1255 1119
1450 1425 1269 1233 1283 1426 1466 1172 1205 1335 1442 1570 1412 1190 1053 919 897 909 965 717 582 580 690 771 587 658 1058 652 605 1118 613 438 337 402 534 528 998 1014 1113 1099 686 640
1258 1238 1205 1241 1443 1314 1113 1144 1178 1068 1359 1631 1624 1420 1010 825 996 1080 988 975 974 891 743 1368 1375 1166 1032 536 951 413 450 538 532 629 553 539 611 982 987 938 1004 1115
1196 1270 1300 1240 1284 1291 1355 1276 1330 1220 1254 1449 1407 1240 1067 915 909 876 1036 1212 901 734 829 677 990 1192 1170 955 1085 701 612 538 335 499 635 932 679 1000 1048 929 285 600
1098 922 933 711 1081 1396 1692 971 1201 1192 940 937 1123 955 1050 973 783 804 970 1218 998 752 701 749 1140 760 983 900 842 451 309 379 714 767 790 624 586 316 722 720 894 871
881 1029 1040 1160 1177 1292 1332 1020 932 875 920 840 838 987 921 853 592 725 911 877 813 613 806 609 512 715 744 698 943 1210 686 696 890 794 534 1027 926 454 724 835 1039 593
847 1050 1152 1003 918 1040 1126 967 914 985 1014 736 935 1000 884 744 724 735 922 1013 1197 1113 570 668 514 779 548 537 779 1126 1186 1359 1308 775 597 648 860 757 1025 865 888 714
882 906 901 984 1062 913 552 832 863 918 929 908 953 1064 984 744 887 875 912 1082 1162 1078 1106 754 697 740 490 356 712 943 1025 1170 1044 919 457 571 802 730 775 775 954 883
510 709 654 584 934 599 667 909 821 814 784 868 939 1004 754 979 1021 1016 996 892 1205 1023 866 832 823 870 473 594 730 885 1056 1182 885 574 370 489 690 749 679 890 1183 1030
512 606 636 683 498 593 580 772 684 668 690 785 1011 1020 1006 983 904 1019 1026 1079 890 893 1035 767 681 798 737 641 797 822 1039 1216 1168 646 496 1011 798 640 926 1092 1123 1080
332 389 464 550 546 527 619 532 483 700 716 585 655 821 825 875 900 950 998 1210 993 812 870 950 826 711 516 776 651 575 748 715 674 416 349 524 1084 1106 1062 1167 1221 1166
188 255 395 411 466 530 744 555 533 510 575 602 510 682 899 862 798 944 993 1251 786 731 635 621 760 1056 478 603 628 741 676 660 592 586 780 1074 1325 1193 1165 1189 1263 1107
88 133 204 315 495 514 445 558 471 470 462 609 595 480 719 554 587 1084 737 704 774 955 688 864 950 664 672 565 581 662 734 587 754 1392 1196 1321 1500 1297 1298 1330 1210 1239
57 158 166 171 274 336 329 276 410 564 583 551 550 674 441 340 619 447 925 736 634 585 770 888 873 776 398 388 438 386 740 1275 1572 1230 1410 1578 1591 1463 1484 1329 1058 1006
23 69 175 232 244 292 276 272 250 269 311 357 411 462 666 505 406 460 574 502 442 436 723 714 527 723 581 619 316 545 967 1319 1403 1589 1604 1641 1568 1634 1624 1463 1386 1415
11 54 144 240 278 49 298 279 248 230 174 272 375 432 551 425 410 502 378 366 349 281 488 746 695 496 240 533 571 379 452 820 1231 1499 1514 1561 1625 1658 1625 1526 1274 646
12 27 159 183 30 20 20 18 193 105 99 96 139 183 161 233 379 390 353 391 301 219 345 441 793 296 122 260 446 550 490 484 592 886 1312 1347 1348 1353 1313 953 660 543
2 14 79 32 22 66 86 11 68 108 92 58 58 154 143 130 247 361 322 271 159 100 164 216 315 144 200 214 256 370 509 441 274 396 455 561 788 644 960 857 673 586
2 3 3 3 2 55 49 23 29 31 73 114 143 166 148 188 365 302 269 229 115 50 70 24 0 114 115 76 150 193 303 370 263 419 456 502 596 735 950 929 791 694
2 4 4 4 2 10 37 48 26 35 26 66 111 140 196 218 208 226 143 34 43 31 24 24 47 110 130 119 115 135 157 290 399 541 476 526 684 926 892 765 679 496
2 4 5 5 3 1 46 31 38 24 12 4 14 70 95 158 138 75 20 23 18 10 39 62 68 78 109 107 86 83 123 573 942 903 825 717 610 740 618 606 405 331
2 3 4 4 4 2 1 0 2 20 22 9 2 10 29 49 53 32 9 22 22 15 20 28 2 75 74 0 0 2 207 520 850 737 746 553 363 314 334 307 328 437
0 2 3 3 4 3 2 1 1 7 2 2 0 4 9 11 27 44 30 11 34 23 27 13 1 31 48 0 0 0 332 816 644 651 553 367 230 124 94 23 137 229
0 1 2 4 3 2 3 2 2 1 1 3 6 28 36 32 33 50 51 63 52 39 28 31 27 51 65 46 0 105 464 565 368 324 204 198 190 91 16 61 40 53
1 0 3 5 5 4 2 2 2 1 1 11 13 17 14 14 17 29 45 66 64 64 27 6 23 47 69 81 30 36 93 380 186 157 68 46 142 134 61 54 2 10

ECMWFNIL_con_mucape_105.txt.gz
CAPE
1748 1610 1639 1476 1707 1239 1183 1402 1615 1776 1642 1684 1553 1310 1208 1315 1438 1512 1319 1258 1252 1343 938 903 688 655 726 951 476 517 383 609 837 334 378 417 596 1017 1388 1628 1121 647
1468 1392 1438 1452 1455 1694 1710 1899 1795 1621 1630 1549 1257 1451 1524 1308 1254 1297 1254 1181 1003 766 826 809 713 745 782 822 748 538 519 1123 675 983 832 466 542 473 976 928 649 454
1249 1330 1321 1363 1322 1471 1784 1782 1872 1640 1258 1635 1304 1147 1102 1000 1474 1258 1279 1154 1086 1271 1075 1006 674 856 929 857 723 759 1166 1152 1236 1139 1118 964 889 954 524 649 479 456
1224 1265 1300 1248 1302 1323 1522 1507 1434 1058 1202 1508 1294 1136 938 919 1430 1184 1211 1109 912 1198 1060 1129 1267 1059 818 761 793 882 800 653 930 680 658 586 793 648 434 407 467 342
1156 1241 1215 1254 1300 1137 1212 1296 1149 1121 1282 1014 819 859 964 1160 855 1248 1217 1119 958 1334 902 748 845 1011 636 714 663 691 629 692 592 547 512 529 591 449 430 309 369 392
1273 1074 911 1030 1057 1060 1159 1178 1100 812 828 807 743 740 949 771 1264 876 876 875 1244 814 877 1051 824 665 512 551 496 575 648 618 633 586 539 592 688 503 374 283 341 554
1180 1131 1066 1067 1041 1194 1117 1052 806 668 684 714 611 598 530 928 1151 938 823 1139 1142 779 859 1004 715 778 432 471 314 309 661 528 570 525 556 514 338 740 456 406 562 274
947 1044 1045 1043 1145 1711 1464 900 747 708 357 507 780 480 604 1144 985 992 1014 1071 1178 1027 727 544 912 638 395 451 181 316 678 722 622 663 480 445 444 495 426 539 464 380
664 781 882 863 964 1192 1183 964 800 853 763 567 626 538 466 942 1004 909 878 572 481 841 689 738 601 472 933 530 416 585 722 711 666 760 605 506 423 484 360 503 446 842
694 686 705 834 837 897 852 799 820 626 314 255 562 661 528 517 1046 547 702 530 578 1106 1155 874 1008 645 555 725 681 789 540 462 488 379 389 264 292 449 394 601 756 822
360 480 583 678 746 867 774 793 794 608 509 420 751 539 544 952 732 940 812 480 464 600 866 546 692 315 483 419 657 632 781 597 258 366 357 423 454 431 657 330 412 504
224 310 425 570 656 677 701 793 925 774 599 670 531 418 685 574 579 630 577 461 631 657 656 730 363 483 443 400 362 491 502 534 172 350 577 392 700 776 381 467 805 404
74 168 239 361 481 497 618 632 789 886 646 474 678 368 364 556 300 404 714 706 460 582 599 513 601 978 1126 1170 1112 712 457 357 250 508 608 846 882 736 668 674 372 298
77 141 178 263 364 475 504 517 472 490 752 498 319 309 315 322 512 560 572 610 557 431 459 585 807 1074 977 1132 1250 1018 1085 882 674 818 911 928 635 619 447 348 363 676
41 150 229 334 415 390 394 499 506 572 688 720 530 525 392 294 263 374 511 464 424 460 491 518 662 818 646 869 1026 799 1396 1096 926 805 1116 735 519 369 328 213 264 801
29 119 172 257 352 308 338 261 246 394 537 530 541 425 351 375 410 379 400 369 349 454 522 684 643 690 656 691 823 824 864 874 578 749 665 485 296 558 500 234 844 670
16 67 79 94 229 253 276 237 194 149 301 483 523 425 212 295 272 358 284 347 371 332 316 404 458 442 387 476 423 225 377 487 647 559 474 275 314 213 205 370 693 414
6 20 30 33 82 88 97 63 50 26 46 57 67 241 177 100 196 201 134 194 291 374 424 588 536 528 375 332 193 199 200 466 356 291 151 159 273 303 420 761 938 843
6 8 8 10 6 7 7 6 6 4 4 13 24 25 26 69 204 131 122 140 227 281 293 331 402 438 474 395 292 203 176 168 231 234 224 224 626 473 816 1086 724 492
7 8 10 8 5 4 4 2 3 3 5 6 16 56 53 60 52 66 90 107 136 154 138 221 215 323 434 333 352 314 254 138 103 227 273 444 365 549 901 649 504 865
6 8 8 7 5 3 3 2 2 2 3 4 3 10 60 67 50 88 89 67 84 111 50 100 41 57 58 154 197 309 270 7 42 175 86 341 614 563 513 642 422 405
4 4 6 5 5 3 3 3 5 5 5 4 3 4 5 50 84 64 68 24 74 72 80 74 22 101 119 188 116 167 144 339 564 200 188 274 529 404 196 596 561 354
3 3 4 4 4 2 3 4 5 4 4 4 4 3 2 16 42 35 8 10 88 68 28 1 43 96 100 90 124 80 77 340 257 133 322 566 478 216 200 216 280 233
4 3 4 4 6 4 3 3 4 4 4 6 3 2 2 4 6 7 6 4 3 2 13 7 25 81 92 123 110 90 109 224 74 90 305 271 273 268 220 187 180 226
4 4 2 3 4 6 7 5 4 3 7 14 10 6 8 9 3 4 6 6 11 12 10 12 27 40 66 76 63 138 161 145 121 64 170 235 154 180 206 160 220 300
4 4 4 4 4 3 3 5 4 3 14 23 21 4 2 3 9 2 0 2 4 8 4 7 6 19 12 38 115 111 125 102 71 122 107 84 51 103 165 134 95 175

ECMWFNIL_con_mucape_108.txt.gz
CAPE
1720 1720 1690 1658 1563 1655 1758 1677 1616 1551 1581 1682 1690 1507 1194 998 919 673 732 1033 1192 1177 1143 942 844 801 869 861 859 775 628 586 560 728 710 512 634 690 397 212 359 470
1366 1266 1305 1319 1335 1456 1638 1856 1894 1818 1678 1653 1535 1395 1150 1023 1010 854 676 538 903 1007 962 965 891 916 742 758 738 593 461 454 422 514 629 491 541 384 340 328 457 932
1256 1281 1274 1222 1282 1352 1489 1528 1612 1794 1485 1490 1419 1167 1007 1041 1008 903 759 772 703 879 895 907 946 804 709 615 620 507 577 533 395 292 336 384 391 380 349 436 802 790
1138 1213 1182 1181 1285 1388 1441 1396 1430 1668 1593 1408 1084 1165 786 767 789 808 800 648 718 703 819 825 772 776 590 668 541 566 506 570 444 408 273 266 311 359 582 682 812 576
1014 1121 1175 1141 1119 1225 1257 1220 1258 1340 1367 1291 1094 1024 872 592 600 519 374 472 590 727 771 795 813 744 651 647 674 564 541 643 464 378 373 328 348 400 485 632 516 505
791 766 868 982 1079 1169 1161 1137 1190 1148 1046 961 954 947 854 562 521 445 387 459 486 597 633 742 730 789 578 640 740 620 567 502 484 547 519 392 381 355 468 397 340 321
602 661 724 735 827 979 1085 1066 1096 1076 1003 996 796 725 694 624 408 312 298 332 481 562 528 608 653 725 627 713 583 585 510 488 388 532 408 496 458 494 405 348 284 257
391 514 635 646 746 837 955 932 951 928 996 990 879 734 644 456 441 309 285 318 341 376 505 656 632 615 434 432 549 535 456 395 420 397 367 416 552 466 464 296 383 308
268 261 276 365 523 750 847 808 733 784 678 734 587 459 619 325 448 375 141 293 469 380 325 504 566 686 702 580 486 451 421 477 459 488 295 476 487 488 482 435 530 428
46 68 124 217 327 467 600 725 722 685 663 724 606 684 588 473 665 445 289 408 432 346 406 471 605 562 560 607 501 334 459 519 421 381 629 578 482 556 485 467 380 339
17 28 86 159 242 376 527 661 626 893 789 415 560 562 459 390 709 648 451 604 581 533 554 472 462 526 657 611 486 287 318 446 574 626 658 592 562 552 625 492 408 452
13 29 87 182 277 387 540 637 619 512 330 354 482 412 608 642 563 595 700 608 462 476 464 518 535 403 464 625 539 465 459 431 526 562 490 463 517 517 461 603 427 445
8 31 134 243 318 447 543 535 513 590 447 347 338 536 470 288 407 514 477 471 523 607 488 464 508 531 472 499 578 502 546 565 491 419 526 351 472 758 654 619 546 339
9 48 120 121 293 352 440 468 416 387 625 577 477 452 279 340 436 450 398 364 461 456 422 539 567 405 276 251 362 422 462 529 599 524 453 625 772 506 573 549 462 342
7 36 59 14 95 74 184 183 139 160 208 253 354 382 403 243 210 439 633 614 572 490 408 450 520 612 407 401 546 484 320 397 398 374 336 435 637 646 628 434 338 419
7 16 16 15 3 2 30 23 12 22 22 36 104 300 272 114 87 283 286 386 500 487 478 441 452 511 460 528 520 490 396 302 327 370 345 490 682 667 391 309 292 492
8 8 13 12 10 8 7 4 3 3 2 2 3 24 64 61 122 209 160 239 325 456 446 438 451 514 540 378 545 695 661 430 416 383 315 422 704 548 362 277 327 320
8 7 11 11 1 3 5 4 5 3 1 2 32 35 12 33 113 152 34 6 229 325 290 332 288 404 399 380 368 359 316 476 514 565 535 447 408 425 259 249 208 236
4 10 9 8 3 2 1 3 4 3 3 2 2 42 43 44 8 3 1 1 104 218 258 176 266 351 365 338 238 157 132 248 439 409 538 226 116 150 199 268 331 238
4 5 9 9 3 2 2 3 5 4 7 6 4 3 4 22 5 1 2 4 3 3 144 260 284 219 288 240 172 166 130 66 166 596 449 360 206 173 159 313 344 316
2 2 4 4 2 3 3 1 4 4 4 4 3 2 3 4 3 7 4 3 2 8 48 122 180 204 238 280 284 223 210 76 40 49 130 99 127 98 160 308 258 338
2 0 2 0 1 4 2 0 3 3 3 3 1 1 3 3 2 2 3 2 3 10 21 74 147 223 166 172 121 240 154 55 44 38 63 87 116 130 189 171 169 279
2 1 1 1 1 1 1 2 3 4 4 3 2 2 3 4 2 2 2 2 2 3 16 30 55 116 83 86 104 130 60 48 68 37 40 52 124 188 154 204 138 152
0 1 2 1 2 2 2 2 2 3 4 11 4 2 3 2 2 2 2 1 1 2 3 3 18 10 36 64 63 38 20 14 20 24 80 2 74 124 181 173 106 129
1 2 1 2 0 0 1 1 1 5 6 4 6 3 3 3 1 2 2 2 2 3 0 15 32 34 53 50 42 57 47 53 70 66 47 39 74 94 94 149 130 110
0 1 0 0 0 2 1 1 0 2 9 4 2 4 4 3 2 2 2 5 4 2 2 5 16 6 15 30 42 37 60 75 67 65 55 35 47 103 93 55 85 131

ECMWFNIL_con_mucape_111.txt.gz
CAPE
892 898 828 790 799 879 1222 1387 1449 1360 1364 1463 1471 1342 1099 971 915 908 889 883 794 580 583 535 590 605 651 750 674 741 825 725 662 574 556 447 454 546 452 328 303 278
697 771 818 793 720 704 690 789 1014 1261 1406 1346 1178 1099 1039 901 785 669 612 606 617 636 665 532 451 407 423 622 685 636 730 718 673 620 669 539 506 539 575 450 293 199
509 474 661 639 582 684 758 719 785 932 1109 1124 1055 974 921 785 631 494 424 391 331 298 456 574 452 427 417 274 608 717 670 669 646 535 522 544 565 587 484 427 391 342
199 275 303 346 404 433 445 372 617 729 671 714 706 709 700 689 611 506 418 357 274 251 306 436 502 340 413 407 428 674 730 657 602 617 635 586 534 595 556 546 479 449
167 240 211 204 205 210 214 279 558 607 638 597 583 565 536 542 614 568 420 39 46 219 264 346 354 538 667 674 537 467 616 698 619 534 440 454 590 597 532 446 432 403
23 144 187 140 130 94 135 430 440 410 489 564 558 566 518 440 262 458 174 138 141 240 374 422 359 362 484 644 668 572 574 720 446 422 325 367 453 392 424 495 367 550
0 2 4 10 6 26 72 269 337 320 418 330 444 477 431 312 150 158 213 180 107 140 275 383 453 346 414 580 679 662 640 615 428 483 455 449 392 342 286 454 445 707
2 0 0 0 2 0 28 94 260 83 129 380 148 185 177 399 405 381 403 389 294 71 91 188 36 274 461 615 695 715 655 628 384 402 493 460 346 354 422 493 587 696
8 6 6 11 33 25 0 149 227 219 112 146 122 132 178 186 264 150 390 384 332 420 288 278 232 213 305 531 558 572 628 605 575 443 488 436 432 446 477 507 550 548
7 8 7 7 57 107 38 189 247 204 109 63 29 59 335 305 323 131 166 405 371 425 532 477 388 475 511 519 523 526 474 536 565 474 439 462 446 494 519 557 526 492
8 6 6 8 22 103 176 159 141 75 122 85 56 85 307 310 288 281 395 482 513 466 422 421 443 456 574 585 575 477 415 456 459 346 268 328 348 464 578 590 529 471
8 10 4 3 5 8 29 14 12 18 46 104 154 165 186 195 201 266 284 344 297 430 505 407 472 448 503 508 562 470 411 432 460 276 248 302 384 425 566 590 563 560
10 15 10 1 5 5 1 0 0 0 2 35 47 96 122 96 64 60 303 320 279 217 296 384 359 469 528 613 583 474 358 412 390 392 396 305 332 368 387 480 559 571
6 14 8 3 2 0 0 0 0 2 1 1 3 2 8 77 42 77 168 252 354 444 398 392 327 401 461 480 535 320 374 342 261 428 469 508 396 340 467 406 474 437
5 13 13 9 5 1 0 3 4 1 2 0 0 1 2 27 4 19 4 4 153 336 352 328 328 335 376 354 264 306 363 347 355 397 324 241 294 281 260 368 490 450
10 12 10 8 4 0 3 7 8 1 1 1 0 1 3 3 3 3 1 0 1 2 142 406 454 346 459 327 367 436 415 385 291 349 202 174 283 430 194 281 386 512
8 10 8 3 2 3 7 8 5 1 1 1 1 2 4 6 4 3 3 2 2 2 172 268 399 526 576 610 557 437 447 358 321 300 206 304 507 398 154 178 454 372
5 9 9 5 3 6 7 5 1 1 1 1 2 2 3 8 14 4 2 1 1 25 93 178 328 364 432 485 561 535 456 365 340 151 344 242 321 318 250 125 212 188
7 6 4 6 6 5 3 4 2 1 2 3 3 2 1 1 1 1 0 1 1 0 26 78 187 255 305 418 341 240 195 266 191 91 98 96 166 133 198 188 117 182
2 2 2 4 6 2 2 5 4 3 2 4 4 2 1 1 0 0 0 0 1 1 1 64 141 210 246 185 127 92 56 58 18 60 57 110 72 97 96 160 178 202
6 3 4 4 2 1 1 4 5 3 3 3 4 3 2 2 1 0 0 2 1 0 21 42 103 208 182 116 50 38 38 27 45 60 57 66 103 77 89 158 174 187
4 10 5 3 2 0 0 1 2 2 4 4 3 3 2 1 1 1 2 6 9 2 11 36 94 227 120 48 48 34 21 23 22 32 52 96 104 96 116 148 160 164
1 4 5 3 2 0 0 0 0 2 4 4 4 3 2 1 1 0 0 0 21 20 4 6 2 9 20 13 25 31 43 48 51 55 60 83 116 108 126 168 141 136
2 2 3 3 1 0 0 0 0 0 5 6 5 3 2 1 0 0 0 0 2 1 7 4 6 12 13 16 19 29 37 27 28 36 41 34 34 56 110 105 104 89
2 2 2 2 1 1 0 0 0 0 0 1 4 5 4 1 0 0 0 1 1 2 2 4 7 13 27 29 27 35 34 21 20 20 18 21 16 10 26 67 76 74
0 0 0 0 0 2 2 1 1 0 0 0 0 0 2 3 1 0 0 1 5 6 3 0 1 1 5 9 19 16 17 14 14 14 14 12 12 26 28 53 62 56

ECMWFNIL_con_mucape_114.txt.gz
CAPE
852 709 645 649 631 614 643 625 631 628 786 940 1071 1164 1141 978 825 680 555 444 380 345 354 372 392 464 517 481 456 450 324 277 287 274 280 332 618 516 498 395 288 342
696 581 590 566 540 510 522 517 489 527 632 711 814 810 769 728 604 189 109 0 68 281 245 213 160 155 185 259 389 415 396 400 300 160 216 570 552 444 449 434 410 440
518 485 463 407 145 150 368 403 396 364 480 449 426 455 421 21 8 9 1 0 96 253 210 166 98 83 100 202 163 271 367 350 284 225 388 558 500 488 482 457 404 355
142 73 176 222 115 58 156 213 345 82 83 4 19 1 0 1 1 1 2 59 222 256 259 190 106 127 201 207 163 180 302 246 245 415 453 568 521 527 490 448 399 350
141 171 120 122 0 0 0 0 3 0 0 0 0 0 0 0 0 0 0 15 188 188 181 151 110 121 141 182 194 259 234 298 402 461 460 496 514 481 467 458 432 434
54 0 0 0 0 0 116 144 0 0 0 0 0 0 0 0 0 0 0 179 186 208 207 228 119 145 327 244 224 297 362 290 338 489 530 543 524 518 524 484 486 402
0 0 17 92 144 173 199 219 198 191 170 166 0 0 0 0 0 0 0 0 0 8 226 389 277 110 119 307 274 219 269 371 356 392 542 599 548 522 537 484 481 453
5 11 82 151 171 141 110 92 86 90 126 7 1 0 0 0 0 0 149 198 271 299 374 409 460 410 228 162 246 320 317 408 436 347 384 406 370 446 495 487 442 385
10 17 56 61 51 24 14 2 2 35 66 95 42 17 81 2 142 14 136 199 293 309 323 410 468 391 348 330 229 233 311 375 386 413 390 444 386 287 299 331 339 340
6 7 7 8 7 4 1 0 0 0 3 35 28 2 3 13 9 8 118 172 177 104 236 110 461 469 360 382 415 375 358 374 390 382 432 480 379 392 397 356 309 267
6 2 4 5 5 1 0 0 0 0 2 5 4 3 4 17 4 15 22 82 66 7 4 49 387 372 343 395 400 360 361 410 389 336 459 426 345 234 329 334 294 252
4 0 0 0 0 0 0 0 1 4 4 5 4 3 3 3 3 3 3 1 1 0 0 60 270 247 421 423 356 316 360 436 401 296 214 138 213 233 361 395 431 412
7 6 1 0 0 0 0 2 4 4 4 4 4 7 5 3 2 1 2 2 0 0 1 8 220 201 214 225 114 248 272 316 302 148 246 220 172 183 343 479 548 559
8 6 3 0 0 2 3 2 3 4 4 5 6 6 4 4 2 2 1 1 1 1 1 1 208 58 0 71 298 340 282 379 305 253 287 290 272 274 343 404 507 517
4 4 2 0 2 4 1 2 1 2 4 4 4 5 6 6 2 2 1 0 0 0 1 0 144 233 81 321 326 255 229 251 165 304 330 381 427 354 275 271 348 434
8 4 1 3 4 4 3 2 2 1 1 1 1 0 1 1 0 0 1 1 0 0 3 2 91 394 395 370 336 373 268 178 232 265 277 256 318 355 366 359 370 350
8 6 6 5 7 7 4 3 2 1 0 0 0 0 0 0 0 0 1 1 1 1 0 57 6 71 492 341 369 367 265 229 163 146 104 146 187 210 279 296 247 264
6 8 6 2 8 10 5 2 1 0 1 0 0 0 0 1 1 1 0 0 0 1 0 1 77 162 273 282 366 296 198 156 135 116 172 168 198 185 180 149 203 254
6 6 2 2 8 7 4 1 1 1 0 1 1 2 2 2 1 1 0 0 0 0 0 11 144 230 254 171 168 142 96 78 75 102 133 186 134 132 136 124 138 141
6 3 0 0 2 5 3 3 2 2 1 1 1 2 3 4 2 1 1 0 0 0 2 115 139 160 59 20 28 25 29 26 42 58 92 86 81 96 128 125 118 113
5 2 1 0 0 3 4 3 2 1 1 0 0 0 0 2 5 4 1 0 7 17 67 27 38 47 34 11 5 13 17 30 46 60 49 52 50 63 107 117 162 154
6 4 2 1 1 1 4 5 4 2 1 0 0 0 0 0 6 10 16 24 31 24 37 44 38 28 35 1 1 18 31 33 29 25 30 34 35 53 77 120 132 117
6 4 2 1 1 0 0 2 7 5 3 0 0 0 0 0 0 8 15 17 14 25 39 47 30 4 0 0 0 1 0 0 0 0 0 1 7 35 97 129 130 111
4 4 2 2 1 0 0 0 0 2 4 2 0 0 0 0 4 7 12 12 11 17 46 36 38 9 0 0 0 0 0 0 0 0 3 6 3 31 35 51 60 86
6 5 6 5 4 2 0 0 0 1 1 0 0 0 0 0 0 2 2 2 5 8 7 32 48 42 8 0 0 0 0 0 0 0 0 0 0 7 15 23 42 61
3 4 5 4 3 1 0 0 0 0 0 0 0 0 0 0 0 0 0 2 5 0 0 0 1 0 0 0 0 0 0 0 0 0 0 0 0 1 10 10 2 3

ECMWFNIL_con_mucape_117.txt.gz
CAPE
950 777 734 732 789 605 526 518 488 448 430 414 453 558 632 676 705 658 573 460 0 0 55 116 107 72 57 80 94 93 167 221 250 253 406 496 409 338 358 322 198 221
917 802 700 594 471 421 406 395 365 328 324 308 296 356 398 174 167 129 0 0 0 0 34 83 72 82 98 98 90 62 72 154 195 198 323 425 406 373 254 74 200 263
620 602 306 122 343 385 366 267 0 0 0 0 0 0 0 0 0 0 0 0 0 0 98 72 59 66 86 78 67 68 86 134 152 200 241 320 368 341 206 74 385 349
439 334 315 314 311 100 0 0 0 0 0 0 0 0 0 0 0 0 0 0 56 0 18 2 27 72 63 60 46 76 139 176 178 336 352 355 351 194 112 238 234 74
98 115 105 32 0 31 135 106 18 17 25 33 34 0 0 0 0 43 42 104 78 59 57 58 65 75 91 80 44 80 126 181 195 267 329 274 167 160 199 279 204 252
6 11 32 79 98 0 83 19 7 8 53 94 82 80 74 96 106 102 96 71 57 70 128 166 152 190 252 209 111 77 120 286 266 265 315 337 298 271 337 332 266 206
10 23 56 84 71 39 5 2 1 1 14 35 28 3 4 21 53 34 33 52 62 92 152 132 115 153 257 297 203 139 120 144 182 306 306 321 328 293 292 324 339 317
6 6 27 14 9 2 1 0 0 1 0 2 0 3 4 2 3 6 14 41 52 41 47 26 72 157 294 374 335 209 164 170 180 242 260 268 297 279 265 237 269 224
10 7 5 4 4 2 0 0 0 0 2 3 4 4 4 4 9 9 8 8 14 22 7 1 102 182 214 283 335 327 244 185 189 243 278 261 261 275 269 240 199 187
7 9 6 3 3 1 0 0 0 0 3 3 3 7 5 5 4 4 3 2 2 1 1 0 130 178 188 215 278 300 296 245 207 223 252 247 191 113 25 209 186 98
2 2 1 1 0 0 0 0 2 4 4 3 3 5 6 5 4 4 3 3 3 2 63 114 116 139 165 160 173 191 176 166 210 241 243 145 50 6 126 248 287 268
0 0 0 0 0 0 1 2 3 5 4 6 4 3 5 5 4 3 3 1 1 1 1 16 100 120 111 63 49 73 62 59 283 174 114 78 30 227 227 248 270 358
4 1 0 0 1 1 2 2 2 3 2 2 3 4 4 4 1 1 1 1 1 1 0 0 60 114 129 53 26 24 2 31 0 0 14 0 172 191 209 208 186 196
3 2 0 1 1 1 1 1 1 1 1 1 1 1 1 0 0 0 0 0 0 0 2 19 124 255 83 112 91 123 0 1 36 55 73 209 272 210 168 128 193 266
5 3 3 5 5 5 4 1 0 0 0 0 0 0 1 0 0 0 0 0 0 0 2 13 94 200 255 59 338 76 98 45 26 59 0 192 268 255 227 191 203 224
6 3 8 8 6 4 2 1 1 1 1 1 0 0 1 1 0 0 0 0 0 1 42 45 156 0 1 168 317 10 1 0 1 1 1 1 141 104 160 176 211 203
6 5 6 8 7 3 3 2 1 1 1 1 0 1 2 2 0 0 0 1 1 31 100 164 200 199 161 136 132 1 4 0 1 1 53 194 120 91 116 183 196 155
8 4 5 4 3 2 2 1 0 1 0 0 0 0 0 1 3 1 0 1 14 94 183 188 146 114 76 63 29 0 0 1 0 0 109 168 108 162 146 122 144 148
4 1 4 5 2 1 1 1 0 0 0 0 0 0 0 0 2 2 0 2 59 131 106 41 1 3 1 0 0 0 0 0 0 0 1 35 34 63 76 101 92 53
2 0 1 4 2 1 0 0 0 0 0 0 0 0 0 0 0 1 0 2 4 23 45 40 8 8 2 11 18 10 0 0 0 0 0 0 11 24 34 38 46 89
1 1 1 3 4 2 2 1 0 0 0 0 0 0 0 0 0 0 0 0 1 18 33 25 0 0 9 12 15 3 0 0 0 0 0 0 0 7 16 19 49 86
0 0 2 1 2 3 2 2 1 0 0 0 0 0 0 0 0 0 0 0 0 2 8 6 2 0 11 21 17 0 0 0 0 0 0 0 0 1 4 8 5 12
2 2 5 1 0 0 0 0 1 0 0 0 1 3 0 0 0 0 1 0 0 0 0 0 2 4 2 2 5 0 0 0 0 0 0 0 0 1 0 0 0 0
6 6 3 1 0 0 0 0 0 0 0 0 0 0 0 0 1 4 3 1 0 4 5 7 6 3 2 11 10 0 0 0 0 0 0 0 0 0 1 0 0 0
6 7 4 1 0 0 0 0 0 0 0 0 0 0 0 0 0 0 0 0 0 1 1 0 0 0 0 0 0 0 0 0 0 0 0 0 0 0 0 0 0 0
5 6 2 0 0 0 0 0 0 0 0 0 0 0 0 0 0 0 0 0 0 0 0 0 0 0 0 0 0 0 0 0 0 0 0 3 3 0 0 0 0 0